     2              OBSERVATION DATA    GPS                 RINEX VERSION / TYPE
FIC2RX 9.60 97/08/04                                        PGM / RUN BY / DATE
                                                            COMMENT
Operator input collection int (sec) 30.0000                 COMMENT
Operator input collection int (sec) 30.0000                 COMMENT
Operator input collection int (sec) 30.0000                 COMMENT
Operator input collection int (sec) 30.0000                 COMMENT
Operator input collection int (sec) 30.0000                 COMMENT
Original Marker Name: COLL                                  COMMENT
Campaign Name: STRC 1988 University                         COMMENT
4-Character Station Name: COLL                              COMMENT
6-Character Antenna Code: TI4100                            COMMENT
Vertical Measurement Point: PAE                             COMMENT
Vertical Offset to Rinex Ref. Point: 0.0000                 COMMENT
Radial Measurement Point: PAE                               COMMENT
Radial Offset to Rinex Ref. Point: 0.0842                   COMMENT
Antenna Height from Field Measurement: 1.4470 m             COMMENT
Original XYZ: 0.0000 0.0000 0.0000                          COMMENT
New XYZ position is based on association with SCEC monument COMMENT
E1C8W2I6+0012. Position of that monument is believed to be  COMMENT
valid to within 1 m horizontally; vertical accuracy         COMMENT
should be no worse than 3-times this value.                 COMMENT
                                                            COMMENT
Revised Rinex header created by UCSD GPS archive for        COMMENT
GSAC on 10-Apr-1999 (1999:100) 06:03:59 GMT                 COMMENT
For assistance contact dagnew@ucsd.edu or hjohnson@ucsd.edu COMMENT
                                                            COMMENT
COLLEGE 1967                                                MARKER NAME
DT MASS INST. OF TECHNOLOGY                                 OBSERVER / AGENCY
UN02 TI 4100 GES 1.50                                       REC # / TYPE / VERS
UN02 TI 4100                                                ANT # / TYPE
 -2309840.0000 -4842142.0000  3437815.0000                  APPROX POSITION XYZ
        1.4446        0.0000        0.0000                  ANTENNA: DELTA H/E/N
     1     1     0                                          WAVELENGTH FACT L1/2
     4    L1    L2    P1    P2                              # / TYPES OF OBSERV
    30                                                      INTERVAL
  1988     3     3     4    32   29.000000                  TIME OF FIRST OBS
  1988     3     3    11    43   59.000000                  TIME OF LAST OBS
     7                                                      # OF SATELLITES
           6   384   384   384   384                        PRN / # OF OBS
           8   288   288   288   288                        PRN / # OF OBS
          11   560   560   560   560                        PRN / # OF OBS
           9   628   628   628   628                        PRN / # OF OBS
          13   576   576   576   576                        PRN / # OF OBS
           3   480   480   480   480                        PRN / # OF OBS
                                                            END OF HEADER
 88  3  3  4 32 29.0800000  0  2  6  8
         -.017 8         -.398 8  21747992.847 0  21747995.629 0
         -.255 7         -.444 7  20380272.941 0  20380277.187 0
 88  3  3  4 32 59.0800000  0  2  6  8
    -57592.876 8    -44877.951 7  21737032.656 0  21737036.335 0
    -34262.751 7    -26698.509 7  20373753.571 0  20373756.973 0
 88  3  3  4 33 29.0800000  0  2  6  8
   -115054.215 7    -89653.016 8  21726098.059 0  21726101.702 0
    -67844.617 6    -52866.158 7  20367364.156 0  20367367.797 0
 88  3  3  4 33 59.0800000  0  2  6  8
   -172382.482 7   -134324.383 7  21715188.803 0  21715192.502 0
   -100745.494 6    -78503.181 7  20361101.831 0  20361105.537 0
 88  3  3  4 34 29.0800000  0  2  6  8
   -229575.708 8   -178890.537 7  21704305.996 0  21704308.279 0
   -132964.211 7   -103608.668 6  20354972.582 0  20354974.749 0
 88  3  3  4 34 59.0800000  0  2  6  8
   -286631.927 8   -223349.912 7  21693448.469 0  21693451.174 0
   -164499.550 7   -128181.647 7  20348969.521 0  20348973.925 0
 88  3  3  4 35 29.0800000  0  2  6  8
   -343549.277 7   -267701.094 7  21682616.324 0  21682620.012 0
   -195350.321 7   -152221.183 7  20343099.500 0  20343103.634 0
 88  3  3  4 35 59.0800000  0  2  6  8
   -400325.817 8   -311942.540 6  21671813.610 0  21671815.053 0
   -225516.044 8   -175726.923 6  20337359.314 0  20337362.476 0
 88  3  3  4 36 29.0800000  0  2  6  8
   -456959.477 8   -356072.667 8  21661035.732 0  21661038.487 0
   -254995.828 7   -198698.169 7  20331750.049 0  20331752.782 0
 88  3  3  4 36 59.0800000  0  2  6  8
   -513448.740 7   -400090.268 7  21650286.066 0  21650288.255 0
   -283788.906 7   -221134.327 7  20326270.478 0  20326274.930 0
 88  3  3  4 37 29.0800000  0  2  6  8
   -569791.987 7   -443994.095 7  21639563.652 0  21639567.659 0
   -311895.037 7   -243035.171 7  20320920.957 0  20320924.567 0
 88  3  3  4 37 59.0800000  0  2  6  8
   -625986.748 7   -487782.216 7  21628871.246 0  21628874.321 0
   -339312.789 7   -264399.645 7  20315704.794 0  20315708.396 0
 88  3  3  4 38 29.0800000  0  2  6  8
   -682031.239 8   -531453.241 7  21618206.570 0  21618209.432 0
   -366041.912 7   -285227.530 7  20310617.826 0  20310621.213 0
 88  3  3  4 38 59.0800000  0  2  6  8
   -737923.061 7   -575005.301 7  21607570.978 0  21607573.301 0
   -392081.097 7   -305517.766 7  20305662.904 0  20305666.260 0
 88  3  3  4 39 29.0800000  0  2  6  8
   -793660.108 8   -618436.766 7  21596964.138 0  21596966.227 0
   -417429.568 7   -325269.813 7  20300838.792 0  20300843.158 0
 88  3  3  4 39 59.0800000  0  2  6  8
   -849240.837 7   -661746.420 7  21586386.990 0  21586390.104 0
   -442086.750 7   -344483.205 7  20296146.893 0  20296150.133 0
 88  3  3  4 40 29.0800000  0  4  6  8 11  9
   -904663.288 8   -704932.741 7  21575840.087 0  21575843.107 0
   -466052.245 7   -363157.587 6  20291587.113 0  20291589.413 0
          .120 8          .000 1  22387338.228 0          .000 0
          .009 6          .000 1  23653191.114 0          .000 0
 88  3  3  4 40 59.0800000  0  4  6  8 11  9
   -959924.954 8   -747993.773 7  21565325.100 0  21565327.282 0
   -489325.314 7   -381292.444 7  20287158.118 0  20287161.837 0
    -92970.015 7     83563.874 7  22369676.195 0  22369681.979 0
    -89277.971 5     45332.614 6  23936026.649 0  23936028.741 0
 88  3  3  4 41 29.0800000  0  4  6  8 11  9
  -1015024.585 8   -790928.548 7  21554839.585 0  21554842.759 0
   -511905.890 7   -398887.687 7  20282860.998 0  20282863.303 0
   -185594.683 7     11388.825 7  22352050.369 0  22352055.807 0
   -178607.378 6    -24274.702 7  23919025.045 0  23919029.427 0
 88  3  3  4 41 59.0800000  0  4  6  8 11  9
  -1069959.922 8   -833735.299 7  21544386.425 0  21544389.487 0
   -533793.298 7   -415942.810 6  20278693.965 0  20278698.499 0
   -277872.366 8    -60515.827 6  22334489.200 0  22334494.564 0
   -267987.815 6    -93921.769 6  23902016.338 0  23902018.837 0
 88  3  3  4 42 29.0800000  0  4  6  8 11  9
  -1124729.112 8   -876412.577 7  21533963.952 0  21533966.780 0
   -554987.499 7   -432457.746 6  20274662.653 0  20274665.913 0
   -369800.360 7   -132148.007 6  22316996.904 0  22317001.676 0
   -357417.640 7   -163607.257 7  23884999.572 0  23885002.525 0
 88  3  3  4 42 59.0800000  0  4  6  8 11  9
  -1179330.102 8   -918958.807 7  21523573.953 0  21523576.812 0
   -575487.975 7   -448432.135 7  20270762.328 0  20270765.231 0
   -461375.886 8   -203505.523 7  22299570.931 0  22299575.743 0
   -446895.867 7   -233330.511 7  23867971.645 0  23867976.190 0
 88  3  3  4 43 29.0800000  0  4  6  8 11  9
  -1233760.769 7   -961372.303 7  21513214.835 0  21513218.949 0
   -595294.313 7   -463865.630 6  20266992.732 0  20266996.164 0
   -552596.860 7   -274586.768 7  22282211.687 0  22282217.486 0
   -536421.481 7   -303090.703 7  23850934.663 0  23850940.132 0
 88  3  3  4 43 59.0800000  0  4  6  8 11  9
  -1288018.981 7  -1003651.419 8  21502890.285 0  21502893.619 0
   -614406.060 7   -478757.881 6  20263356.225 0  20263359.169 0
   -643460.598 7   -345389.637 7  22264920.287 0  22264925.936 0
   -625992.992 8   -372886.658 7  23833890.605 0  23833895.006 0
 88  3  3  4 44 29.0800000  0  4  6  8 11  9
  -1342102.418 7  -1045794.356 7  21492598.714 0  21492600.999 0
   -632822.943 8   -493108.699 6  20259851.290 0  20259853.448 0
   -733964.504 7   -415912.133 7  22247698.552 0  22247704.012 0
   -715609.061 7   -442717.317 7  23816837.047 0  23816840.322 0
 88  3  3  4 44 59.0800000  0  4  6  8 11  9
  -1396009.107 8  -1087799.553 7  21482340.142 0  21482343.219 0
   -650544.435 7   -506917.631 6  20256479.287 0  20256481.976 0
   -824106.307 7   -486152.476 7  22230546.220 0  22230549.792 0
   -805268.468 7   -512581.756 7  23799775.641 0  23799779.297 0
 88  3  3  4 45 29.0800000  0  4  6  8 11  9
  -1449737.087 8  -1129665.508 7  21472116.706 0  21472119.698 0
   -667570.010 7   -520184.307 6  20253240.206 0  20253241.531 0
   -913883.300 8   -556108.555 6  22213461.240 0  22213465.190 0
   -894970.661 7   -582479.507 7  23782705.452 0  23782709.901 0
 88  3  3  4 45 59.0800000  0  4  6  8 11  9
  -1503284.549 8  -1171390.797 8  21461927.135 0  21461928.888 0
   -683900.173 7   -532909.091 6  20250130.808 0  20250134.765 0
  -1003293.514 8   -625778.840 7  22196447.176 0  22196451.724 0
   -984714.111 8   -652409.419 8  23765628.128 0  23765631.107 0
 88  3  3  4 46 29.0800000  0  4  6  8 11  9
  -1556649.228 8  -1212973.663 7  21451772.358 0  21451775.590 0
   -699534.471 7   -545091.660 6  20247155.681 0  20247158.776 0
  -1092334.198 8   -695161.156 7  22179503.702 0  22179507.769 0
  -1074497.666 8   -722370.586 7  23748541.905 0  23748546.351 0
 88  3  3  4 46 59.0800000  0  4  6  8 11  9
  -1609828.493 7  -1254412.038 7  21441652.794 0  21441654.574 0
   -714472.422 7   -556731.614 7  20244313.651 0  20244317.471 0
  -1181002.563 7   -764253.352 7  22162630.345 0  22162634.678 0
  -1164319.523 8   -792361.596 8  23731449.749 0  23731453.301 0
 88  3  3  4 47 29.0800000  0  4  6  8 11  9
  -1662820.730 8  -1295704.682 7  21431567.712 0  21431570.370 0
   -728714.599 7   -567829.384 7  20241603.062 0  20241606.817 0
  -1269296.837 7   -833054.079 7  22145828.721 0  22145833.271 0
  -1254179.090 7   -862382.007 7  23714350.324 0  23714354.406 0
 88  3  3  4 47 59.0800000  0  4  6  8 11  9
  -1715623.999 8  -1336850.087 7  21421520.307 0  21421523.199 0
   -742260.995 7   -578384.999 6  20239025.641 0  20239028.607 0
  -1357214.400 7   -901561.253 7  22129097.941 0  22129103.393 0
  -1344074.978 7   -932430.705 7  23697243.361 0  23697246.384 0
 88  3  3  4 48 29.0800000  0  4  6  8 11  9
  -1768236.102 8  -1377846.517 7  21411508.671 0  21411511.353 0
   -755111.413 7   -588398.321 6  20236581.146 0  20236584.672 0
  -1444753.059 7   -969773.203 7  22112440.319 0  22112444.975 0
  -1434006.266 7  -1002506.984 8  23680129.290 0  23680134.168 0
 88  3  3  4 48 59.0800000  0  4  6  8 11  9
  -1820654.803 8  -1418692.249 7  21401532.917 0  21401536.214 0
   -767265.762 7   -597869.231 7  20234267.201 0  20234270.442 0
  -1531910.355 8  -1037687.927 7  22095854.251 0  22095860.353 0
  -1523971.099 7  -1072609.382 8  23663009.821 0  23663013.707 0
 88  3  3  4 49 29.0800000  0  4  6  8 11  9
  -1872877.816 8  -1459385.506 8  21391594.743 0  21391599.234 0
   -778723.649 7   -606797.448 6  20232087.044 0  20232090.050 0
  -1618683.687 7  -1105303.483 7  22079341.678 0  22079347.820 0
  -1613968.364 6  -1142737.083 7  23645882.748 0  23645888.911 0
 88  3  3  4 49 59.0800000  0  4  6  8 11  9
  -1924903.498 8  -1499924.991 7  21381694.976 0  21381698.274 0
   -789485.768 7   -615183.504 6  20230038.332 0  20230042.882 0
  -1705071.321 8  -1172618.503 7  22062902.497 0  22062907.920 0
  -1703997.041 6  -1212889.261 7  23628748.983 0  23628756.291 0
 88  3  3  4 50 29.0800000  0  4  6  8 11  9
  -1976729.315 8  -1540308.737 7  21371832.990 0  21371836.073 0
   -799552.284 7   -623027.516 6  20228124.776 0  20228126.850 0
  -1791070.041 7  -1239630.467 7  22046538.033 0  22046543.556 0
  -1794055.638 6  -1283064.704 7  23611615.130 0  23611617.958 0
 88  3  3  4 50 59.0800000  0  4  6  8 11  9
  -2028352.638 7  -1580534.699 7  21362009.220 0  21362012.593 0
   -808922.812 7   -630329.223 6  20226340.190 0  20226343.998 0
  -1876677.491 7  -1306337.559 7  22030247.679 0  22030252.078 0
  -1884142.326 7  -1353262.074 7  23594471.943 0  23594475.950 0
 88  3  3  4 51 29.0800000  0  4  6  8 11  9
  -2079771.334 7  -1620601.220 7  21352224.923 0  21352227.881 0
   -817597.222 7   -637088.509 7  20224689.096 0  20224692.912 0
  -1961891.371 7  -1372737.971 7  22014032.027 0  22014035.339 0
  -1974255.559 6  -1423480.157 7  23577324.308 0  23577326.613 0
 88  3  3  4 51 59.0800000  0  4  6  8 11  9
  -2130983.471 8  -1660506.770 7  21342479.260 0  21342482.730 0
   -825575.957 7   -643305.674 7  20223171.231 0  20223174.237 0
  -2046709.647 7  -1438830.102 7  21997890.918 0  21997895.657 0
  -2064394.150 7  -1493717.958 6  23560169.787 0  23560174.818 0
 88  3  3  4 52 29.0800000  0  4  6  8 11  9
  -2181987.172 7  -1700249.907 7  21332774.280 0  21332776.221 0
   -832859.558 7   -648981.197 6  20221784.535 0  20221788.468 0
  -2131130.483 7  -1504612.543 7  21981827.095 0  21981831.466 0
  -2154557.428 7  -1563975.015 6  23543012.889 0  23543015.812 0
 88  3  3  4 52 59.0800000  0  4  6  8 11  9
  -2232780.274 7  -1739828.938 7  21323107.565 0  21323111.289 0
   -839448.388 7   -654115.348 7  20220531.122 0  20220534.833 0
  -2215151.666 7  -1570083.587 7  21965838.414 0  21965842.209 0
  -2244743.946 7  -1634250.222 6  23525852.011 0  23525853.591 0
 88  3  3  4 53 29.0800000  0  4  6  8 11  9
  -2283360.911 7  -1779242.418 7  21313482.292 0  21313486.057 0
   -845343.094 7   -658708.604 7  20219408.976 0  20219413.406 0
  -2298770.828 8  -1635241.360 7  21949926.105 0  21949930.611 0
  -2334952.460 7  -1704542.566 7  23508684.553 0  23508688.630 0
 88  3  3  4 53 59.0800000  0  4  6  8 11  9
  -2333726.490 7  -1818488.324 8  21303898.490 0  21303902.017 0
   -850543.931 7   -662761.191 7  20218419.430 0  20218423.325 0
  -2381985.535 8  -1700083.993 7  21934089.508 0  21934095.681 0
  -2425181.337 7  -1774850.762 7  23491514.920 0  23491518.856 0
 88  3  3  4 54 29.0800000  0  4  6  8 11  9
  -2383874.891 7  -1857564.995 7  21294355.795 0  21294358.777 0
   -855051.099 7   -666273.269 6  20217562.384 0  20217565.901 0
  -2464793.652 7  -1764609.779 7  21918331.933 0  21918337.156 0
  -2515428.897 8  -1845173.502 6  23474342.974 0  23474344.718 0
 88  3  3  4 54 59.0800000  0  4  6  8 11  9
  -2433803.280 7  -1896470.221 7  21284853.890 0  21284857.768 0
   -858864.194 7   -669244.489 7  20216836.070 0  20216840.023 0
  -2547192.654 7  -1828816.768 6  21902652.459 0  21902657.693 0
  -2605693.297 8  -1915509.385 7  23457165.790 0  23457168.152 0
 88  3  3  4 55 29.0800000  0  4  6  8 11  9
  -2483509.274 7  -1935202.153 7  21275395.694 0  21275399.022 0
   -861983.901 7   -671675.423 7  20216241.905 0  20216246.205 0
  -2629179.967 8  -1892702.954 7  21887050.566 0  21887056.415 0
  -2695973.158 7  -1985857.328 7  23439986.317 0  23439988.658 0
 88  3  3  4 55 59.0800000  0  4  6  8 11  9
  -2532991.443 7  -1973759.692 7  21265979.564 0  21265983.800 0
   -864411.439 6   -673566.997 6  20215781.796 0  20215783.589 0
  -2710754.116 7  -1956267.214 7  21871527.797 0  21871531.657 0
  -2786267.426 7  -2056216.471 7  23422802.574 0  23422806.306 0
 88  3  3  4 56 29.0800000  0  4  6  8 11  9
  -2582247.361 7  -2012140.920 7  21256606.389 0  21256609.926 0
   -866147.080 7   -674919.440 7  20215450.525 0  20215454.295 0
  -2791913.021 8  -2019507.921 7  21856084.633 0  21856088.050 0
  -2876574.476 8  -2126585.558 7  23405618.524 0  23405622.562 0
 88  3  3  4 56 59.0800000  0  4  6  8 11  9
  -2631274.731 7  -2050344.079 7  21247276.619 0  21247279.568 0
   -867191.012 7   -675732.880 7  20215252.102 0  20215255.593 0
  -2872654.321 7  -2082423.211 7  21840719.274 0  21840724.288 0
  -2966893.053 7  -2196963.634 7  23388431.850 0  23388434.792 0
 88  3  3  4 57 29.0800000  0  4  6  8 11  9
  -2680070.829 7  -2088367.003 7  21237991.426 0  21237993.799 0
   -867543.514 7   -676007.537 7  20215185.244 0  20215188.238 0
  -2952975.431 7  -2145011.082 7  21825434.707 0  21825439.500 0
  -3057220.951 8  -2267348.986 7  23371241.693 0  23371245.679 0
 88  3  3  4 57 59.0800000  0  4  6  8 11  9
  -2728634.032 7  -2126208.463 7  21228750.673 0  21228753.790 0
   -867205.967 7   -675744.506 7  20215248.933 0  20215253.361 0
  -3032874.635 7  -2207270.206 7  21810230.106 0  21810234.530 0
  -3147557.154 7  -2337740.800 7  23354051.262 0  23354055.017 0
 88  3  3  4 58 29.0800000  0  4  6  8 11  9
  -2776962.336 8  -2163866.876 8  21219554.189 0  21219556.508 0
   -866179.368 7   -674944.562 6  20215443.995 0  20215448.760 0
  -3112350.112 7  -2269199.128 6  21795106.085 0  21795111.071 0
  -3237900.807 7  -2408138.411 8  23336859.342 0  23336862.579 0
 88  3  3  4 58 59.0800000  0  4  6  8 11  9
  -2825053.284 7  -2201340.348 7  21210402.205 0  21210405.284 0
   -864463.887 7   -673607.807 6  20215771.012 0  20215774.839 0
  -3191399.704 7  -2330796.196 7  21780063.685 0  21780069.179 0
  -3328249.799 7  -2478540.167 7  23319668.252 0  23319670.543 0
 88  3  3  4 59 29.0800000  0  4  6  8 11  9
  -2872904.153 8  -2238626.724 7  21201296.437 0  21201300.154 0
   -862059.581 7   -671734.319 7  20216228.533 0  20216232.293 0
  -3270020.983 7  -2392059.510 7  21765102.855 0  21765106.887 0
  -3418602.334 7  -2548944.711 7  23302472.337 0  23302476.614 0
 88  3  3  4 59 59.0800000  0  4  6  8 11  9
  -2920513.080 7  -2275724.586 7  21192237.524 0  21192239.372 0
   -858967.947 7   -669325.238 7  20216815.972 0  20216820.104 0
  -3348211.932 8  -2452987.522 7  21750223.825 0  21750228.578 0
  -3508956.944 7  -2619350.867 7  23285278.763 0  23285283.620 0
 88  3  3  5  0 29.0800000  0  4  6  8 11  9
  -2967877.681 8  -2312632.076 7  21183224.531 0  21183225.917 0
   -855189.732 7   -666381.155 7  20217535.583 0  20217539.850 0
  -3425970.733 8  -2513578.786 7  21735427.219 0  21735431.718 0
  -3599312.151 7  -2689757.486 7  23268084.788 0  23268088.930 0
 88  3  3  5  0 59.0800000  0  4  6  8 11  9
  -3014995.369 8  -2349347.158 8  21174258.320 0  21174260.473 0
   -850725.656 7   -662902.656 6  20218384.298 0  20218388.400 0
  -3503295.189 8  -2573831.610 7  21720712.332 0  21720716.883 0
  -3689665.977 7  -2760163.044 7  23250891.256 0  23250895.397 0
 88  3  3  5  1 29.0800000  0  4  6  8 11  9
  -3061863.776 8  -2385867.982 7  21165338.732 0  21165341.495 0
   -845576.428 7   -658890.237 7  20219365.770 0  20219369.354 0
  -3580182.558 7  -2633743.837 7  21706080.502 0  21706085.809 0
  -3780016.867 7  -2830566.323 7  23233697.967 0  23233701.951 0
 88  3  3  5  1 59.0800000  0  4  6  8 11  9
  -3108480.551 8  -2422192.737 7  21156467.710 0  21156470.950 0
   -839742.663 7   -654344.438 6  20220474.339 0  20220478.328 0
  -3656631.251 7  -2693314.232 7  21691532.734 0  21691537.069 0
  -3870362.967 7  -2900965.863 6  23216505.838 0  23216509.571 0
 88  3  3  5  2 29.0800000  0  4  6  8 11  9
  -3154843.296 8  -2458319.543 7  21147645.177 0  21147647.806 0
   -833225.452 7   -649266.075 7  20221715.666 0  20221718.838 0
  -3732639.224 7  -2752541.192 7  21677068.873 0  21677074.294 0
  -3960702.572 7  -2971360.344 6  23199314.323 0  23199317.983 0
 88  3  3  5  2 59.0800000  0  4  6  8 11  9
  -3200949.647 7  -2494246.573 7  21138872.120 0  21138874.821 0
   -826025.350 7   -643655.586 7  20223086.020 0  20223087.166 0
  -3808204.432 7  -2811423.144 7  21662689.667 0  21662694.306 0
  -4051034.098 7  -3041748.523 7  23182127.236 0  23182129.803 0
 88  3  3  5  3 29.0800000  0  4  6  8 11  9
  -3246797.712 8  -2529972.336 7  21130147.151 0  21130149.820 0
   -818143.781 7   -637514.097 6  20224585.298 0  20224589.225 0
  -3883325.511 7  -2869959.025 6  21648394.681 0  21648399.240 0
  -4141356.069 7  -3112129.262 7  23164938.001 0  23164941.356 0
 88  3  3  5  3 59.0800000  0  4  6  8 11  9
  -3292384.893 7  -2565494.816 7  21121471.946 0  21121475.281 0
   -809581.550 7   -630842.213 7  20226214.753 0  20226218.346 0
  -3957999.923 8  -2928146.840 7  21634184.482 0  21634190.058 0
  -4231666.610 7  -3182501.109 6  23147752.809 0  23147755.717 0
 88  3  3  5  4 29.0800000  0  4  6  8 11  9
  -3337708.247 8  -2600811.716 7  21112848.015 0  21112851.082 0
   -800339.206 7   -623640.373 7  20227973.781 0  20227977.161 0
  -4032225.054 8  -2985984.579 7  21620060.237 0  21620064.876 0
  -4321963.193 7  -3252862.071 6  23130569.638 0  23130572.099 0
 88  3  3  5  4 59.0800000  0  4  6  8 11  9
  -3382765.533 8  -2635921.268 7  21104272.816 0  21104276.537 0
   -790417.294 7   -615909.001 6  20229861.400 0  20229864.140 0
  -4105999.371 7  -3043471.033 7  21606021.929 0  21606025.985 0
  -4412244.660 7  -3323211.243 7  23113389.172 0  23113392.512 0
 88  3  3  5  5 29.0800000  0  4  6  8 11  9
  -3427555.620 7  -2670822.638 8  21095750.007 0  21095752.218 0
   -779818.373 7   -607650.097 7  20231878.459 0  20231881.776 0
  -4179322.244 8  -3100605.717 7  21592068.146 0  21592072.628 0
  -4502510.175 7  -3393547.996 6  23096213.133 0  23096215.732 0
 88  3  3  5  5 59.0800000  0  4  6  8 11  9
  -3472075.652 7  -2705513.580 7  21087277.959 0  21087280.756 0
   -768543.275 7   -598864.306 7  20234024.413 0  20234027.038 0
  -4252191.106 8  -3157386.619 7  21578201.978 0  21578206.872 0
  -4592757.622 7  -3463870.684 7  23079038.978 0  23079042.571 0
 88  3  3  5  6 29.0800000  0  4  6  8 11  9
  -3516322.644 8  -2739991.749 7  21078858.601 0  21078861.607 0
   -756592.396 7   -589551.912 7  20236297.850 0  20236302.962 0
  -4324603.060 8  -3213811.504 7  21564421.705 0  21564425.746 0
  -4682984.599 8  -3534177.396 7  23061869.031 0  23061871.815 0
 88  3  3  5  6 59.0800000  0  4  6  8 11  9
  -3560294.460 7  -2774255.501 8  21070491.673 0  21070494.412 0
   -743967.212 7   -579714.106 7  20238699.920 0  20238703.459 0
  -4396557.215 7  -3269879.627 7  21550729.583 0  21550734.231 0
  -4773189.345 7  -3604466.782 6  23044702.884 0  23044706.071 0
 88  3  3  5  7 29.0800000  0  4  6  8 11  9
  -3603989.256 8  -2808303.381 7  21062176.114 0  21062178.682 0
   -730669.619 7   -569352.331 7  20241230.996 0  20241234.762 0
  -4468052.020 8  -3325589.851 6  21537124.665 0  21537128.414 0
  -4863370.656 7  -3674737.951 6  23027541.733 0  23027545.978 0
 88  3  3  5  7 59.0800000  0  4  6  8 11  9
  -3647404.717 7  -2842133.611 7  21053913.390 0  21053916.916 0
   -716700.618 7   -558467.390 7  20243888.516 0  20243892.225 0
  -4539085.463 8  -3380940.553 6  21523607.861 0  21523611.864 0
  -4953526.933 7  -3744989.560 6  23010385.961 0  23010389.729 0
 88  3  3  5  8 29.0800000  0  4  6  8 11  9
  -3690538.658 8  -2875744.483 7  21045706.051 0  21045709.068 0
   -702061.674 8   -547060.422 6  20246675.424 0  20246679.418 0
  -4609656.238 7  -3435930.755 7  21510177.653 0  21510183.313 0
  -5043656.037 7  -3815220.028 6  22993234.420 0  22993238.728 0
 88  3  3  5  8 59.0800000  0  4  6  8 11  9
  -3733388.844 7  -2909134.235 8  21037551.400 0  21037554.898 0
   -686754.239 7   -535132.528 7  20249587.129 0  20249591.343 0
  -4679762.439 7  -3490558.915 7  21496837.417 0  21496842.723 0
  -5133756.697 7  -3885428.308 7  22976089.284 0  22976093.577 0
 88  3  3  5  9 29.0800000  0  4  6  8 11  9
  -3775952.948 8  -2942301.071 8  21029452.683 0  21029455.065 0
   -670779.778 7   -522684.890 7  20252628.005 0  20252630.056 0
  -4749401.952 8  -3544823.452 7  21483584.953 0  21483591.292 0
  -5223827.314 7  -3955613.180 7  22958951.341 0  22958954.141 0
 88  3  3  5  9 59.0800000  0  4  6  8 11  9
  -3818228.221 7  -2975242.848 7  21021406.829 0  21021409.922 0
   -654138.835 8   -509717.923 7  20255794.349 0  20255797.152 0
  -4818573.176 8  -3598723.092 7  21470422.850 0  21470427.116 0
  -5313865.035 8  -4025772.413 7  22941817.125 0  22941821.705 0
 88  3  3  5 10 29.0800000  0  4  6  8 11  9
  -3860212.621 7  -3007957.965 8  21013417.906 0  21013421.414 0
   -636833.357 7   -496233.128 7  20259087.806 0  20259091.665 0
  -4887274.879 7  -3652256.860 7  21457350.677 0  21457353.266 0
  -5403868.737 7  -4095905.128 7  22924688.970 0  22924694.014 0
 88  3  3  5 10 59.0800000  0  4  6  8 11  9
  -3901903.946 7  -3040444.712 7  21005484.260 0  21005487.223 0
   -618865.300 7   -482232.034 6  20262506.612 0  20262510.804 0
  -4955505.509 8  -3705423.557 6  21444365.704 0  21444370.495 0
  -5493836.526 7  -4166009.901 7  22907569.253 0  22907573.089 0
 88  3  3  5 11 29.0800000  0  4  6  8 11  9
  -3943299.606 7  -3072701.079 7  20997607.121 0  20997609.536 0
   -600235.334 7   -467715.172 7  20266051.740 0  20266054.674 0
  -5023262.905 8  -3758221.521 7  21431471.880 0  21431476.849 0
  -5583766.247 7  -4236084.986 7  22890455.585 0  22890459.257 0
 88  3  3  5 11 59.0800000  0  4  6  8 11  9
  -3984397.210 7  -3104725.180 7  20989786.789 0  20989789.094 0
   -580945.042 7   -452683.758 7  20269722.801 0  20269725.424 0
  -5090545.087 7  -3810649.165 6  21418666.992 0  21418671.749 0
  -5673656.238 7  -4306129.125 7  22873351.144 0  22873353.159 0
 88  3  3  5 12 29.0800000  0  4  6  8 11  9
  -4025194.408 7  -3136515.196 7  20982022.669 0  20982025.078 0
   -560996.203 7   -437139.204 7  20273518.572 0  20273521.818 0
  -5157350.818 7  -3862705.546 6  21405955.814 0  21405961.283 0
  -5763504.356 7  -4376140.645 7  22856252.850 0  22856256.147 0
 88  3  3  5 12 59.0800000  0  4  6  8 11  9
  -4065689.031 7  -3168069.440 7  20974317.650 0  20974319.960 0
   -540390.826 7   -421083.068 7  20277439.979 0  20277442.798 0
  -5223678.743 7  -3914389.622 7  21393333.402 0  21393338.545 0
  -5853309.303 7  -4446118.499 7  22839163.238 0  22839167.191 0
 88  3  3  5 13 29.0800000  0  4  6  8 11  9
  -4105878.740 7  -3199386.084 7  20966669.724 0  20966673.222 0
   -519129.968 7   -404516.159 6  20281485.344 0  20281488.736 0
  -5289527.146 8  -3965700.048 7  21380801.746 0  21380808.004 0
  -5943068.547 7  -4516060.750 7  22822082.516 0  22822086.729 0
 88  3  3  5 13 59.0800000  0  4  6  8 11  9
  -4145761.190 8  -3230463.321 7  20959080.324 0  20959083.016 0
   -497215.471 7   -387439.921 7  20285656.229 0  20285657.991 0
  -5354894.701 8  -4016635.773 6  21368364.410 0  21368368.418 0
  -6032780.569 7  -4585966.215 7  22805011.918 0  22805012.958 0
 88  3  3  5 14 29.0800000  0  4  6  8 11  9
  -4185333.999 8  -3261299.285 7  20951550.240 0  20951552.182 0
   -474648.898 7   -369855.587 7  20289949.854 0  20289953.565 0
  -5419779.812 7  -4067195.588 7  21356016.872 0  21356021.492 0
  -6122443.273 7  -4655833.235 7  22787948.327 0  22787952.847 0
 88  3  3  5 14 59.0800000  0  4  6  8 11  9
  -4224594.951 7  -3291892.237 8  20944078.414 0  20944081.734 0
   -451431.792 7   -351764.321 7  20294368.943 0  20294370.933 0
  -5484180.782 8  -4117378.159 7  21343761.795 0  21343766.294 0
  -6212054.788 7  -4725660.384 7  22770896.721 0  22770899.558 0
 88  3  3  5 15 29.0800000  0  4  6  8 11  9
  -4263541.704 8  -3322240.348 7  20936667.043 0  20936670.307 0
   -427566.329 7   -333167.840 6  20298910.141 0  20298913.499 0
  -5548096.196 8  -4167182.358 6  21331598.308 0  21331603.051 0
  -6301613.063 7  -4795446.044 6  22753853.832 0  22753859.227 0
 88  3  3  5 15 59.0800000  0  4  6  8 11  9
  -4302171.926 7  -3352341.815 7  20929315.833 0  20929318.806 0
   -403054.153 7   -314067.447 7  20303573.086 0  20303576.092 0
  -5611524.862 7  -4216607.267 7  21319528.582 0  21319533.640 0
  -6391116.079 7  -4865188.667 6  22736822.247 0  22736824.976 0
 88  3  3  5 16 29.0800000  0  4  6  8 11  9
  -4340482.892 7  -3382194.518 6  20922025.391 0  20922028.396 0
   -377896.517 7   -294464.076 7  20308362.427 0  20308365.451 0
  -5674464.648 7  -4265651.232 7  21307551.395 0  21307554.922 0
  -6480561.962 7  -4934886.747 7  22719801.497 0  22719805.476 0
 88  3  3  5 16 59.0800000  0  4  6  8 11  9
  -4378472.209 7  -3411796.582 7  20914796.791 0  20914799.392 0
   -352095.346 7   -274359.270 7  20313270.927 0  20313274.098 0
  -5736914.441 7  -4314313.390 7  21295667.665 0  21295672.529 0
  -6569948.383 7  -5004538.491 7  22702791.497 0  22702795.730 0
 88  3  3  5 17 29.0800000  0  4  6  8 11  9
  -4416137.392 7  -3441146.077 7  20907629.120 0  20907632.346 0
   -325652.272 7   -253754.265 7  20318303.736 0  20318307.341 0
  -5798872.339 7  -4362592.277 7  21283878.529 0  21283882.039 0
  -6659273.236 7  -5074142.286 7  22685794.323 0  22685796.619 0
 88  3  3  5 17 59.0800000  0  4  6  8 11  9
  -4453476.436 7  -3470241.435 7  20900523.566 0  20900527.021 0
   -298569.617 7   -232650.894 7  20323457.985 0  20323459.973 0
  -5860337.278 8  -4410487.005 7  21272181.404 0  21272186.217 0
  -6748534.785 7  -5143696.717 7  22668808.293 0  22668810.446 0
 88  3  3  5 18 29.0800000  0  4  6  8 11  9
  -4490486.907 7  -3499080.757 7  20893480.538 0  20893484.303 0
   -270848.959 7   -211050.386 7  20328732.191 0  20328735.332 0
  -5921307.898 7  -4457996.560 7  21260578.361 0  21260583.916 0
  -6837730.611 7  -5213199.953 7  22651834.071 0  22651837.970 0
 88  3  3  5 18 59.0800000  0  4  6  8 11  9
  -4527166.383 7  -3527662.166 7  20886499.727 0  20886503.744 0
   -242492.193 7   -188954.188 6  20334128.814 0  20334130.732 0
  -5981782.977 7  -4505119.971 6  21249069.545 0  21249075.542 0
  -6926858.621 7  -5282650.314 6  22634874.347 0  22634875.490 0
 88  3  3  5 19 29.0800000  0  4  6  8 11  9
  -4563513.017 7  -3555984.214 7  20879584.561 0  20879586.613 0
   -213501.653 7   -166364.149 7  20339645.176 0  20339648.407 0
  -6041761.445 7  -4551856.411 7  21237656.970 0  21237661.781 0
  -7015917.597 7  -5352046.931 7  22617927.605 0  22617929.276 0
 88  3  3  5 19 59.0800000  0  4  6  8 11  9
  -4599524.159 7  -3584044.851 7  20872732.170 0  20872734.132 0
   -183878.850 7   -143281.442 6  20345281.673 0  20345285.321 0
  -6101241.668 7  -4598204.614 6  21226337.936 0  21226344.285 0
  -7104905.160 7  -5421387.872 7  22600993.271 0  22600994.485 0
 88  3  3  5 20 29.0800000  0  4  6  8 11  9
  -4635197.267 7  -3611842.091 7  20865943.464 0  20865946.584 0
   -153625.563 7   -119707.447 7  20351038.398 0  20351041.320 0
  -6160222.193 7  -4644163.438 7  21215115.009 0  21215119.066 0
  -7193818.945 7  -5490671.351 7  22584073.252 0  22584076.596 0
 88  3  3  5 20 59.0800000  0  4  6  8 11  9
  -4670530.073 7  -3639374.133 7  20859219.574 0  20859221.951 0
   -122743.819 7    -95643.751 6  20356916.434 0  20356918.939 0
  -6218701.893 7  -4689732.029 6  21203986.074 0  21203990.626 0
  -7282656.785 7  -5559895.635 7  22567167.577 0  22567171.401 0
 88  3  3  5 21 29.0800000  0  4  6  8 11  9
  -4705520.220 8  -3666639.193 7  20852561.911 0  20852564.465 0
    -91235.920 8    -71092.124 6  20362911.435 0  20362915.085 0
  -6276679.373 6  -4734909.263 7  21192952.339 0  21192957.862 0
  -7371416.442 7  -5629058.986 7  22550277.716 0  22550282.024 0
 88  3  3  5 21 59.0800000  0  4  6  8 11  9
  -4740165.095 7  -3693635.201 7  20845969.537 0  20845971.371 0
    -59103.348 8    -46053.756 7  20369025.214 0  20369029.330 0
  -6334153.036 7  -4779693.902 7  21182017.487 0  21182021.972 0
  -7460095.907 7  -5698159.869 7  22533401.833 0  22533405.285 0
 88  3  3  5 22 29.0800000  0  4  6  8 11  9
  -4774463.174 8  -3720360.979 7  20839442.270 0  20839444.375 0
    -26349.137 7    -20530.987 7  20375258.772 0  20375261.553 0
  -6391122.395 7  -4824085.593 6  21171176.091 0  21171179.322 0
  -7548693.071 7  -5767196.604 7  22516542.800 0  22516546.959 0
 88  3  3  5 22 59.0800000  0  4  6  8 11  9
  -4808411.754 8  -3746814.420 7  20832981.340 0  20832984.127 0
      7024.913 7      5474.773 6  20381610.346 0  20381612.814 0
  -6447586.151 7  -4868083.311 7  21160430.637 0  21160435.830 0
  -7637206.202 7  -5836167.860 7  22499699.953 0  22499703.348 0
 88  3  3  5 23 29.0800000  0  4  6  8 11  9
  -4842008.649 7  -3772993.813 6  20826588.631 0  20826590.751 0
     41016.905 7     31962.040 7  20388077.726 0  20388081.192 0
  -6503543.316 8  -4911686.265 6  21149782.852 0  21149787.461 0
  -7725632.720 7  -5905071.621 7  22482871.679 0  22482876.809 0
 88  3  3  5 23 59.0800000  0  4  6  8 11  9
  -4875251.467 7  -3798897.309 7  20820262.379 0  20820265.696 0
     75624.423 7     58928.943 7  20394664.355 0  20394667.385 0
  -6558992.500 7  -4954893.412 6  21139230.507 0  21139235.860 0
  -7813970.903 7  -5973906.539 7  22466060.846 0  22466066.292 0
 88  3  3  5 24 29.0800000  0  4  6  8 11  9
  -4908137.677 7  -3824522.926 7  20814003.990 0  20814007.121 0
    110845.344 7     86373.815 7  20401365.926 0  20401368.613 0
  -6613932.684 8  -4997703.922 7  21128777.061 0  21128781.099 0
  -7902218.120 7  -6042670.592 7  22449269.472 0  22449272.781 0
 88  3  3  5 24 59.0800000  0  4  6  8 11  9
  -4940664.698 7  -3849868.670 7  20807814.745 0  20807817.642 0
    146677.915 7    114295.301 7  20408183.962 0  20408188.160 0
  -6668362.371 7  -5040116.647 7  21118419.248 0  21118422.639 0
  -7990371.844 7  -6111361.781 7  22432494.680 0  22432498.135 0
 88  3  3  5 25 29.0800000  0  4  6  8 11  9
  -4972830.137 8  -3874932.656 7  20801693.764 0  20801696.293 0
    183120.108 8    142691.815 7  20415119.077 0  20415123.317 0
  -6722280.261 7  -5082130.571 6  21108159.044 0  21108162.631 0
  -8078429.841 7  -6179978.391 6  22415737.975 0  22415739.762 0
 88  3  3  5 25 59.0800000  0  4  6  8 11  9
  -5004632.069 7  -3899713.381 7  20795641.476 0  20795645.211 0
    220169.055 7    171561.123 7  20422169.216 0  20422172.390 0
  -6775685.720 7  -5123745.193 7  21097995.969 0  21098000.972 0
  -8166390.462 8  -6248519.122 7  22398999.540 0  22399001.641 0
 88  3  3  5 26 29.0800000  0  4  6  8 11  9
  -5036068.048 7  -3924208.949 7  20789659.946 0  20789663.291 0
    257822.827 7    200901.735 7  20429334.832 0  20429339.186 0
  -6828577.485 7  -5164959.543 6  21087932.243 0  21087934.082 0
  -8254251.090 7  -6316981.933 7  22382280.434 0  22382282.323 0
 88  3  3  5 26 59.0800000  0  4  6  8 11  9
  -5067136.052 7  -3948417.803 7  20783747.802 0  20783751.238 0
    296078.637 7    230711.454 7  20436614.589 0  20436617.914 0
  -6880954.966 7  -5205773.159 7  21077963.859 0  21077967.496 0
  -8342009.580 7  -6385365.158 6  22365579.214 0  22365582.423 0
 88  3  3  5 27 29.0800000  0  4  6  8 11  9
  -5097833.239 7  -3972337.688 7  20777906.435 0  20777909.615 0
    334934.888 7    260989.050 7  20444008.313 0  20444012.142 0
  -6932816.373 8  -5246184.643 6  21068095.157 0  21068099.217 0
  -8429663.609 7  -6453666.994 7  22348899.928 0  22348902.827 0
 88  3  3  5 27 59.0800000  0  4  6  8 11  9
  -5128157.354 8  -3995966.882 7  20772136.159 0  20772138.201 0
    374389.252 7    291732.705 7  20451516.576 0  20451519.550 0
  -6984161.303 7  -5286193.638 6  21058324.148 0  21058328.149 0
  -8517210.608 7  -6521885.407 7  22332240.473 0  22332243.737 0
 88  3  3  5 28 29.0800000  0  4  6  8 11  9
  -5158106.206 7  -4019303.654 7  20766436.263 0  20766438.908 0
    414439.317 7    322940.553 7  20459136.961 0  20459141.132 0
  -7034988.722 7  -5325799.409 6  21048651.443 0  21048656.726 0
  -8604648.532 7  -6590018.860 7  22315600.990 0  22315603.251 0
 88  3  3  5 28 59.0800000  0  4  6  8 11  9
  -5187677.419 7  -4042346.162 7  20760809.635 0  20760812.427 0
    455082.809 7    354610.800 7  20466871.289 0  20466874.800 0
  -7085297.306 7  -5365000.885 6  21039078.232 0  21039082.500 0
  -8691974.887 7  -6658065.358 6  22298982.809 0  22298986.155 0
 88  3  3  5 29 29.0800000  0  4  6  8 11  9
  -5216868.864 7  -4065092.748 7  20755255.421 0  20755257.102 0
    496317.412 7    386741.666 7  20474718.238 0  20474721.998 0
  -7135086.324 7  -5403797.509 6  21029603.017 0  21029608.384 0
  -8779187.680 7  -6726023.382 7  22282386.590 0  22282391.596 0
 88  3  3  5 29 59.0800000  0  4  6  8 11  9
  -5245678.648 8  -4087541.939 7  20749772.215 0  20749774.830 0
    538139.846 7    419330.568 7  20482677.004 0  20482681.173 0
  -7184355.504 7  -5442189.052 7  21020228.932 0  21020232.442 0
  -8866284.899 7  -6793891.338 7  22265812.916 0  22265817.923 0
 88  3  3  5 30 29.0800000  0  4  6  8 11  9
  -5274104.253 7  -4109691.764 7  20744361.876 0  20744366.793 0
    580548.224 7    452376.048 7  20490746.595 0  20490750.895 0
  -7233103.662 7  -5480174.612 6  21010951.521 0  21010956.330 0
  -8953263.615 7  -6861666.945 7  22249260.713 0  22249264.935 0
 88  3  3  5 30 59.0800000  0  4  6  8 11  9
  -5302142.911 7  -4131540.082 7  20739027.965 0  20739030.934 0
    623540.246 7    485876.334 7  20498927.210 0  20498931.308 0
  -7281329.611 7  -5517753.271 6  21001774.853 0  21001779.812 0
  -9040121.484 8  -6929348.398 7  22232733.899 0  22232736.759 0
 88  3  3  5 31 29.0800000  0  4  6  8 11  9
  -5329793.033 7  -4153085.640 7  20733765.665 0  20733769.100 0
    667113.376 7    519829.416 7  20507219.978 0  20507222.889 0
  -7329032.964 6  -5554924.683 6  20992697.080 0  20992702.486 0
  -9126856.870 7  -6996934.401 7  22216229.471 0  22216231.601 0
 88  3  3  5 31 59.0800000  0  4  6  8 11  9
  -5357051.818 7  -4174326.243 7  20728578.582 0  20728581.646 0
    711265.007 7    554233.276 7  20515621.399 0  20515625.174 0
  -7376212.417 7  -5591687.883 7  20983719.919 0  20983722.970 0
  -9213466.388 7  -7064422.330 7  22199748.143 0  22199750.384 0
 88  3  3  5 32 29.0800000  0  4  6  8 11  9
  -5383917.191 7  -4195260.295 7  20723466.130 0  20723469.485 0
    755992.412 7    589085.814 7  20524132.278 0  20524136.719 0
  -7422867.452 7  -5628042.427 7  20974840.933 0  20974844.855 0
  -9299948.345 7  -7131810.865 6  22183289.705 0  22183293.855 0
 88  3  3  5 32 59.0800000  0  4  6  8 11  9
  -5410386.642 7  -4215885.848 7  20718428.446 0  20718433.059 0
    801293.359 7    624385.259 7  20532753.559 0  20532756.530 0
  -7468996.751 7  -5663987.337 7  20966062.617 0  20966066.821 0
  -9386299.752 7  -7199097.665 7  22166858.259 0  22166860.982 0
 88  3  3  5 33 29.0800000  0  4  6  8 11  9
  -5436458.157 7  -4236201.328 7  20713467.052 0  20713472.013 0
    847165.496 7    660129.758 7  20541483.598 0  20541485.697 0
  -7514600.015 7  -5699522.304 7  20957384.872 0  20957389.152 0
  -9472518.608 8  -7266281.183 7  22150450.887 0  22150454.405 0
 88  3  3  5 33 59.0800000  0  4  6  8 11  9
  -5462129.637 7  -4256205.094 7  20708583.042 0  20708587.046 0
    893606.126 7    696317.269 6  20550320.122 0  20550323.492 0
  -7559676.827 7  -5734647.087 7  20948808.324 0  20948812.211 0
  -9558602.559 7  -7333359.560 8  22134070.119 0  22134073.537 0
 88  3  3  5 34 29.0800000  0  4  6  8 11  9
  -5487398.571 7  -4275895.172 7  20703772.887 0  20703778.469 0
    940612.522 8    732945.636 7  20559265.567 0  20559267.809 0
  -7604226.238 7  -5769360.892 6  20940328.644 0  20940333.518 0
  -9644549.054 7  -7400330.854 7  22117714.266 0  22117717.306 0
 88  3  3  5 34 59.0800000  0  4  6  8 11  9
  -5512263.031 7  -4295270.064 7  20699043.002 0  20699046.208 0
    988182.188 8    770012.906 6  20568317.289 0  20568320.464 0
  -7648247.752 7  -5803663.342 6  20931951.637 0  20931957.140 0
  -9730355.624 8  -7467193.108 7  22101386.424 0  22101388.354 0
 88  3  3  5 35 29.0800000  0  4  6  8 11  9
  -5536720.695 7  -4314327.983 7  20694388.173 0  20694391.446 0
   1036312.206 7    807516.812 7  20577476.771 0  20577481.000 0
  -7691740.934 7  -5837554.112 7  20923676.095 0  20923680.580 0
  -9816019.862 7  -7533944.451 7  22085083.847 0  22085088.301 0
 88  3  3  5 35 59.0800000  0  4  6  8 11  9
  -5560769.396 6  -4333067.235 7  20689812.213 0  20689815.977 0
   1084999.654 8    845455.090 6  20586740.494 0  20586743.430 0
  -7734705.050 7  -5871032.624 7  20915499.588 0  20915505.216 0
  -9901539.612 8  -7600583.202 7  22068810.581 0  22068813.544 0
 88  3  3  5 36 29.0800000  0  4  6  8 11  9
  -5584406.738 7  -4351485.944 7  20685314.183 0  20685318.988 0
   1134242.824 7    883826.403 7  20596112.766 0  20596114.480 0
  -7777139.095 7  -5904098.092 6  20907424.047 0  20907430.183 0
  -9986911.684 7  -7667106.890 7  22052564.812 0  22052568.587 0
 88  3  3  5 36 59.0800000  0  4  6  8 11  9
  -5607630.665 7  -4369582.515 7  20680894.461 0  20680898.096 0
   1184038.613 7    922628.321 7  20605588.474 0  20605589.918 0
  -7819042.665 7  -5936750.206 6  20899450.491 0  20899455.560 0
 -10072134.404 7  -7733514.184 6  22036347.598 0  22036351.018 0
 88  3  3  5 37 29.0800000  0  4  6  8 11  9
  -5630439.057 7  -4387355.287 7  20676554.524 0  20676558.651 0
   1234384.315 8    961858.735 7  20615167.738 0  20615170.674 0
  -7860415.325 7  -5968988.613 6  20891577.664 0  20891583.062 0
 -10157204.777 7  -7799802.786 7  22020159.179 0  22020162.125 0
 88  3  3  5 37 59.0800000  0  4  6  8 11  9
  -5652829.397 7  -4404802.311 7  20672293.704 0  20672298.213 0
   1285277.447 7   1001515.723 6  20624853.153 0  20624854.810 0
  -7901256.409 7  -6000812.831 6  20883804.953 0  20883810.479 0
 -10242120.330 8  -7865970.719 7  22004000.930 0  22004003.610 0
 88  3  3  5 38 29.0800000  0  4  6  8 11  9
  -5674800.007 7  -4421922.278 7  20668113.387 0  20668116.456 0
   1336714.911 7   1041596.886 7  20634641.156 0  20634643.589 0
  -7941565.392 7  -6032222.394 7  20876134.564 0  20876140.966 0
 -10326878.794 7  -7932016.278 7  21987871.271 0  21987874.122 0
 88  3  3  5 38 59.0800000  0  4  6  8 11  9
  -5696348.162 7  -4438713.044 8  20664013.045 0  20664015.956 0
   1388694.509 7   1082100.463 7  20644532.681 0  20644536.089 0
  -7981341.470 7  -6063216.722 6  20868567.899 0  20868570.978 0
 -10411477.270 7  -7997937.163 7  21971773.178 0  21971775.337 0
 88  3  3  5 39 29.0800000  0  4  6  8 11  9
  -5717471.810 8  -4455173.036 8  20659992.852 0  20659996.855 0
   1441213.370 7   1123024.264 6  20654526.711 0  20654529.303 0
  -8020584.654 6  -6093795.820 6  20861100.027 0  20861102.742 0
 -10495913.602 7  -8063731.711 6  21955705.037 0  21955707.390 0
 88  3  3  5 39 59.0800000  0  4  6  8 11  9
  -5738168.957 7  -4471300.688 7  20656054.443 0  20656058.374 0
   1494268.611 7   1164366.001 7  20664622.644 0  20664625.506 0
  -8059294.378 7  -6123959.216 7  20853732.591 0  20853737.942 0
 -10580184.699 8  -8129397.494 7  21939668.354 0  21939671.760 0
 88  3  3  5 40 29.0800000  0  4  6  8 11  9
  -5758437.555 7  -4487094.421 7  20652197.021 0  20652200.481 0
   1547857.421 8   1206123.520 7  20674820.733 0  20674823.152 0
  -8097469.960 7  -6153706.398 7  20846468.657 0  20846472.470 0
 -10664288.538 7  -8194932.941 7  21923663.992 0  21923667.492 0
 88  3  3  5 40 59.0800000  0  4  6  8 11  9
  -5778275.426 7  -4502552.500 7  20648421.813 0  20648426.192 0
   1601976.738 7   1248294.421 6  20685119.608 0  20685122.017 0
  -8135111.533 7  -6183037.492 6  20839305.006 0  20839308.653 0
 -10748222.667 8  -8260336.155 7  21907692.472 0  21907695.532 0
 88  3  3  5 41 29.0800000  0  4  6  8 11  9
  -5797680.614 7  -4517673.435 7  20644731.213 0  20644733.371 0
   1656623.740 7   1290876.493 7  20695517.370 0  20695521.019 0
  -8172218.574 7  -6211952.057 6  20832243.656 0  20832248.311 0
 -10831984.303 7  -8325604.966 7  21891752.793 0  21891755.613 0
 88  3  3  5 41 59.0800000  0  4  6  8 11  9
  -5816650.916 7  -4532455.494 7  20641120.832 0  20641123.027 0
   1711795.840 7   1333867.742 7  20706016.295 0  20706019.577 0
  -8208790.647 7  -6240449.761 7  20825284.922 0  20825290.833 0
 -10915571.019 8  -8390737.470 7  21875846.375 0  21875850.634 0
 88  3  3  5 42 29.0800000  0  4  6  8 11  9
  -5835184.112 7  -4546896.947 7  20637592.919 0  20637596.078 0
   1767490.188 7   1377265.937 6  20716613.613 0  20716619.201 0
  -8244827.310 7  -6268530.234 7  20818427.118 0  20818430.634 0
 -10998979.848 8  -8455731.372 7  21859974.676 0  21859976.998 0
 88  3  3  5 42 59.0800000  0  4  6  8 11  9
  -5853278.187 7  -4560996.224 8  20634150.216 0  20634154.001 0
   1823704.026 7   1421068.926 7  20727311.322 0  20727314.583 0
  -8280328.540 7  -6296193.538 7  20811672.271 0  20811675.769 0
 -11082208.479 7  -8520584.829 7  21844137.188 0  21844139.060 0
 88  3  3  5 43 29.0800000  0  4  6  8 11  9
  -5870931.167 7  -4574751.796 7  20630791.672 0  20630794.211 0
   1880434.036 7   1465274.121 7  20738107.195 0  20738110.602 0
  -8315293.983 7  -6323439.317 7  20805017.791 0  20805022.846 0
 -11165254.486 7  -8585296.001 7  21828333.366 0  21828336.776 0
 88  3  3  5 43 59.0800000  0  4  6  8 11  9
  -5888140.778 8  -4588161.888 8  20627516.403 0  20627518.589 0
   1937677.888 7   1509879.715 7  20748999.598 0  20749003.534 0
  -8349723.132 7  -6350267.204 7  20798466.304 0  20798470.436 0
 -11248114.712 8  -8649862.408 7  21812565.993 0  21812568.123 0
 88  3  3  5 44 29.0800000  0  4  6  8 11  9
  -5904904.989 7  -4601224.910 7  20624325.194 0  20624329.250 0
   1995432.523 7   1554883.329 7  20759990.592 0  20759994.006 0
  -8383615.849 7  -6376677.104 6  20792016.971 0  20792020.213 0
 -11330787.315 8  -8714282.613 7  21796834.410 0  21796836.683 0
 88  3  3  5 44 59.0800000  0  4  6  8 11  9
  -5921221.849 7  -4613939.361 7  20621221.086 0  20621224.699 0
   2053695.073 7   1600282.711 7  20771077.873 0  20771080.788 0
  -8416972.077 7  -6402668.958 6  20785668.937 0  20785673.476 0
 -11413268.579 8  -8778553.707 7  21781138.337 0  21781141.242 0
 88  3  3  5 45 29.0800000  0  4  6  8 11  9
  -5937089.154 7  -4626303.504 7  20618201.732 0  20618205.363 0
   2112462.657 7   1646075.626 7  20782259.927 0  20782265.196 0
  -8449791.422 7  -6428242.449 6  20779423.602 0  20779428.079 0
 -11495556.687 8  -8842674.294 8  21765478.368 0  21765482.367 0
 88  3  3  5 45 59.0800000  0  4  6  8 11  9
  -5952505.008 7  -4638315.867 8  20615268.365 0  20615271.090 0
   2171732.492 7   1692259.913 7  20793538.634 0  20793542.717 0
  -8482074.022 7  -6453397.704 7  20773280.795 0  20773284.538 0
 -11577648.652 7  -8906642.050 7  21749857.584 0  21749860.360 0
 88  3  3  5 46 29.0800000  0  4  6  8 11  9
  -5967467.199 8  -4649974.717 7  20612420.926 0  20612424.257 0
   2231501.710 7   1738833.331 7  20804913.580 0  20804915.876 0
  -8513819.365 7  -6478134.310 6  20767239.365 0  20767244.131 0
 -11659541.585 7  -8970454.706 7  21734275.074 0  21734276.990 0
 88  3  3  5 46 59.0800000  0  4  6  8 11  9
  -5981973.756 7  -4661278.528 7  20609660.281 0  20609663.469 0
   2291767.190 7   1785793.441 7  20816381.666 0  20816384.496 0
  -8545027.587 7  -6502452.394 6  20761301.471 0  20761305.303 0
 -11741233.571 8  -9034110.791 7  21718728.732 0  21718731.392 0
 88  3  3  5 47 29.0800000  0  4  6  8 11  9
  -5996022.428 7  -4672225.549 7  20606987.199 0  20606990.740 0
   2352526.345 7   1833138.239 7  20827943.023 0  20827947.133 0
  -8575698.194 7  -6526351.558 6  20755463.986 0  20755468.891 0
 -11822720.567 8  -9097607.129 7  21703221.700 0  21703224.259 0
 88  3  3  5 47 59.0800000  0  4  6  8 11  9
  -6009611.663 7  -4682814.568 7  20604401.990 0  20604404.056 0
   2413775.193 7   1880864.634 7  20839598.573 0  20839602.840 0
  -8605831.132 7  -6549831.761 7  20749729.556 0  20749734.383 0
 -11904001.041 7  -9160942.547 7  21687755.158 0  21687758.155 0
 88  3  3  5 48 29.0800000  0  4  6  8 11  9
  -6022739.385 8  -4693043.969 7  20601903.013 0  20601905.996 0
   2475511.419 8   1928970.781 7  20851347.315 0  20851349.777 0
  -8635426.651 7  -6572893.172 6  20744098.782 0  20744103.989 0
 -11985071.812 7  -9224114.562 7  21672327.926 0  21672329.211 0
 88  3  3  5 48 59.0800000  0  4  6  8 11  9
  -6035403.991 7  -4702912.492 7  20599493.030 0  20599495.316 0
   2537731.413 7   1977453.891 7  20863186.848 0  20863189.812 0
  -8664484.970 7  -6595536.010 7  20738569.993 0  20738571.948 0
 -12065930.931 7  -9287121.659 7  21656940.313 0  21656942.471 0
 88  3  3  5 49 29.0800000  0  4  6  8 11  9
  -6047603.276 7  -4712418.447 8  20597170.308 0  20597175.556 0
   2600432.766 7   2026312.101 7  20875119.010 0  20875121.517 0
  -8693005.669 7  -6617759.925 7  20733140.861 0  20733144.861 0
 -12146575.031 7  -9349961.200 7  21641594.173 0  21641598.330 0
 88  3  3  5 49 59.0800000  0  4  6  8 11  9
  -6059335.343 7  -4721560.315 7  20594938.656 0  20594942.511 0
   2663612.534 7   2075543.081 7  20887141.104 0  20887144.666 0
  -8720989.072 7  -6639565.151 6  20727816.695 0  20727820.118 0
 -12227001.590 8  -9412631.240 7  21626289.674 0  21626293.015 0
 88  3  3  5 50 29.0800000  0  4  6  8 11  9
  -6070598.485 7  -4730336.785 7  20592796.621 0  20592798.802 0
   2727266.922 8   2125143.910 6  20899254.743 0  20899257.278 0
  -8748435.253 8  -6660951.787 7  20722593.513 0  20722598.831 0
 -12307208.229 7  -9475129.921 7  21611027.147 0  21611029.863 0
 88  3  3  5 50 59.0800000  0  4  6  8 11  9
  -6081390.848 8  -4738746.431 7  20590742.297 0  20590745.547 0
   2791393.243 7   2175112.484 7  20911456.686 0  20911460.628 0
  -8775344.259 7  -6681919.822 6  20717473.049 0  20717477.049 0
 -12387192.098 7  -9537455.001 7  21595806.339 0  21595808.970 0
 88  3  3  5 51 29.0800000  0  4  6  8 11  9
  -6091710.632 7  -4746787.813 8  20588778.254 0  20588780.951 0
   2855988.004 7   2225446.070 7  20923749.052 0  20923751.463 0
  -8801716.695 7  -6702469.751 7  20712453.811 0  20712459.265 0
 -12466950.456 8  -9599604.367 6  21580628.063 0  21580632.374 0
 88  3  3  5 51 59.0800000  0  4  6  8 11  9
  -6101555.788 7  -4754459.391 7  20586905.457 0  20586908.154 0
   2921049.133 8   2276143.044 6  20936129.843 0  20936132.445 0
  -8827552.189 7  -6722601.296 6  20707537.708 0  20707542.535 0
 -12546480.747 7  -9661576.024 7  21565494.553 0  21565497.178 0
 88  3  3  5 52 29.0800000  0  4  6  8 11  9
  -6110924.336 8  -4761759.564 7  20585122.062 0  20585124.912 0
   2986573.092 7   2327200.682 7  20948598.397 0  20948601.419 0
  -8852850.823 7  -6742314.501 7  20702723.995 0  20702729.133 0
 -12625779.598 7  -9723367.331 7  21550404.121 0  21550407.441 0
 88  3  3  5 52 59.0800000  0  4  6  8 11  9
  -6119814.529 7  -4768686.989 7  20583429.261 0  20583433.707 0
   3052556.674 8   2378616.465 7  20961154.779 0  20961157.427 0
  -8877612.719 7  -6761609.462 7  20698011.085 0  20698014.396 0
 -12704844.821 7  -9784976.577 7  21535358.788 0  21535362.450 0
 88  3  3  5 53 29.0800000  0  4  6  8 11  9
  -6128224.311 8  -4775240.059 7  20581829.843 0  20581831.535 0
   3118997.247 8   2430388.331 7  20973798.227 0  20973801.060 0
  -8901837.989 7  -6780486.295 7  20693402.072 0  20693405.489 0
 -12783673.067 7  -9846401.190 7  21520359.044 0  21520361.768 0
 88  3  3  5 53 59.0800000  0  4  6  8 11  9
  -6136152.607 7  -4781417.964 7  20580320.571 0  20580323.821 0
   3185891.073 7   2482513.395 7  20986527.831 0  20986530.553 0
  -8925527.314 7  -6798945.496 6  20688893.075 0  20688898.615 0
 -12862262.360 7  -9907639.604 7  21505404.053 0  21505406.205 0
 88  3  3  5 54 29.0800000  0  4  6  8 11  9
  -6143597.167 7  -4787218.923 7  20578904.417 0  20578908.327 0
   3253235.754 8   2534989.773 7  20999342.387 0  20999345.352 0
  -8948680.631 7  -6816987.011 7  20684487.155 0  20684491.579 0
 -12940609.634 7  -9968689.399 7  21490494.475 0  21490497.894 0
 88  3  3  5 54 59.0800000  0  4  6  8 11  9
  -6150556.192 7  -4792641.553 7  20577581.015 0  20577583.532 0
   3321027.504 8   2587814.504 7  21012242.398 0  21012246.493 0
  -8971298.272 7  -6834611.149 6  20680183.672 0  20680188.525 0
 -13018711.900 7 -10029548.310 7  21475631.254 0  21475634.776 0
 88  3  3  5 55 29.0800000  0  4  6  8 11  9
  -6157027.846 7  -4797684.418 7  20576348.901 0  20576351.776 0
   3389263.937 8   2640985.740 7  21025228.107 0  21025232.463 0
  -8993380.499 7  -6851818.054 6  20675981.504 0  20675987.336 0
 -13096566.557 7 -10090214.276 8  21460816.610 0  21460819.778 0
 88  3  3  5 55 59.0800000  0  4  6  8 11  9
  -6163010.299 7  -4802346.082 7  20575210.695 0  20575213.773 0
   3457941.709 8   2694500.884 6  21038296.496 0  21038300.103 0
  -9014927.321 7  -6868607.765 6  20671881.400 0  20671886.078 0
 -13174170.680 7 -10150685.015 7  21446048.885 0  21446051.932 0
 88  3  3  5 56 29.0800000  0  4  6  8 11  9
  -6168501.484 7  -4806624.922 7  20574165.416 0  20574167.724 0
   3527057.794 8   2748357.571 7  21051449.528 0  21051452.402 0
  -9035939.064 6  -6884980.545 7  20667884.512 0  20667887.543 0
 -13251520.938 7 -10210957.941 6  21431329.601 0  21431333.155 0
 88  3  3  5 56 59.0800000  0  4  6  8 11  9
  -6173499.996 7  -4810519.879 7  20573214.812 0  20573217.771 0
   3596609.454 7   2802553.646 8  21064683.854 0  21064687.781 0
  -9056416.169 7  -6900936.720 7  20663987.626 0  20663990.960 0
 -13328614.751 7 -10271031.041 7  21416660.227 0  21416662.514 0
 88  3  3  5 57 29.0800000  0  4  6  8 11  9
  -6178004.096 7  -4814029.572 8  20572358.106 0  20572359.487 0
   3666592.861 7   2857086.169 7  21078001.995 0  21078005.146 0
  -9076359.193 7  -6916476.712 7  20660191.295 0  20660195.066 0
 -13405449.836 7 -10330902.542 8  21402037.778 0  21402041.683 0
 88  3  3  5 57 59.0800000  0  4  6  8 11  9
  -6182012.088 7  -4817152.688 7  20571594.642 0  20571598.160 0
   3737005.039 8   2911952.795 7  21091400.740 0  21091403.592 0
  -9095768.445 7  -6931600.803 7  20656497.458 0  20656502.045 0
 -13482022.752 7 -10390569.746 8  21387467.024 0  21387470.187 0
 88  3  3  5 58 29.0800000  0  4  6  8 11  9
  -6185522.678 7  -4819888.223 7  20570926.319 0  20570929.337 0
   3807842.672 8   2967150.945 8  21104880.046 0  21104884.110 0
  -9114644.426 7  -6946309.339 7  20652905.851 0  20652910.481 0
 -13558331.551 7 -10450031.155 7  21372945.499 0  21372950.187 0
 88  3  3  5 58 59.0800000  0  4  6  8 11  9
  -6188533.854 7  -4822234.610 8  20570353.531 0  20570357.130 0
   3879103.039 7   3022678.511 7  21118440.998 0  21118444.651 0
  -9132987.070 7  -6960602.299 7  20649415.314 0  20649420.370 0
 -13634372.592 8 -10509283.910 7  21358475.281 0  21358479.142 0
 88  3  3  5 59 29.0800000  0  4  6  8 11  9
  -6191044.190 8  -4824190.724 7  20569875.602 0  20569878.658 0
   3950782.562 8   3078532.676 7  21132081.469 0  21132084.835 0
  -9150797.283 7  -6974480.366 6  20646026.399 0  20646031.078 0
 -13710143.602 7 -10568326.249 7  21344056.869 0  21344059.510 0
 88  3  3  5 59 59.0800000  0  4  6  8 11  9
  -6193052.072 7  -4825755.328 7  20569493.249 0  20569497.582 0
   4022877.888 8   3134710.855 7  21145800.453 0  21145804.062 0
  -9168075.659 7  -6987944.009 6  20642737.947 0  20642742.511 0
 -13785641.304 7 -10627155.633 7  21329689.693 0  21329693.232 0
 88  3  3  6  0 29.0800000  0  4  6  8 11  9
  -6194555.486 7  -4826926.821 7  20569206.876 0  20569210.986 0
   4095386.247 7   3191210.864 7  21159598.608 0  21159601.474 0
  -9184822.198 7  -7000993.254 6  20639551.383 0  20639555.443 0
 -13860862.694 7 -10685769.697 7  21315376.535 0  21315379.011 0
 88  3  3  6  0 59.0800000  0  4  6  8 11  9
  -6195553.586 7  -4827704.571 6  20569017.942 0  20569020.311 0
   4168304.001 8   3248029.887 7  21173474.538 0  21173478.105 0
  -9201038.291 7  -7013629.154 7  20636464.947 0  20636469.649 0
 -13935805.907 8 -10744167.008 7  21301115.184 0  21301118.413 0
 88  3  3  6  1 29.0800000  0  4  6  8 11  9
  -6196044.219 8  -4828086.895 7  20568924.479 0  20568927.596 0
   4241628.335 7   3305165.746 7  21187427.489 0  21187430.110 0
  -9216723.844 7  -7025851.659 6  20633481.098 0  20633485.591 0
 -14010467.460 7 -10802344.830 7  21286907.065 0  21286910.745 0
 88  3  3  6  1 59.0800000  0  4  6  8 11  9
  -6196026.554 7  -4828073.142 7  20568928.153 0  20568931.734 0
   4315355.476 7   3362615.461 7  21201457.571 0  21201460.309 0
  -9231880.088 7  -7037661.697 7  20630596.979 0  20630600.584 0
 -14084844.782 8 -10860301.165 7  21272753.436 0  21272756.154 0
 88  3  3  6  2 29.0800000  0  4  6  8 11  9
  -6195498.142 7  -4827661.408 7  20569028.073 0  20569030.429 0
   4389483.291 8   3420377.409 7  21215563.603 0  21215566.054 0
  -9246506.725 7  -7049059.072 7  20627813.246 0  20627817.549 0
 -14158934.507 7 -10918033.422 7  21258655.852 0  21258656.758 0
 88  3  3  6  2 59.0800000  0  4  6  8 11  9
  -6194458.062 7  -4826850.954 7  20569226.683 0  20569228.858 0
   4464007.689 7   3478448.363 7  21229745.317 0  21229747.526 0
  -9260604.776 7  -7060044.548 7  20625130.216 0  20625134.570 0
 -14232734.389 7 -10975539.822 7  21244611.755 0  21244614.416 0
 88  3  3  6  3 29.0800000  0  4  6  8 11  9
  -6192905.021 8  -4825640.801 7  20569522.406 0  20569524.608 0
   4538926.096 7   3536826.341 7  21244001.754 0  21244003.833 0
  -9274174.658 7  -7070618.475 7  20622547.493 0  20622552.317 0
 -14306241.357 8 -11032817.962 7  21230624.100 0  21230627.073 0
 88  3  3  6  3 59.0800000  0  4  6  8 11  9
  -6190836.413 7  -4824028.919 7  20569915.411 0  20569919.406 0
   4614234.891 8   3595508.519 7  21258332.371 0  21258335.723 0
  -9287217.237 7  -7080781.503 7  20620066.176 0  20620070.374 0
 -14379452.285 7 -11089865.432 7  21216692.388 0  21216694.471 0
 88  3  3  6  4 29.0800000  0  4  6  8 11  9
  -6188251.626 7  -4822014.800 7  20570408.394 0  20570410.028 0
   4689931.487 8   3654492.884 7  21272736.080 0  21272739.532 0
  -9299732.859 7  -7090533.928 7  20617684.338 0  20617688.742 0
 -14452364.327 7 -11146679.992 7  21202817.067 0  21202819.814 0
 88  3  3  6  4 59.0800000  0  4  6  8 11  9
  -6185148.775 7  -4819597.006 7  20570998.164 0  20571001.063 0
   4766012.188 7   3713776.527 7  21287214.737 0  21287217.232 0
  -9311722.490 7  -7099876.480 7  20615402.537 0  20615408.149 0
 -14524974.418 8 -11203259.270 7  21188998.886 0  21189002.876 0
 88  3  3  6  5 29.0800000  0  4  6  8 11  9
  -6181526.996 8  -4816774.840 7  20571686.836 0  20571689.553 0
   4842473.693 7   3773356.922 6  21301763.771 0  21301768.564 0
  -9323187.403 7  -7108810.156 6  20613221.274 0  20613226.590 0
 -14597280.439 7 -11259601.623 7  21175240.392 0  21175243.715 0
 88  3  3  6  5 59.0800000  0  4  6  8 11  9
  -6177384.809 7  -4813547.175 6  20572475.443 0  20572478.855 0
   4919312.631 8   3833231.416 7  21316386.279 0  21316390.332 0
  -9334127.888 7  -7117335.206 7  20611139.161 0  20611142.929 0
 -14669279.085 7 -11315704.464 7  21161539.000 0  21161542.067 0
 88  3  3  6  6 29.0800000  0  4  6  8 11  9
  -6172720.984 7  -4809913.029 7  20573362.324 0  20573365.518 0
   4996525.886 7   3893397.586 7  21331079.660 0  21331082.986 0
  -9344544.935 7  -7125452.374 7  20609156.726 0  20609162.200 0
 -14740967.762 7 -11371565.760 7  21147897.351 0  21147900.936 0
 88  3  3  6  6 59.0800000  0  4  6  8 11  9
  -6167533.811 7  -4805871.093 7  20574351.030 0  20574352.222 0
   5074110.690 7   3953853.271 7  21345843.239 0  21345847.100 0
  -9354439.155 7  -7133162.146 7  20607274.232 0  20607279.131 0
 -14812343.442 8 -11427183.170 6  21134315.631 0  21134319.591 0
 88  3  3  6  7 29.0800000  0  4  6  8 11  9
  -6161821.939 7  -4801420.293 7  20575436.887 0  20575439.395 0
   5152063.706 7   4014595.882 8  21360678.274 0  21360681.327 0
  -9363811.167 7  -7140465.007 7  20605491.365 0  20605494.182 0
 -14883403.016 8 -11482554.252 7  21120793.318 0  21120796.624 0
 88  3  3  6  7 59.0800000  0  4  6  8 11  9
  -6155583.489 7  -4796559.175 6  20576623.528 0  20576626.971 0
   5230382.362 8   4075623.396 7  21375582.003 0  21375584.923 0
  -9372661.001 7  -7147360.958 7  20603806.973 0  20603812.083 0
 -14954142.818 7 -11537676.174 6  21107331.777 0  21107334.351 0
 88  3  3  6  8 29.0800000  0  4  6  8 11  9
  -6148817.042 7  -4791286.617 7  20577911.840 0  20577914.262 0
   5309063.221 8   4136933.146 7  21390553.684 0  21390557.263 0
  -9380989.665 6  -7153850.818 6  20602222.551 0  20602227.727 0
 -15024560.161 8 -11592546.818 7  21093932.147 0  21093934.663 0
 88  3  3  6  8 59.0800000  0  4  6  8 11  9
  -6141521.740 7  -4785601.989 7  20579299.268 0  20579303.330 0
   5388102.370 7   4198522.090 7  21405594.549 0  21405597.374 0
  -9388798.648 7  -7159935.730 7  20600735.609 0  20600739.352 0
 -15094652.811 7 -11647164.451 7  21080594.228 0  21080596.263 0
 88  3  3  6  9 29.0800000  0  4  6  8 11  9
  -6133697.068 7  -4779504.846 7  20580789.738 0  20580792.200 0
   5467496.724 7   4260387.824 7  21420702.614 0  21420706.878 0
  -9396089.376 7  -7165616.807 7  20599348.420 0  20599352.754 0
 -15164418.103 7 -11701527.018 7  21067318.188 0  21067320.325 0
 88  3  3  6  9 59.0800000  0  4  6  8 11  9
  -6125341.210 8  -4772993.797 7  20582378.818 0  20582380.967 0
   5547243.209 8   4322527.942 7  21435878.530 0  21435880.664 0
  -9402862.219 7  -7170894.333 6  20598059.242 0  20598062.795 0
 -15233853.110 8 -11755632.220 7  21054105.405 0  21054107.609 0
 88  3  3  6 10 29.0800000  0  4  6  8 11  9
  -6116452.617 7  -4766067.622 8  20584070.400 0  20584072.922 0
   5627338.920 8   4384940.182 7  21451120.067 0  21451122.704 0
  -9409117.578 7  -7175768.634 6  20596869.398 0  20596874.193 0
 -15302954.138 8 -11809477.158 7  21040955.547 0  21040958.151 0
 88  3  3  6 10 59.0800000  0  4  6  8 11  9
  -6107030.522 7  -4758725.744 6  20585863.908 0  20585868.323 0
   5707780.351 8   4447621.819 7  21466427.287 0  21466430.478 0
  -9414857.432 6  -7180241.232 6  20595776.080 0  20595782.507 0
 -15371718.809 8 -11863060.021 7  21027869.886 0  21027872.747 0
 88  3  3  6 11 29.0800000  0  4  6  8 11  9
  -6097073.656 7  -4750967.151 7  20587757.586 0  20587760.731 0
   5788564.397 8   4510570.415 8  21481800.527 0  21481802.877 0
  -9420082.304 7  -7184312.539 6  20594783.331 0  20594787.006 0
 -15440144.338 7 -11916378.610 8  21014848.502 0  21014852.559 0
 88  3  3  6 11 59.0800000  0  4  6  8 11  9
  -6086580.380 7  -4742790.578 8  20589754.617 0  20589757.482 0
   5869688.238 8   4573783.797 8  21497237.186 0  21497239.836 0
  -9424792.504 7  -7187982.819 7  20593885.671 0  20593891.434 0
 -15508227.478 8 -11969430.410 7  21001893.062 0  21001896.054 0
 88  3  3  6 12 29.0800000  0  4  6  8 11  9
  -6075549.960 7  -4734195.455 7  20591854.060 0  20591857.192 0
   5951148.088 7   4637259.009 7  21512738.895 0  21512741.758 0
  -9428989.728 7  -7191253.369 7  20593087.883 0  20593091.782 0
 -15575965.400 7 -12022213.201 7  20989002.846 0  20989006.828 0
 88  3  3  6 12 59.0800000  0  4  6  8 11  9
  -6063982.246 7  -4725181.661 7  20594054.912 0  20594058.869 0
   6032939.706 7   4700992.726 7  21528304.192 0  21528305.668 0
  -9432675.677 7  -7194125.522 7  20592385.645 0  20592390.725 0
 -15643356.310 7 -12074725.596 7  20976178.283 0  20976181.765 0
 88  3  3  6 13 29.0800000  0  4  6  8 11  9
  -6051873.471 7  -4715746.256 7  20596358.739 0  20596361.903 0
   6115062.748 7   4764984.706 8  21543930.649 0  21543933.427 0
  -9435849.169 7  -7196598.379 7  20591781.614 0  20591786.814 0
 -15710394.615 7 -12126963.239 7  20963421.254 0  20963424.992 0
 88  3  3  6 13 59.0800000  0  4  6  8 11  9
  -6039224.232 7  -4705889.716 7  20598765.967 0  20598770.272 0
   6197512.428 7   4829231.197 7  21559619.667 0  21559623.890 0
  -9438512.704 7  -7198673.837 7  20591276.009 0  20591279.282 0
 -15777079.119 7 -12178925.196 7  20950732.059 0  20950735.465 0
 88  3  3  6 14 29.0800000  0  4  6  8 11  9
  -6026033.399 7  -4695611.145 7  20601276.571 0  20601279.874 0
   6280285.599 7   4893729.772 7  21575371.497 0  21575373.619 0
  -9440667.338 6  -7200352.749 6  20590863.698 0  20590869.507 0
 -15843406.779 7 -12230609.090 7  20938110.252 0  20938114.327 0
 88  3  3  6 14 59.0800000  0  4  6  8 11  9
  -6012300.031 7  -4684909.839 7  20603889.920 0  20603893.294 0
   6363379.082 7   4958477.930 7  21591183.385 0  21591186.766 0
  -9442313.915 7  -7201635.801 6  20590551.735 0  20590556.391 0
 -15909374.831 7 -12282012.758 7  20925556.861 0  20925559.418 0
 88  3  3  6 15 29.0800000  0  4  6  8 11  9
  -5998022.708 7  -4673784.664 7  20606607.128 0  20606608.491 0
   6446789.863 8   5023473.337 7  21607055.946 0  21607058.924 0
  -9443453.578 7  -7202523.834 6  20590335.318 0  20590341.036 0
 -15974980.127 7 -12333133.750 8  20913073.360 0  20913075.944 0
 88  3  3  6 15 59.0800000  0  4  6  8 11  9
  -5983200.875 7  -4662235.174 7  20609427.626 0  20609431.043 0
   6530514.363 7   5088713.205 7  21622987.859 0  21622991.153 0
  -9444088.148 7  -7203018.295 7  20590214.463 0  20590219.041 0
 -16040220.026 7 -12383970.034 7  20900658.362 0  20900660.818 0
 88  3  3  6 16 29.0800000  0  4  6  8 11  9
  -5967833.634 8  -4650260.721 7  20612351.107 0  20612354.563 0
   6614549.518 8   5154195.142 8  21638979.244 0  21638983.141 0
  -9444218.484 6  -7203119.830 7  20590189.589 0  20590194.259 0
 -16105091.745 7 -12434519.421 7  20888312.527 0  20888315.059 0
 88  3  3  6 16 59.0800000  0  4  6  8 11  9
  -5951919.600 7  -4637860.187 7  20615380.484 0  20615382.624 0
   6698892.096 7   5219916.626 7  21655028.778 0  21655033.101 0
  -9443845.414 7  -7202829.119 6  20590260.557 0  20590264.546 0
 -16169592.055 7 -12484779.395 7  20876038.901 0  20876042.313 0
 88  3  3  6 17 29.0800000  0  4  6  8 11  9
  -5935457.912 7  -4625032.909 7  20618512.836 0  20618515.143 0
   6783538.859 7   5285875.149 8  21671136.910 0  21671140.105 0
  -9442970.356 7  -7202147.242 6  20590427.552 0  20590431.706 0
 -16233717.978 7 -12534747.645 7  20863836.292 0  20863839.932 0
 88  3  3  6 17 59.0800000  0  4  6  8 11  9
  -5918447.993 7  -4611778.434 7  20621748.616 0  20621753.579 0
   6868486.537 8   5352068.134 7  21687302.623 0  21687305.487 0
  -9441594.467 7  -7201075.122 6  20590689.749 0  20590693.963 0
 -16297467.173 7 -12584422.338 7  20851706.082 0  20851708.708 0
 88  3  3  6 18 29.0800000  0  4  6  8 11  9
  -5900888.991 7  -4598096.113 7  20625091.303 0  20625093.581 0
   6953731.979 8   5418493.156 7  21703524.811 0  21703527.878 0
  -9439719.008 7  -7199613.702 6  20591045.092 0  20591050.429 0
 -16360836.502 7 -12633801.043 7  20839646.864 0  20839649.468 0
 88  3  3  6 18 59.0800000  0  4  6  8 11  9
  -5882779.670 7  -4583984.957 7  20628536.664 0  20628539.530 0
   7039272.451 8   5485148.058 8  21719801.823 0  21719805.443 0
  -9437345.278 6  -7197764.037 7  20591497.549 0  20591501.907 0
 -16423822.906 7 -12682881.353 7  20827660.985 0  20827664.371 0
 88  3  3  6 19 29.0800000  0  4  6  8 11  9
  -5864120.178 7  -4569445.102 7  20632087.756 0  20632089.848 0
   7125103.582 7   5552029.463 7  21736134.322 0  21736138.358 0
  -9434475.314 7  -7195527.707 6  20592043.342 0  20592047.432 0
 -16486424.534 7 -12731661.836 7  20815748.774 0  20815751.563 0
 88  3  3  6 19 59.0800000  0  4  6  8 11  9
  -5844909.174 7  -4554475.492 7  20635743.661 0  20635746.143 0
   7211222.338 8   5619134.981 7  21752522.684 0  21752526.168 0
  -9431109.945 7  -7192905.334 7  20592683.629 0  20592688.346 0
 -16548637.771 7 -12780139.684 7  20803910.251 0  20803912.403 0
 88  3  3  6 20 29.0800000  0  4  6  8 11  9
  -5825145.644 7  -4539075.368 7  20639502.621 0  20639507.069 0
   7297626.224 7   5686462.677 7  21768963.375 0  21768968.173 0
  -9427250.151 7  -7189897.690 7  20593418.833 0  20593423.518 0
 -16610459.572 8 -12828312.516 7  20792145.288 0  20792149.056 0
 88  3  3  6 20 59.0800000  0  4  6  8 11  9
  -5804828.981 7  -4523244.210 7  20643370.421 0  20643373.785 0
   7384311.948 8   5754010.002 7  21785459.626 0  21785463.468 0
  -9422897.608 7  -7186506.103 7  20594246.771 0  20594251.300 0
 -16671887.280 8 -12876178.239 7  20780456.354 0  20780458.601 0
 88  3  3  6 21 29.0800000  0  4  6  8 11  9
  -5783958.226 7  -4506981.297 7  20647341.778 0  20647345.136 0
   7471276.433 8   5821774.521 7  21802009.570 0  21802012.711 0
  -9418053.283 7  -7182731.286 6  20595169.503 0  20595172.368 0
 -16732917.897 8 -12923734.571 8  20768842.435 0  20768844.225 0
 88  3  3  6 21 59.0800000  0  4  6  8 11  9
  -5762532.673 7  -4490286.062 7  20651418.901 0  20651421.728 0
   7558516.641 7   5889753.902 8  21818610.139 0  21818612.436 0
  -9412718.470 6  -7178574.284 7  20596184.195 0  20596188.146 0
 -16793548.465 7 -12970979.169 7  20757304.975 0  20757307.202 0
 88  3  3  6 22 29.0800000  0  4  6  8 11  9
  -5740551.921 7  -4473158.221 7  20655601.633 0  20655605.084 0
   7646028.975 8   5957945.333 7  21835263.222 0  21835266.249 0
  -9406894.892 7  -7174036.422 6  20597291.925 0  20597296.977 0
 -16853776.489 8 -13017910.101 7  20745843.306 0  20745844.950 0
 88  3  3  6 22 59.0800000  0  4  6  8 11  9
  -5718014.955 7  -4455596.963 8  20659890.513 0  20659893.887 0
   7733810.680 7   6026346.648 7  21851967.490 0  21851971.230 0
  -9400583.663 6  -7169118.595 7  20598493.934 0  20598497.675 0
 -16913598.805 7 -13064524.881 7  20734460.156 0  20734462.837 0
 88  3  3  6 23 29.0800000  0  4  6  8 11  9
  -5694921.186 7  -4437601.828 7  20664284.860 0  20664288.693 0
   7821858.521 8   6094955.366 7  21868722.869 0  21868725.606 0
  -9393786.183 6  -7163821.840 7  20599785.004 0  20599790.880 0
 -16973012.357 8 -13110821.146 7  20723153.897 0  20723156.248 0
 88  3  3  6 23 59.0800000  0  4  6  8 11  9
  -5671270.123 7  -4419172.438 7  20668784.682 0  20668788.694 0
   7910169.049 8   6163768.749 7  21885527.459 0  21885530.924 0
  -9386504.182 7  -7158147.528 7  20601172.745 0  20601175.479 0
 -17032014.714 8 -13156797.001 7  20711925.945 0  20711928.993 0
 88  3  3  6 24 29.0800000  0  4  6  8 11  9
  -5647061.216 7  -4400308.371 6  20673392.277 0  20673396.724 0
   7998739.416 7   6232784.625 7  21902381.901 0  21902385.121 0
  -9378739.296 7  -7152096.959 7  20602650.560 0  20602653.989 0
 -17090602.994 7 -13202450.199 7  20700776.003 0  20700780.926 0
 88  3  3  6 24 59.0800000  0  4  6  8 11  9
  -5622292.279 7  -4381007.920 7  20678105.231 0  20678109.000 0
   8087567.759 8   6302001.504 7  21919285.350 0  21919289.461 0
  -9370491.166 7  -7145669.844 6  20604219.849 0  20604223.168 0
 -17148772.521 8 -13247777.094 7  20689707.675 0  20689711.117 0
 88  3  3  6 25 29.0800000  0  4  6  8 11  9
  -5596964.209 7  -4361271.774 7  20682925.846 0  20682928.857 0
   8176649.426 8   6371415.795 7  21936237.853 0  21936240.502 0
  -9361762.830 8  -7138868.535 7  20605881.171 0  20605884.611 0
 -17206522.419 8 -13292777.011 6  20678717.351 0  20678722.140 0
 88  3  3  6 25 59.0800000  0  4  6  8 11  9
  -5571075.759 7  -4341098.963 7  20687852.547 0  20687855.524 0
   8265982.491 7   6441025.964 7  21953236.832 0  21953240.114 0
  -9352554.920 6  -7131693.533 7  20607632.185 0  20607636.584 0
 -17263848.727 8 -13337446.844 7  20667809.250 0  20667813.277 0
 88  3  3  6 26 29.0800000  0  4  6  8 11  9
  -5544627.128 7  -4320489.645 8  20692884.246 0  20692888.130 0
   8355562.917 7   6510828.890 7  21970282.902 0  21970286.427 0
  -9342869.766 7  -7124146.645 7  20609475.141 0  20609479.802 0
 -17320749.401 7 -13381785.031 7  20656981.453 0  20656985.310 0
 88  3  3  6 26 59.0800000  0  4  6  8 11  9
  -5517617.444 7  -4299443.152 7  20698024.510 0  20698027.529 0
   8445387.767 8   6580822.275 7  21987376.880 0  21987379.987 0
  -9332708.460 7  -7116228.728 6  20611409.608 0  20611413.097 0
 -17377221.493 8 -13425789.250 6  20646234.973 0  20646237.876 0
 88  3  3  6 27 29.0800000  0  4  6  8 11  9
  -5490046.885 8  -4277959.622 7  20703271.605 0  20703275.174 0
   8535453.624 7   6651003.454 7  22004515.444 0  22004518.625 0
  -9322073.178 7  -7107941.503 6  20613433.738 0  20613436.083 0
 -17433262.576 8 -13469457.624 7  20635570.924 0  20635573.394 0
 88  3  3  6 27 59.0800000  0  4  6  8 11  9
  -5461914.750 7  -4256038.497 7  20708624.220 0  20708628.181 0
   8625757.615 8   6721370.178 8  22021700.400 0  22021703.052 0
  -9310965.276 7  -7099285.973 6  20615545.831 0  20615551.164 0
 -17488869.547 7 -13512787.723 7  20624989.635 0  20624991.027 0
 88  3  3  6 28 29.0800000  0  4  6  8 11  9
  -5433220.759 7  -4233679.558 7  20714084.176 0  20714088.089 0
   8716296.573 8   6791920.017 8  22038928.345 0  22038931.708 0
  -9299386.382 7  -7090263.442 7  20617750.430 0  20617754.998 0
 -17544040.143 7 -13555777.798 7  20614490.402 0  20614494.012 0
 88  3  3  6 28 59.0800000  0  4  6  8 11  9
  -5403963.786 7  -4210881.935 7  20719652.530 0  20719655.836 0
   8807067.925 8   6862650.943 8  22056202.099 0  22056205.701 0
  -9287337.406 7  -7080874.627 6  20620043.102 0  20620046.595 0
 -17598770.428 7 -13598424.771 7  20604075.577 0  20604078.582 0
 88  3  3  6 29 29.0800000  0  4  6  8 11  9
  -5374143.682 7  -4187645.506 8  20725326.553 0  20725329.769 0
   8898068.483 8   6933560.448 7  22073518.776 0  22073522.908 0
  -9274820.169 7  -7071120.911 7  20622423.636 0  20622428.243 0
 -17653057.764 7 -13640726.581 6  20593745.117 0  20593747.678 0
 88  3  3  6 29 59.0800000  0  4  6  8 11  9
  -5343760.543 7  -4163970.344 7  20731107.802 0  20731112.182 0
   8989294.599 7   7004645.731 8  22090877.588 0  22090881.720 0
  -9261836.326 7  -7061003.628 7  20624895.328 0  20624899.445 0
 -17706900.264 7 -13682681.791 7  20583499.827 0  20583501.167 0
 88  3  3  6 30 29.0800000  0  4  6  8 11  9
  -5312813.624 7  -4139855.878 7  20736997.618 0  20737001.383 0
   9080743.747 7   7075904.797 7  22108280.410 0  22108283.860 0
  -9248387.816 7  -7050524.254 7  20627454.725 0  20627459.600 0
 -17760294.346 7 -13724287.561 7  20573338.870 0  20573340.769 0
 88  3  3  6 30 59.0800000  0  4  6  8 11  9
  -5281303.353 7  -4115302.437 7  20742994.566 0  20742998.018 0
   9172411.984 7   7147334.583 7  22125724.330 0  22125728.081 0
  -9234476.564 7  -7039684.314 7  20630101.733 0  20630105.180 0
 -17813237.984 8 -13765542.347 7  20563263.369 0  20563267.293 0
 88  3  3  6 31 29.0800000  0  4  6  8 11  9
  -5249229.144 8  -4090309.561 7  20749097.068 0  20749100.894 0
   9264297.026 7   7218933.311 7  22143209.324 0  22143211.829 0
  -9220104.147 7  -7028485.022 6  20632836.371 0  20632840.880 0
 -17865728.343 7 -13806443.916 6  20553275.040 0  20553278.839 0
 88  3  3  6 31 59.0800000  0  4  6  8 11  9
  -5216590.587 7  -4064876.934 7  20755308.442 0  20755311.994 0
   9356395.560 8   7290698.414 7  22160735.320 0  22160738.730 0
  -9205271.951 7  -7016927.443 6  20635659.481 0  20635663.514 0
 -17917762.231 7 -13846989.815 6  20543374.353 0  20543374.930 0
 88  3  3  6 32 29.0800000  0  4  6  8 11  9
  -5183387.946 7  -4039004.759 7  20761626.357 0  20761630.409 0
   9448704.197 8   7362627.203 8  22178300.464 0  22178304.865 0
  -9189982.176 7  -7005013.340 6  20638567.596 0  20638574.462 0
 -17969337.725 7 -13887178.523 6  20533559.643 0  20533561.685 0
 88  3  3  6 32 59.0800000  0  4  6  8 11  9
  -5149620.406 7  -4012692.419 6  20768051.541 0  20768056.741 0
   9541220.485 8   7434717.823 7  22195906.553 0  22195909.294 0
  -9174235.595 8  -6992743.274 7  20641565.159 0  20641569.751 0
 -18020451.245 7 -13927007.217 7  20523832.845 0  20523834.763 0
 88  3  3  6 33 29.0800000  0  4  6  8 11  9
  -5115288.434 7  -3985940.242 7  20774585.717 0  20774588.449 0
   9633940.744 7   7506967.368 7  22213550.279 0  22213553.309 0
  -9158035.031 7  -6980119.447 7  20644647.618 0  20644652.381 0
 -18071100.693 7 -13966474.321 7  20514194.698 0  20514197.036 0
 88  3  3  6 33 59.0800000  0  4  6  8 11  9
  -5080391.790 8  -3958748.073 6  20781226.257 0  20781230.035 0
   9726862.104 8   7579373.615 8  22231233.703 0  22231235.772 0
  -9141381.913 7  -6967142.985 7  20647817.565 0  20647821.012 0
 -18121283.384 7 -14005577.718 6  20504645.475 0  20504648.482 0
 88  3  3  6 34 29.0800000  0  4  6  8 11  9
  -5044930.627 7  -3931116.011 7  20787974.087 0  20787977.460 0
   9819981.816 7   7651934.441 7  22248953.343 0  22248956.156 0
  -9124278.092 7  -6953815.335 7  20651071.919 0  20651075.466 0
 -18170996.760 7 -14044315.413 7  20495184.304 0  20495187.466 0
 88  3  3  6 34 59.0800000  0  4  6  8 11  9
  -5008903.878 7  -3903043.249 6  20794829.913 0  20794834.053 0
   9913297.346 7   7724647.830 7  22266710.756 0  22266713.512 0
  -9106724.544 7  -6940137.232 7  20654412.274 0  20654415.862 0
 -18220236.867 7 -14082684.331 6  20485814.982 0  20485817.577 0
 88  3  3  6 35 29.0800000  0  4  6  8 11  9
  -4972312.002 7  -3874530.111 7  20801793.942 0  20801797.126 0
  10006805.123 7   7797511.022 8  22284504.346 0  22284508.002 0
  -9088723.796 7  -6926110.685 7  20657838.139 0  20657842.288 0
 -18269002.245 7 -14120683.327 7  20476533.655 0  20476538.738 0
 88  3  3  6 35 59.0800000  0  4  6  8 11  9
  -4935155.398 7  -3845576.920 7  20808864.417 0  20808867.285 0
  10100501.790 8   7870521.417 7  22302334.380 0  22302336.628 0
  -9070277.886 7  -6911737.225 7  20661346.755 0  20661352.762 0
 -18317290.190 7 -14158310.293 7  20467345.513 0  20467348.658 0
 88  3  3  6 36 29.0800000  0  4  6  8 11  9
  -4897431.489 7  -3816181.682 7  20816043.364 0  20816046.496 0
  10194386.956 7   7943678.680 7  22320200.171 0  22320202.964 0
  -9051385.684 7  -6897016.024 7  20664942.970 0  20664946.374 0
 -18365095.674 7 -14195561.341 7  20458248.164 0  20458251.252 0
 88  3  3  6 36 59.0800000  0  4  6  8 11  9
  -4859141.331 7  -3786345.211 7  20823328.781 0  20823332.712 0
  10288456.683 7   8016979.751 8  22338100.585 0  22338104.320 0
  -9032050.293 7  -6881949.475 7  20668622.954 0  20668625.899 0
 -18412416.931 7 -14232435.027 6  20449243.688 0  20449247.991 0
 88  3  3  6 37 29.0800000  0  4  6  8 11  9
  -4820285.494 7  -3756067.950 7  20830722.375 0  20830726.371 0
  10382707.538 7   8090421.984 8  22356035.857 0  22356039.970 0
  -9012274.191 7  -6866539.507 7  20672386.271 0  20672390.048 0
 -18459251.979 7 -14268929.868 7  20440332.137 0  20440335.655 0
 88  3  3  6 37 59.0800000  0  4  6  8 11  9
  -4780864.060 7  -3725349.959 7  20838224.844 0  20838228.165 0
  10477136.444 7   8164002.936 7  22374004.222 0  22374008.747 0
  -8992059.242 7  -6850787.588 7  20676231.770 0  20676235.904 0
 -18505598.285 7 -14305043.868 6  20431512.229 0  20431515.914 0
 88  3  3  6 38 29.0800000  0  4  6  8 11  9
  -4740877.275 7  -3694191.443 7  20845834.857 0  20845838.186 0
  10571740.207 7   8237720.153 8  22392007.908 0  22392011.987 0
  -8971407.216 7  -6834695.113 7  20680161.804 0  20680167.468 0
 -18551453.241 7 -14340775.007 6  20422786.463 0  20422789.514 0
 88  3  3  6 38 59.0800000  0  4  6  8 11  9
  -4700325.685 7  -3662592.826 7  20853551.579 0  20853553.693 0
  10666515.746 7   8311571.223 8  22410042.569 0  22410047.122 0
  -8950320.426 7  -6818263.835 7  20684174.862 0  20684178.767 0
 -18596814.758 7 -14376121.639 7  20414154.121 0  20414156.803 0
 88  3  3  6 39 29.0800000  0  4  6  8 11  9
  -4659209.229 7  -3630554.048 7  20861375.384 0  20861377.904 0
  10761460.529 7   8385554.156 7  22428110.351 0  22428114.294 0
  -8928800.874 8  -6801495.339 7  20688270.026 0  20688274.117 0
 -18641680.065 7 -14411081.606 7  20405617.231 0  20405618.732 0
 88  3  3  6 39 59.0800000  0  4  6  8 11  9
  -4617527.696 7  -3598074.939 7  20869307.608 0  20869310.105 0
  10856571.430 7   8459666.542 8  22446210.492 0  22446212.654 0
  -8906850.166 7  -6784390.892 6  20692447.610 0  20692451.915 0
 -18686046.072 7 -14445652.526 6  20397173.996 0  20397176.067 0
 88  3  3  6 40 29.0800000  0  4  6  8 11  9
  -4575281.635 7  -3565155.955 7  20877345.781 0  20877349.327 0
  10951845.286 7   8533905.897 7  22464339.045 0  22464342.472 0
  -8884470.310 7  -6766952.038 6  20696705.583 0  20696711.019 0
 -18729911.072 7 -14479833.035 7  20388826.524 0  20388829.731 0
 88  3  3  6 40 59.0800000  0  4  6  8 11  9
  -4532471.073 7  -3531797.087 7  20885491.254 0  20885495.269 0
  11047279.702 7   8608270.365 8  22482499.728 0  22482503.064 0
  -8861663.008 7  -6749180.102 7  20701046.363 0  20701049.224 0
 -18773271.759 7 -14513620.587 7  20380576.565 0  20380578.723 0
 88  3  3  6 41 29.0800000  0  4  6  8 11  9
  -4489096.131 7  -3497998.443 7  20893746.561 0  20893748.805 0
  11142871.353 7   8682757.365 8  22500689.531 0  22500693.332 0
  -8838430.164 7  -6731076.580 7  20705467.863 0  20705470.451 0
 -18816125.564 7 -14547013.158 6  20372419.721 0  20372423.236 0
 88  3  3  6 41 59.0800000  0  4  6  8 11  9
  -4445157.499 7  -3463760.551 7  20902107.857 0  20902111.009 0
  11238617.270 8   8757364.544 8  22518910.199 0  22518913.842 0
  -8814773.634 7  -6712642.911 7  20709968.821 0  20709973.241 0
 -18858470.441 7 -14580009.165 7  20364363.129 0  20364365.083 0
 88  3  3  6 42 29.0800000  0  4  6  8 11  9
  -4400655.330 7  -3429083.565 7  20910576.501 0  20910579.469 0
  11334514.336 7   8832089.539 7  22537158.819 0  22537162.591 0
  -8790695.752 7  -6693880.915 7  20714549.724 0  20714555.047 0
 -18900304.095 7 -14612606.814 6  20356401.833 0  20356406.060 0
 88  3  3  6 42 59.0800000  0  4  6  8 11  9
  -4355589.959 7  -3393967.696 8  20919152.490 0  20919155.422 0
  11430560.449 7   8906930.654 7  22555435.986 0  22555440.230 0
  -8766198.622 7  -6674792.237 7  20719213.235 0  20719216.637 0
 -18941623.593 7 -14644803.824 6  20348538.586 0  20348542.946 0
 88  3  3  6 43 29.0800000  0  4  6  8 11  9
  -4309961.397 8  -3358412.985 7  20927834.755 0  20927837.351 0
  11526753.038 7   8981885.919 8  22573740.263 0  22573744.979 0
  -8741283.848 8  -6655378.122 7  20723953.184 0  20723958.708 0
 -18982426.459 7 -14676598.263 6  20340774.812 0  20340778.075 0
 88  3  3  6 43 59.0800000  0  4  6  8 11  9
  -4263770.339 7  -3322419.970 8  20936625.359 0  20936627.229 0
  11623088.907 7   9056952.806 8  22592072.994 0  22592076.157 0
  -8715953.223 7  -6635639.967 7  20728773.895 0  20728776.213 0
 -19022710.209 7 -14707988.198 6  20333109.680 0  20333112.489 0
 88  3  3  6 44 29.0800000  0  4  6  8 11  9
  -4217016.568 7  -3285988.457 7  20945521.339 0  20945525.198 0
  11719565.669 7   9132129.524 7  22610431.867 0  22610435.300 0
  -8690208.453 6  -6615579.104 7  20733672.163 0  20733677.570 0
 -19062472.182 6 -14738971.543 6  20325541.395 0  20325545.485 0
 88  3  3  6 44 59.0800000  0  4  6  8 11  9
  -4169700.919 7  -3249119.154 7  20954524.588 0  20954528.844 0
  11816179.953 8   9207413.376 7  22628816.488 0  22628820.173 0
  -8664052.008 7  -6595197.454 7  20738649.560 0  20738653.477 0
 -19101709.961 6 -14769546.443 7  20318075.965 0  20318078.682 0
 88  3  3  6 45 29.0800000  0  4  6  8 11  9
  -4121823.745 7  -3211812.285 7  20963635.571 0  20963638.796 0
  11912928.966 8   9282802.225 7  22647227.504 0  22647230.933 0
  -8637485.694 7  -6574496.429 6  20743704.582 0  20743707.944 0
 -19140421.160 7 -14799711.016 7  20310709.002 0  20310712.199 0
 88  3  3  6 45 59.0800000  0  4  6  8 11  9
  -4073386.373 7  -3174068.889 7  20972852.482 0  20972855.779 0
  12009808.833 7   9358293.015 7  22665663.955 0  22665666.166 0
  -8610512.217 7  -6553478.135 7  20748838.538 0  20748842.885 0
 -19178604.478 7 -14829464.251 6  20303443.294 0  20303445.108 0
 88  3  3  6 46 29.0800000  0  4  6  8 11  9
  -4024388.372 7  -3135888.650 7  20982178.593 0  20982180.982 0
  12106818.223 7   9433884.729 7  22684124.065 0  22684126.771 0
  -8583132.883 7  -6532143.588 7  20754047.469 0  20754052.690 0
 -19216256.522 7 -14858803.510 7  20296278.534 0  20296280.724 0
 88  3  3  6 46 59.0800000  0  4  6  8 11  9
  -3974830.473 7  -3097272.117 8  20991607.594 0  20991611.160 0
  12203954.099 7   9509575.037 7  22702608.099 0  22702610.670 0
  -8555349.841 7  -6510494.463 6  20759336.106 0  20759339.223 0
 -19253374.979 7 -14887726.977 7  20289214.055 0  20289217.845 0
 88  3  3  6 47 29.0800000  0  4  6  8 11  9
  -3924713.212 7  -3058219.724 7  21001143.907 0  21001148.396 0
  12301213.516 7   9585361.586 8  22721116.524 0  22721119.110 0
  -8527165.266 7  -6488532.457 8  20764698.777 0  20764702.311 0
 -19289957.546 7 -14916232.889 6  20282252.420 0  20282256.091 0
 88  3  3  6 47 59.0800000  0  4  6  8 11  9
  -3874036.866 8  -3018731.683 7  21010788.347 0  21010791.491 0
  12398594.158 8   9661242.594 7  22739645.543 0  22739650.129 0
  -8498581.130 7  -6466259.092 7  20770136.632 0  20770141.352 0
 -19326001.596 6 -14944319.174 7  20275394.193 0  20275397.739 0
 88  3  3  6 48 29.0800000  0  4  6  8 11  9
  -3822802.074 7  -2978808.494 7  21020537.420 0  21020541.018 0
  12496092.834 8   9737215.574 7  22758199.807 0  22758203.401 0
  -8469598.952 7  -6443675.567 7  20775652.225 0  20775656.602 0
 -19361504.885 7 -14971984.060 7  20268639.295 0  20268641.029 0
 88  3  3  6 48 59.0800000  0  4  6  8 11  9
  -3771009.090 7  -2938450.350 7  21030393.378 0  21030397.554 0
  12593707.376 7   9813278.855 7  22776775.487 0  22776778.914 0
  -8440220.757 6  -6420783.466 7  20781243.400 0  20781247.720 0
 -19396464.654 7 -14999225.458 7  20261985.401 0  20261987.662 0
 88  3  3  6 49 29.0800000  0  4  6  8 11  9
  -3718658.394 7  -2897657.624 8  21040355.533 0  21040359.429 0
  12691435.476 8   9889430.613 7  22795371.942 0  22795375.248 0
  -8410448.379 7  -6397584.199 7  20786908.968 0  20786912.301 0
 -19430878.371 6 -15026041.337 6  20255437.188 0  20255440.103 0
 88  3  3  6 49 59.0800000  0  4  6  8 11  9
  -3665751.185 7  -2856431.244 7  21050423.881 0  21050426.464 0
  12789273.587 7   9965668.091 8  22813990.769 0  22813993.030 0
  -8380284.703 7  -6374080.034 6  20792648.415 0  20792653.782 0
 -19464744.537 7 -15052430.554 7  20248992.231 0  20248996.240 0
 88  3  3  6 50 29.0800000  0  4  6  8 11  9
  -3612288.476 8  -2814772.012 7  21060597.075 0  21060600.973 0
  12887218.738 8  10041988.990 7  22832628.986 0  22832632.606 0
  -8349731.999 7  -6350272.731 7  20798462.741 0  20798467.233 0
 -19498061.057 6 -15078391.481 7  20242652.547 0  20242655.583 0
 88  3  3  6 50 59.0800000  0  4  6  8 11  9
  -3558269.529 7  -2772679.341 7  21070876.709 0  21070880.800 0
  12985269.863 7  10118392.431 7  22851286.934 0  22851291.880 0
  -8318790.607 7  -6326162.550 7  20804350.618 0  20804354.523 0
 -19530824.011 6 -15103921.055 7  20236417.739 0  20236420.924 0
 88  3  3  6 51 29.0800000  0  4  6  8 11  9
  -3503696.044 7  -2730154.573 7  21081261.742 0  21081265.786 0
  13083423.140 7  10194875.499 7  22869965.138 0  22869969.061 0
  -8287463.861 7  -6301752.097 7  20810312.831 0  20810316.734 0
 -19563032.758 7 -15129018.791 6  20230288.157 0  20230291.218 0
 88  3  3  6 51 59.0800000  0  4  6  8 11  9
  -3448569.010 7  -2687198.461 8  21091752.171 0  21091756.144 0
  13181675.623 8  10271435.874 7  22888662.208 0  22888665.730 0
  -8255754.179 7  -6277043.249 7  20816346.519 0  20816350.581 0
 -19594684.962 7 -15153682.842 6  20224265.566 0  20224268.376 0
 88  3  3  6 52 29.0800000  0  4  6  8 11  9
  -3392889.083 7  -2643811.522 7  21102348.470 0  21102350.831 0
  13280024.592 8  10348071.416 7  22907377.772 0  22907380.984 0
  -8223663.361 3  -6252037.405 3  20822453.499 0  20822458.174 0
 -19625778.394 6 -15177911.480 6  20218349.895 0  20218352.105 0
 88  3  3  6 52 59.0800000  0  4  6  8 11  9
  -3336658.475 7  -2599995.479 7  21113048.206 0  21113051.669 0
  13378466.458 6  10424779.361 7  22926109.806 0  22926113.663 0
  -8191195.201 2  -6226737.552 3  20828632.416 0  20828633.693 0
 -19656311.876 6 -15201703.810 7  20212538.814 0  20212542.232 0
 88  3  3  6 53 29.0800000  0  4  6  8 11  9
  -3279876.179 7  -2555749.555 7  21123853.818 0  21123858.001 0
  13477000.152 7  10501558.843 7  22944860.661 0  22944863.893 0
  -8158350.031 7  -6201143.898 7  20834881.335 0  20834886.101 0
 -19686281.919 4 -15225057.096 4  20206836.017 0  20206837.840 0
 88  3  3  6 53 59.0800000  0  4  6  8 11  9
  -3222543.002 7  -2511074.374 7  21134763.727 0  21134767.233 0
  13575623.067 8  10578407.863 7  22963627.968 0  22963631.768 0
  -8125129.717 8  -6175257.932 7  20841203.290 0  20841208.188 0
 -19715686.111 7 -15247969.441 7  20201240.425 0  20201242.534 0
 88  3  3  6 54 29.0800000  0  4  6  8 11  9
  -3164660.046 7  -2465970.800 7  21145778.450 0  21145781.689 0
  13674332.612 7  10655324.373 8  22982411.743 0  22982414.894 0
  -8091536.441 8  -6149081.345 8  20847596.150 0  20847600.817 0
 -19744522.673 7 -15270439.494 6  20195752.216 0  20195754.636 0
 88  3  3  6 54 59.0800000  0  4  6  8 11  9
  -3106227.511 8  -2420438.973 7  21156898.505 0  21156901.421 0
  13773127.039 8  10732307.054 7  23001211.559 0  23001214.410 0
  -8057571.701 7  -6122615.311 7  20854059.768 0  20854064.134 0
 -19772788.626 6 -15292464.908 7  20190373.546 0  20190376.754 0
 88  3  3  6 55 29.0800000  0  4  6  8 11  9
  -3047246.384 8  -2374479.661 7  21168121.738 0  21168125.334 0
  13872003.620 7  10809353.700 7  23020027.059 0  23020030.738 0
  -8023237.915 8  -6095861.708 7  20860593.344 0  20860596.909 0
 -19800482.121 7 -15314044.265 7  20185104.006 0  20185105.965 0
 88  3  3  6 55 59.0800000  0  4  6  8 11  9
  -2987718.092 8  -2328094.008 7  21179450.426 0  21179453.568 0
  13970959.148 7  10886461.904 7  23038856.891 0  23038861.543 0
  -7988537.887 7  -6068822.706 7  20867195.804 0  20867200.199 0
 -19827601.520 6 -15335176.271 6  20179943.114 0  20179945.710 0
 88  3  3  6 56 29.0800000  0  4  6 13 11  9
  -2927643.874 7  -2281282.953 7  21190881.082 0  21190885.971 0
          .447 8         -.096 7  21399601.234 0          .000 0
  -7953473.644 7  -6041499.920 7  20873867.203 0  20873872.087 0
 -19854145.055 7 -15355859.549 7  20174892.529 0  20174895.681 0
 88  3  3  6 56 59.0800000  0  4  6 13 11  9
  -2867023.617 8  -2234046.399 6  21202417.422 0  21202420.754 0
    -54682.704 7  55486918.319 7  21389228.516 0  21389234.190 0
  -7918046.233 7  -6013894.138 7  20880611.424 0  20880613.507 0
 -19880109.625 6 -15376091.678 6  20169951.278 0  20169954.796 0
 88  3  3  6 57 29.0800000  0  4  6 13 11  9
  -2805858.859 7  -2186385.567 7  21214056.838 0  21214059.542 0
   -108921.715 7  55444654.185 7  21378908.440 0  21378911.638 0
  -7882258.411 7  -5986007.533 7  20887419.482 0  20887424.740 0
 -19905493.645 7 -15395871.442 6  20165119.852 0  20165123.604 0
 88  3  3  6 57 59.0800000  0  4  6 13 11  9
  -2744151.097 7  -2138301.618 7  21225799.274 0  21225802.265 0
   -162715.913 7  55402736.660 6  21368670.906 0  21368674.519 0
  -7846112.768 7  -5957842.086 7  20894297.876 0  20894302.506 0
 -19930295.613 7 -15415197.660 6  20160402.603 0  20160403.946 0
 88  3  3  6 58 29.0800000  0  4  6 13 11  9
  -2681901.352 8  -2089795.359 7  21237645.336 0  21237647.826 0
   -216065.314 7  55361165.714 7  21358518.294 0  21358523.287 0
  -7809611.630 7  -5929399.646 7  20901245.134 0  20901248.286 0
 -19954513.508 7 -15434068.734 6  20155793.307 0  20155796.175 0
 88  3  3  6 58 59.0800000  0  4  6 13 11  9
  -2619110.651 7  -2040867.559 7  21249593.795 0  21249596.943 0
   -268969.915 8  55319941.392 7  21348451.727 0  21348455.074 0
  -7772757.081 7  -5900681.806 7  20908256.775 0  20908261.957 0
 -19978145.508 7 -15452483.282 6  20151295.879 0  20151298.598 0
 88  3  3  6 59 29.0800000  0  4  6 13 11  9
  -2555780.472 8  -1991519.376 7  21261644.452 0  21261647.669 0
   -321429.789 7  55279063.589 7  21338467.987 0  21338472.746 0
  -7735551.553 7  -5871690.491 7  20915337.689 0  20915341.888 0
 -20001189.881 7 -15470439.928 6  20146909.873 0  20146914.204 0
 88  3  3  6 59 59.0800000  0  4  6 13 11  9
  -2491911.488 8  -1941751.351 7  21273799.048 0  21273801.996 0
   -373444.076 7  55238533.018 6  21328571.325 0  21328574.393 0
  -7697996.909 7  -5842427.136 6  20922485.039 0  20922488.500 0
 -20023644.488 7 -15487937.024 7  20142636.909 0  20142639.536 0
 88  3  3  7  0 29.0800000  0  4  6 13 11  9
  -2427505.006 7  -1891564.508 7  21286053.812 0  21286057.788 0
   -425012.760 8  55198349.611 7  21318757.370 0  21318761.740 0
  -7660095.364 7  -5812893.453 7  20929696.013 0  20929699.626 0
 -20045507.412 6 -15504973.070 7  20138477.494 0  20138479.832 0
 88  3  3  7  0 59.0800000  0  4  6 13 11  9
  -2362562.189 7  -1840959.741 7  21298412.542 0  21298417.392 0
   -476136.369 7  55158513.099 7  21309028.228 0  21309032.693 0
  -7621849.176 7  -5783091.234 7  20936973.548 0  20936978.479 0
 -20066776.839 7 -15521546.670 6  20134428.574 0  20134432.684 0
 88  3  3  7  1 29.0800000  0  4  6 13 11  9
  -2297084.393 8  -1789938.094 7  21310872.612 0  21310876.246 0
   -526814.514 7  55119023.652 6  21299385.618 0  21299387.794 0
  -7583260.524 7  -5753022.148 6  20944316.999 0  20944322.246 0
 -20087450.945 7 -15537656.373 6  20130495.685 0  20130498.344 0
 88  3  3  7  1 59.0800000  0  4  6 13 11  9
  -2231072.694 7  -1738500.436 7  21323434.308 0  21323438.799 0
   -577046.728 7  55079881.706 7  21289825.980 0  21289830.103 0
  -7544331.585 8  -5722687.918 7  20951725.231 0  20951729.485 0
 -20107528.025 7 -15553300.837 7  20126674.981 0  20126678.170 0
 88  3  3  7  2 29.0800000  0  4  6 13 11  9
  -2164528.403 7  -1686647.753 6  21336097.653 0  21336099.800 0
   -626832.925 7  55041087.284 7  21280350.954 0  21280356.192 0
  -7505064.571 7  -5692090.239 6  20959197.800 0  20959200.654 0
 -20127006.182 7 -15568478.633 7  20122968.902 0  20122971.802 0
 88  3  3  7  2 59.0800000  0  4  6 13 11  9
  -2097452.694 7  -1634380.998 7  21348860.593 0  21348864.983 0
   -676173.383 7  55002640.199 7  21270960.997 0  21270967.106 0
  -7465461.785 7  -5661230.928 6  20966733.583 0  20966738.315 0
 -20145883.347 7 -15583188.124 7  20119375.781 0  20119378.875 0
 88  3  3  7  3 29.0800000  0  4  6 13 11  9
  -2029847.147 7  -1581701.370 7  21361727.015 0  21361730.621 0
   -725068.067 7  54964540.493 6  21261658.373 0  21261662.228 0
  -7425525.499 8  -5630111.741 6  20974333.561 0  20974336.484 0
 -20164158.731 7 -15597428.686 6  20115897.516 0  20115902.006 0
 88  3  3  7  3 59.0800000  0  4  6 13 11  9
  -1961712.877 8  -1528609.756 7  21374691.915 0  21374696.033 0
   -773517.111 7  54926788.004 6  21252438.852 0  21252443.346 0
  -7385258.102 8  -5598734.535 7  20981996.497 0  20981999.842 0
 -20181829.474 7 -15611198.106 6  20112535.901 0  20112538.551 0
 88  3  3  7  4 29.0800000  0  4  6 13 11  9
  -1893051.196 7  -1475107.168 7  21387757.893 0  21387762.100 0
   -821520.798 7  54889382.558 5  21243302.103 0  21243307.460 0
  -7344661.767 7  -5567101.025 6  20989722.417 0  20989725.436 0
 -20198894.859 7 -15624495.801 7  20109288.744 0  20109291.086 0
 88  3  3  7  4 59.0800000  0  4  6 13 11  9
  -1823863.728 7  -1421194.893 8  21400923.175 0  21400928.255 0
   -869078.918 7  54852324.313 6  21234253.454 0  21234258.825 0
  -7303738.409 8  -5535212.685 6  20997508.764 0  20997512.511 0
 -20215352.641 6 -15637320.047 6  20106156.922 0  20106159.161 0
 88  3  3  7  5 29.0800000  0  4  6 13 11  9
  -1754151.894 7  -1366873.995 7  21414189.914 0  21414192.918 0
   -916191.306 7  54815613.404 7  21225288.821 0  21225292.506 0
  -7262490.973 7  -5503071.827 7  21005358.627 0  21005362.121 0
 -20231201.702 6 -15649669.980 7  20103140.792 0  20103143.768 0
 88  3  3  7  5 59.0800000  0  4  6 13 11  9
  -1683917.050 7  -1312145.554 7  21427554.725 0  21427558.746 0
   -962858.512 7  54779249.366 6  21216408.020 0  21216411.172 0
  -7220921.410 7  -5470679.955 6  21013267.913 0  21013271.871 0
 -20246440.498 7 -15661544.373 7  20100241.174 0  20100244.934 0
 88  3  3  7  6 29.0800000  0  4  6 13 11  9
  -1613160.220 7  -1257010.396 7  21441019.357 0  21441022.977 0
  -1009080.167 7  54743232.534 7  21207611.978 0  21207616.386 0
  -7179031.346 7  -5438038.335 6  21021239.793 0  21021243.979 0
 -20261066.820 7 -15672941.509 7  20097456.642 0  20097459.118 0
 88  3  3  7  6 59.0800000  0  4  6 13 11  9
  -1541883.724 7  -1201470.288 7  21454582.553 0  21454587.302 0
  -1054856.930 7  54707562.344 6  21198901.849 0  21198905.461 0
  -7136823.739 7  -5405149.296 6  21029272.233 0  21029275.067 0
 -20275079.355 7 -15683860.375 6  20094789.660 0  20094792.939 0
 88  3  3  7  7 29.0800000  0  4  6 13 11  9
  -1470088.008 7  -1145525.603 6  21468244.882 0  21468249.390 0
  -1100188.499 7  54672239.078 7  21190275.115 0  21190278.914 0
  -7094300.190 7  -5372014.055 6  21037364.279 0  21037368.325 0
 -20288476.742 6 -15694299.899 6  20092241.462 0  20092244.388 0
 88  3  3  7  7 59.0800000  0  4  6 13 11  9
  -1397776.136 7  -1089178.706 7  21482006.780 0  21482008.740 0
  -1145075.802 7  54637261.983 6  21181733.447 0  21181736.610 0
  -7051464.164 8  -5338635.341 7  21045515.877 0  21045519.287 0
 -20301258.078 7 -15704259.386 6  20089809.090 0  20089812.999 0
 88  3  3  7  8 29.0800000  0  4  6 13 11  9
  -1324948.555 7  -1032429.968 6  21495864.678 0  21495867.342 0
  -1189518.217 7  54602631.560 7  21173276.070 0  21173279.333 0
  -7008317.077 8  -5305014.233 6  21053725.901 0  21053729.615 0
 -20313421.304 6 -15713737.218 6  20087493.640 0  20087497.654 0
 88  3  3  7  8 59.0800000  0  4  6 13 11  9
  -1251607.816 7   -975281.351 7  21509820.968 0  21509824.388 0
  -1233516.704 8  54568347.039 7  21164903.731 0  21164907.651 0
  -6964861.972 7  -5271153.107 7  21061995.547 0  21061997.683 0
 -20324965.368 7 -15722732.615 7  20085297.766 0  20085301.502 0
 88  3  3  7  9 29.0800000  0  4  6 13 11  9
  -1177753.982 7   -917732.934 7  21523874.904 0  21523878.037 0
  -1277070.573 7  54534408.995 6  21156614.744 0  21156619.652 0
  -6921099.841 8  -5237052.745 7  21070322.153 0  21070326.557 0
 -20335888.252 7 -15731243.957 6  20083219.588 0  20083222.264 0
 88  3  3  7  9 59.0800000  0  4  6 13 11  9
  -1103389.060 7   -859786.268 7  21538026.429 0  21538030.425 0
  -1320180.070 8  54500817.204 6  21148412.811 0  21148416.532 0
  -6877033.314 7  -5202715.187 7  21078707.888 0  21078711.253 0
 -20346188.175 7 -15739269.865 6  20081258.894 0  20081262.815 0
 88  3  3  7 10 29.0800000  0  4  6 13 11  9
  -1028515.414 8   -801443.181 6  21552274.097 0  21552278.117 0
  -1362846.068 7  54467570.996 6  21140293.001 0  21140296.896 0
  -6832665.069 7  -5168142.526 7  21087152.174 0  21087154.756 0
 -20355864.753 6 -15746810.070 7  20079418.264 0  20079421.005 0
 88  3  3  7 10 59.0800000  0  4  6 13 11  9
   -953133.505 7   -742704.046 7  21566618.837 0  21566622.210 0
  -1405067.993 8  54434670.832 7  21132259.047 0  21132262.167 0
  -6787996.612 7  -5133335.937 7  21095651.360 0  21095654.964 0
 -20364915.534 6 -15753862.635 6  20077694.684 0  20077698.300 0
 88  3  3  7 11 29.0800000  0  4  6 13 11  9
   -877245.780 7   -683570.769 7  21581059.501 0  21581063.033 0
  -1446846.778 7  54402115.960 7  21124307.642 0  21124311.976 0
  -6743030.992 7  -5098297.800 7  21104207.968 0  21104212.351 0
 -20373340.002 6 -15760427.158 6  20076093.475 0  20076094.767 0
 88  3  3  7 11 59.0800000  0  4  6 13 11  9
   -800853.223 7   -624044.125 6  21595596.978 0  21595600.827 0
  -1488182.002 8  54369906.722 7  21116441.947 0  21116447.498 0
  -6697769.847 7  -5063029.370 7  21112820.579 0  21112824.993 0
 -20381136.102 6 -15766502.052 7  20074609.407 0  20074611.667 0
 88  3  3  7 12 29.0800000  0  4  6 13 11  9
   -723957.838 8   -564125.666 6  21610229.007 0  21610233.105 0
  -1529074.736 7  54338042.278 7  21108660.006 0  21108665.327 0
  -6652215.279 8  -5027532.296 7  21121489.769 0  21121493.902 0
 -20388302.671 7 -15772086.391 6  20073244.358 0  20073248.678 0
 88  3  3  7 12 59.0800000  0  4  6 13 11  9
   -646561.537 7   -503816.890 7  21624957.763 0  21624961.763 0
  -1569525.026 8  54306522.582 7  21100961.931 0  21100967.067 0
  -6606369.967 7  -4991808.690 7  21130214.512 0  21130217.980 0
 -20394839.098 6 -15777179.722 6  20072001.171 0  20072005.491 0
 88  3  3  7 13 29.0800000  0  4  6 13 11  9
   -568665.892 7   -443119.000 6  21639780.334 0  21639783.839 0
  -1609532.836 7  54275347.706 7  21093350.125 0  21093354.861 0
  -6560235.827 8  -4955859.998 7  21138992.374 0  21138997.086 0
 -20400743.607 7 -15781780.642 6  20070877.030 0  20070881.190 0
 88  3  3  7 13 59.0800000  0  4  6 13 11  9
   -490272.593 7   -382033.325 7  21654697.585 0  21654702.911 0
  -1649098.630 7  54244517.244 6  21085820.999 0  21085824.820 0
  -6513815.181 7  -4919688.069 7  21147825.412 0  21147830.147 0
 -20406014.920 7 -15785888.166 6  20069875.333 0  20069878.225 0
 88  3  3  7 14 29.0800000  0  4  6 13 11  9
   -411383.181 7   -320561.081 7  21669709.498 0  21669713.652 0
  -1688222.754 7  54214030.925 6  21078375.282 0  21078379.885 0
  -6467109.969 8  -4883294.396 7  21156714.188 0  21156717.712 0
 -20410651.996 6 -15789501.472 6  20068992.898 0  20068994.680 0
 88  3  3  7 14 59.0800000  0  4  6 13 11  9
   -331999.007 7   -258703.293 7  21684816.160 0  21684819.737 0
  -1726904.736 7  54183889.162 6  21071014.585 0  21071018.520 0
  -6420122.437 7  -4846680.729 7  21165654.667 0  21165659.126 0
 -20414653.060 6 -15792619.199 6  20068231.994 0  20068234.273 0
 88  3  3  7 15 29.0800000  0  4  6 13 11  9
   -252122.304 7   -196461.745 7  21700016.128 0  21700020.561 0
  -1765146.055 7  54154090.758 7  21063737.301 0  21063742.007 0
  -6372855.090 7  -4809849.039 7  21174650.219 0  21174654.265 0
 -20418017.364 7 -15795240.737 7  20067590.640 0  20067594.031 0
 88  3  3  7 15 59.0800000  0  4  6 13 11  9
   -171755.168 8   -133838.029 7  21715310.598 0  21715313.593 0
  -1802947.112 7  54124635.415 7  21056544.482 0  21056548.060 0
  -6325310.056 7  -4772800.960 7  21183697.790 0  21183701.395 0
 -20420744.006 7 -15797365.413 7  20067073.687 0  20067075.294 0
 88  3  3  7 16 29.0800000  0  4  6 13 11  9
    -90899.185 7    -70833.384 7  21730696.877 0  21730699.893 0
  -1840307.985 7  54095523.073 6  21049433.913 0  21049439.223 0
  -6277489.524 8  -4735538.207 7  21192796.826 0  21192801.930 0
 -20422831.761 6 -15798992.229 6  20066674.527 0  20066678.159 0
 88  3  3  7 16 59.0800000  0  4  6 13 11  9
     -9555.539 8     -7448.744 7  21746175.055 0  21746179.140 0
  -1877228.260 7  54066754.066 7  21042409.315 0  21042413.493 0
  -6229395.369 7  -4698062.248 7  21201949.838 0  21201953.509 0
 -20424278.948 6 -15800119.920 7  20066398.721 0  20066402.456 0
 88  3  3  7 17 29.0800000  0  4  6 13 11  9
     72273.648 8     56314.245 7  21761747.434 0  21761750.752 0
  -1913708.952 7  54038327.591 6  21035465.965 0  21035470.329 0
  -6181029.793 7  -4660374.790 6  21211153.177 0  21211158.114 0
 -20425084.795 6 -15800747.865 7  20066246.190 0  20066249.590 0
 88  3  3  7 17 59.0800000  0  4  6 13 11  9
    154586.493 7    120454.096 7  21777410.710 0  21777414.571 0
  -1949750.767 8  54010243.070 6  21028607.981 0  21028612.446 0
  -6132395.138 8  -4622477.648 7  21220408.268 0  21220412.212 0
 -20425248.294 6 -15800875.270 7  20066213.626 0  20066218.397 0
 88  3  3  7 18 29.0800000  0  4  6 13 11  9
    237380.529 8    184968.910 7  21793167.194 0  21793169.268 0
  -1985354.956 7  53982499.576 7  21021832.679 0  21021836.698 0
  -6083493.997 8  -4584372.870 7  21229713.767 0  21229716.777 0
 -20424769.099 6 -15800501.864 6  20066306.031 0  20066308.970 0
 88  3  3  7 18 59.0800000  0  4  6 13 11  9
    320653.816 8    249857.166 7  21809012.905 0  21809016.641 0
  -2020521.616 7  53955097.026 7  21015141.540 0  21015144.857 0
  -6034328.726 8  -4546062.270 7  21239069.309 0  21239074.318 0
 -20423646.061 6 -15799626.778 7  20066519.053 0  20066523.076 0
 88  3  3  7 19 29.0800000  0  4  6 13 11  9
    404404.977 7    315117.784 7  21824950.308 0  21824952.727 0
  -2055250.453 7  53928035.613 6  21008532.909 0  21008536.758 0
  -5984901.041 7  -4507547.195 7  21248475.612 0  21248480.097 0
 -20421878.012 6 -15798249.098 6  20066856.240 0  20066860.253 0
 88  3  3  7 19 59.0800000  0  4  6 13 11  9
    488631.450 7    380748.793 7  21840978.021 0  21840981.424 0
  -2089542.563 7  53901314.513 7  21002006.671 0  21002011.735 0
  -5935213.728 7  -4468829.807 7  21257930.268 0  21257934.369 0
 -20419464.415 7 -15796368.393 6  20067315.981 0  20067319.694 0
 88  3  3  7 20 29.0800000  0  4  6 13 11  9
    573331.617 7    446748.899 7  21857096.064 0  21857099.604 0
  -2123398.717 8  53874933.124 7  20995563.784 0  20995567.590 0
  -5885268.532 7  -4429911.475 7  21267435.515 0  21267438.776 0
 -20416404.065 7 -15793983.696 7  20067897.945 0  20067900.872 0
 88  3  3  7 20 59.0800000  0  4  6 13 11  9
    658503.526 8    513116.587 7  21873302.847 0  21873307.410 0
  -2156819.082 7  53848891.312 6  20989203.676 0  20989208.611 0
  -5835067.918 7  -4390794.124 7  21276987.367 0  21276991.707 0
 -20412696.331 7 -15791094.555 6  20068603.384 0  20068607.032 0
 88  3  3  7 21 29.0800000  0  4  6 13 11  9
    744143.882 8    579849.306 7  21889600.434 0  21889604.197 0
  -2189804.533 8  53823188.377 6  20982926.975 0  20982931.396 0
  -5784613.558 8  -4351479.027 7  21286589.239 0  21286593.158 0
 -20408340.027 6 -15787700.051 6  20069431.129 0  20069435.512 0
 88  3  3  7 21 59.0800000  0  4  6 13 11  9
    830253.222 8    646947.465 7  21905985.860 0  21905989.765 0
  -2222355.951 7  53797823.653 7  20976732.208 0  20976735.915 0
  -5733908.039 8  -4311968.230 7  21296238.300 0  21296240.894 0
 -20403334.735 7 -15783799.833 6  20070384.773 0  20070387.567 0
 88  3  3  7 22 29.0800000  0  4  6 13 11  9
    916827.696 7    714408.073 8  21922460.962 0  21922464.108 0
  -2254473.596 7  53772796.949 6  20970620.894 0  20970625.714 0
  -5682953.747 7  -4272263.593 7  21305933.838 0  21305938.377 0
 -20397679.777 6 -15779393.362 7  20071461.345 0  20071463.591 0
 88  3  3  7 22 59.0800000  0  4  6 13 11  9
   1003865.893 7    782230.035 7  21939023.612 0  21939027.925 0
  -2286157.815 7  53748107.974 6  20964591.554 0  20964596.306 0
  -5631752.603 7  -4232366.596 7  21315677.769 0  21315681.064 0
 -20391374.116 7 -15774479.877 7  20072661.685 0  20072664.043 0
 88  3  3  7 23 29.0800000  0  4  6 13 11  9
   1091365.431 8    850411.447 7  21955673.579 0  21955678.471 0
  -2317409.583 7  53723755.953 7  20958645.082 0  20958649.463 0
  -5580306.846 8  -4192278.988 7  21325467.826 0  21325471.626 0
 -20384417.099 6 -15769058.830 7  20073985.155 0  20073988.033 0
 88  3  3  7 23 59.0800000  0  4  6 13 11  9
   1179323.645 8    918950.302 8  21972412.070 0  21972415.231 0
  -2348229.828 7  53699740.201 7  20952779.428 0  20952783.920 0
  -5528619.343 7  -4152003.018 7  21335302.926 0  21335306.870 0
 -20376808.960 6 -15763130.430 7  20075433.257 0  20075435.999 0
 88  3  3  7 24 29.0800000  0  4  6 13 11  9
   1267738.618 8    987845.071 7  21989236.451 0  21989241.200 0
  -2378619.569 7  53676059.910 6  20946996.654 0  20947001.403 0
  -5476692.100 8  -4111540.239 7  21345184.521 0  21345188.103 0
 -20368549.008 6 -15756694.118 6  20077005.487 0  20077007.923 0
 88  3  3  7 24 59.0800000  0  4  6 13 11  9
   1356608.905 7   1057094.620 7  22006148.120 0  22006152.481 0
  -2408578.636 7  53652715.207 6  20941295.538 0  20941300.791 0
  -5424526.564 7  -4070891.776 7  21355112.194 0  21355115.032 0
 -20359635.444 6 -15749748.485 7  20078701.440 0  20078704.565 0
 88  3  3  7 25 29.0800000  0  4  6 13 11  9
   1445931.759 8   1126696.798 8  22023145.285 0  22023150.447 0
  -2438107.827 7  53629705.460 6  20935676.462 0  20935679.739 0
  -5372125.639 7  -4030059.890 7  21365082.144 0  21365086.359 0
 -20350068.735 6 -15742293.916 7  20080521.017 0  20080525.950 0
 88  3  3  7 25 59.0800000  0  4  6 13 11  9
   1535704.082 7   1196649.248 7  22040228.473 0  22040233.168 0
  -2467209.005 7  53607029.241 6  20930139.187 0  20930142.451 0
  -5319492.593 7  -3989047.131 7  21375098.102 0  21375102.168 0
 -20339848.995 6 -15734330.493 6  20082466.140 0  20082468.364 0
 88  3  3  7 26 29.0800000  0  4  6 13 11  9
   1625923.926 7   1266950.408 7  22057398.251 0  22057401.484 0
  -2495883.373 8  53584685.592 7  20924683.291 0  20924686.641 0
  -5266628.955 8  -3947854.682 7  21385158.049 0  21385161.567 0
 -20328975.609 6 -15725857.741 6  20084534.709 0  20084537.957 0
 88  3  3  7 26 59.0800000  0  4  6 13 11  9
   1716589.859 7   1337599.162 7  22074650.536 0  22074654.405 0
  -2524130.330 7  53562674.980 7  20919306.253 0  20919311.963 0
  -5213536.034 7  -3906483.585 6  21395260.747 0  21395266.138 0
 -20317447.238 7 -15716874.610 7  20086729.483 0  20086732.685 0
 88  3  3  7 27 29.0800000  0  4  6 13 11  9
   1807698.809 8   1408593.129 8  22091987.043 0  22091991.069 0
  -2551951.805 7  53540995.933 7  20914012.781 0  20914016.387 0
  -5160217.230 8  -3864936.461 7  21405407.960 0  21405411.315 0
 -20305264.403 6 -15707381.501 6  20089047.668 0  20089050.530 0
 88  3  3  7 27 59.0800000  0  4  6 13 11  9
   1899248.714 8   1479930.711 7  22109409.533 0  22109412.589 0
  -2579348.349 7  53519648.002 6  20908799.610 0  20908803.489 0
  -5106674.497 8  -3823214.868 7  21415596.583 0  21415600.265 0
 -20292426.526 7 -15697377.972 7  20091489.779 0  20091493.957 0
 88  3  3  7 28 29.0800000  0  4  6 13 11  9
   1991238.091 8   1551610.704 7  22126913.646 0  22126918.094 0
  -2606320.212 8  53498630.969 7  20903666.786 0  20903671.980 0
  -5052909.148 7  -3781319.791 7  21425827.028 0  21425831.624 0
 -20278932.332 6 -15686863.034 6  20094057.633 0  20094062.315 0
 88  3  3  7 28 59.0800000  0  4  6 13 11  9
   2083663.893 8   1623630.802 7  22144501.851 0  22144505.851 0
  -2632868.130 8  53477944.300 7  20898615.038 0  20898618.545 0
  -4998924.087 7  -3739253.505 7  21436099.693 0  21436103.285 0
 -20264782.357 6 -15675837.084 6  20096749.954 0  20096753.527 0
 88  3  3  7 29 29.0800000  0  4  6 13 11  9
   2176523.933 8   1695989.252 7  22162173.436 0  22162176.684 0
  -2658993.338 7  53457587.018 7  20893643.123 0  20893648.075 0
  -4944721.490 7  -3697017.728 8  21446414.687 0  21446419.363 0
 -20249976.104 7 -15664299.753 6  20099567.339 0  20099572.702 0
 88  3  3  7 29 59.0800000  0  4  6 13 11  9
   2269816.237 8   1768684.525 7  22179925.483 0  22179930.253 0
  -2684696.453 8  53437558.623 6  20888752.338 0  20888755.790 0
  -4890303.335 7  -3654613.987 7  21456769.469 0  21456774.618 0
 -20234513.095 6 -15652250.669 7  20102511.546 0  20102513.521 0
 88  3  3  7 30 29.0800000  0  4  6 13 11  9
   2363538.632 7   1841714.962 7  22197761.423 0  22197763.612 0
  -2709978.722 7  53417858.172 6  20883941.773 0  20883945.580 0
  -4835671.465 8  -3612043.690 7  21467166.605 0  21467171.559 0
 -20218392.938 7 -15639689.528 7  20105578.222 0  20105581.597 0
 88  3  3  7 30 59.0800000  0  4  6 13 11  9
   2457688.792 8   1915078.689 7  22215676.831 0  22215681.643 0
  -2734840.384 8  53398485.469 6  20879210.837 0  20879213.615 0
  -4780828.006 7  -3569308.542 7  21477603.274 0  21477607.150 0
 -20201615.155 6 -15626615.947 7  20108770.675 0  20108774.030 0
 88  3  3  7 31 29.0800000  0  4  6 13 11  9
   2552264.645 7   1988774.128 7  22233674.852 0  22233677.570 0
  -2759282.288 7  53379439.839 7  20874559.804 0  20874563.354 0
  -4725774.844 8  -3526409.981 7  21488078.460 0  21488082.530 0
 -20184179.507 7 -15613029.739 6  20112088.954 0  20112091.766 0
 88  3  3  7 31 59.0800000  0  4  6 13 11  9
   2647263.738 8   2062799.377 7  22251752.018 0  22251756.523 0
  -2783305.434 7  53360720.530 7  20869987.430 0  20869991.309 0
  -4670514.007 7  -3483349.588 7  21498594.630 0  21498598.740 0
 -20166085.941 6 -15598930.848 6  20115532.620 0  20115534.960 0
 88  3  3  7 32 29.0800000  0  4  6 13 11  9
   2742683.137 8   2137152.134 7  22269909.837 0  22269913.364 0
  -2806911.058 7  53342326.546 7  20865495.113 0  20865498.448 0
  -4615048.329 7  -3440129.585 7  21509149.246 0  21509154.880 0
 -20147334.832 6 -15584319.604 7  20119099.417 0  20119104.963 0
 88  3  3  7 32 59.0800000  0  4  6 13 11  9
   2838520.782 7   2211830.783 7  22288147.308 0  22288151.465 0
  -2830099.916 7  53324257.311 6  20861083.329 0  20861086.835 0
  -4559379.610 8  -3396751.362 8  21519742.562 0  21519747.354 0
 -20127925.606 6 -15569195.543 6  20122792.114 0  20122797.165 0
 88  3  3  7 33 29.0800000  0  4  6 13 11  9
   2934773.551 7   2286832.911 8  22306463.710 0  22306467.681 0
  -2852873.162 7  53306511.948 7  20856749.602 0  20856753.610 0
  -4503510.697 8  -3353217.148 7  21530373.920 0  21530378.936 0
 -20107858.797 6 -15553559.079 6  20126612.292 0  20126615.494 0
 88  3  3  7 33 59.0800000  0  4  6 13 11  9
   3031440.307 8   2362157.646 7  22324858.569 0  22324862.180 0
  -2875231.069 7  53289090.232 7  20852494.792 0  20852498.653 0
  -4447442.409 8  -3309527.583 8  21541043.894 0  21541048.565 0
 -20087133.300 6 -15537409.373 6  20130556.274 0  20130559.886 0
 88  3  3  7 34 29.0800000  0  4  6 13 11  9
   3128518.307 7   2437802.823 7  22343332.070 0  22343335.668 0
  -2897175.226 8  53271990.882 7  20848319.784 0  20848322.971 0
  -4391177.082 7  -3265684.482 7  21551750.881 0  21551755.520 0
 -20065749.394 6 -15520746.592 6  20134625.820 0  20134628.271 0
 88  3  3  7 34 59.0800000  0  4  6 13 11  9
   3226005.144 8   2513766.565 8  22361882.569 0  22361887.919 0
  -2918705.983 7  53255213.698 8  20844220.967 0  20844226.078 0
  -4334717.028 8  -3221689.627 7  21562494.891 0  21562499.863 0
 -20043707.153 6 -15503570.828 7  20138819.421 0  20138823.529 0
 88  3  3  7 35 29.0800000  0  4  6 13 11  9
   3323897.824 7   2590046.543 8  22380511.090 0  22380515.711 0
  -2939825.415 7  53238757.012 7  20840203.505 0  20840207.025 0
  -4278064.694 7  -3177544.949 7  21573276.433 0  21573278.965 0
 -20021006.918 7 -15485882.360 6  20143139.162 0  20143143.881 0
 88  3  3  7 35 59.0800000  0  4  6 13 11  9
   3422194.116 7   2666641.047 8  22399215.828 0  22399220.239 0
  -2960534.096 8  53222620.381 7  20836261.235 0  20836266.845 0
  -4221221.746 7  -3133251.744 7  21584092.655 0  21584096.147 0
 -19997648.618 6 -15467681.088 7  20147584.007 0  20147588.289 0
 88  3  3  7 36 29.0800000  0  4  6 13 11  9
   3520891.401 7   2743548.009 8  22417997.742 0  22418002.070 0
  -2980833.093 8  53206802.984 7  20832399.569 0  20832404.103 0
  -4164190.868 7  -3088812.104 7  21594945.243 0  21594949.072 0
 -19973632.661 6 -15448967.385 7  20152154.715 0  20152159.224 0
 88  3  3  7 36 59.0800000  0  4  6 13 11  9
   3619987.487 8   2820765.708 7  22436855.745 0  22436860.317 0
  -3000722.912 8  53191304.443 7  20828614.413 0  20828617.691 0
  -4106973.728 8  -3044227.326 7  21605833.091 0  21605837.325 0
 -19948958.766 6 -15429740.984 6  20156849.828 0  20156853.601 0
 88  3  3  7 37 29.0800000  0  4  6 13 11  9
   3719479.319 8   2898291.792 7  22455787.786 0  22455792.321 0
  -3020205.704 7  53176123.076 7  20824907.243 0  20824910.949 0
  -4049572.691 8  -2999499.242 7  21616756.158 0  21616760.141 0
 -19923627.702 7 -15410002.506 6  20161672.480 0  20161673.276 0
 88  3  3  7 37 59.0800000  0  4  6 13 11  9
   3819364.402 8   2976124.310 8  22474795.972 0  22474799.840 0
  -3039282.445 7  53161258.097 7  20821277.029 0  20821280.364 0
  -3991989.730 8  -2954629.401 7  21627714.002 0  21627717.188 0
 -19897639.638 7 -15389752.061 6  20166615.268 0  20166619.033 0
 88  3  3  7 38 29.0800000  0  4  6 13 11  9
   3919639.988 7   3054261.103 7  22493876.836 0  22493881.942 0
  -3057953.855 7  53146708.953 7  20817723.310 0  20817728.389 0
  -3934227.252 8  -2909619.682 7  21638705.572 0  21638710.229 0
 -19870994.806 7 -15368989.867 7  20171685.822 0  20171689.995 0
 88  3  3  7 38 59.0800000  0  4  6 13 11  9
   4020303.803 8   3132700.427 7  22513032.928 0  22513036.885 0
  -3076221.177 7  53132474.672 6  20814246.947 0  20814251.113 0
  -3876287.097 8  -2864471.511 7  21649732.524 0  21649735.224 0
 -19843693.357 6 -15347716.028 6  20176882.396 0  20176885.417 0
 88  3  3  7 39 29.0800000  0  4  6 13 11  9
   4121353.436 8   3211440.373 7  22532262.175 0  22532266.255 0
  -3094085.758 8  53118554.248 6  20810848.053 0  20810852.645 0
  -3818170.996 7  -2819186.233 7  21660789.962 0  21660794.496 0
 -19815735.382 6 -15325930.627 7  20182200.871 0  20182205.892 0
 88  3  3  7 39 59.0800000  0  4  6 13 11  9
   4222786.301 8   3290478.947 7  22551564.087 0  22551568.859 0
  -3111548.180 8  53104947.168 7  20807525.473 0  20807528.590 0
  -3759881.774 7  -2773766.058 6  21671882.182 0  21671886.528 0
 -19787121.251 6 -15303633.906 6  20187647.112 0  20187650.076 0
 88  3  3  7 40 29.0800000  0  4  6 13 11  9
   4324599.610 8   3369813.973 8  22570939.024 0  22570942.688 0
  -3128609.770 7  53091652.451 7  20804277.469 0  20804282.437 0
  -3701421.144 7  -2728212.328 7  21683006.798 0  21683011.410 0
 -19757851.432 6 -15280826.273 6  20193216.378 0  20193219.800 0
 88  3  3  7 40 59.0800000  0  4  6 13 11  9
   4426790.765 7   3449443.429 7  22590384.695 0  22590389.358 0
  -3145271.954 7  53078668.956 7  20801108.038 0  20801111.802 0
  -3642791.172 8  -2682526.635 7  21694163.990 0  21694168.226 0
 -19727926.344 7 -15257508.031 7  20198912.091 0  20198916.015 0
 88  3  3  7 41 29.0800000  0  4  6 13 11  9
   4529357.600 8   3529365.625 7  22609903.252 0  22609906.279 0
  -3161534.973 7  53065996.485 7  20798013.658 0  20798017.750 0
  -3583993.337 7  -2636710.143 7  21705352.524 0  21705357.184 0
 -19697346.201 7 -15233679.370 6  20204730.148 0  20204734.751 0
 88  3  3  7 41 59.0800000  0  4  6 13 11  9
   4632297.303 8   3609578.363 7  22629491.447 0  22629493.909 0
  -3177400.518 7  53053633.734 7  20794993.090 0  20794998.626 0
  -3525029.628 8  -2590764.402 8  21716573.582 0  21716577.345 0
 -19666111.239 7 -15209340.453 6  20210675.404 0  20210678.403 0
 88  3  3  7 42 29.0800000  0  4  6 13 11  9
   4735607.096 8   3690079.482 7  22649150.095 0  22649155.081 0
  -3192870.184 7  53041579.458 7  20792050.214 0  20792054.022 0
  -3465902.255 8  -2544691.126 8  21727824.652 0  21727828.291 0
 -19634222.447 7 -15184492.059 7  20216742.943 0  20216745.399 0
 88  3  3  7 42 59.0800000  0  4  6 13 11  9
   4839284.190 8   3770866.816 7  22668879.878 0  22668882.706 0
  -3207945.295 7  53029832.637 7  20789181.678 0  20789185.085 0
  -3406613.714 8  -2498492.271 7  21739108.223 0  21739111.314 0
 -19601680.360 6 -15159134.607 6  20222935.242 0  20222938.848 0
 88  3  3  7 43 29.0800000  0  4  6 13 11  9
   4943326.064 8   3851938.390 7  22688678.576 0  22688682.869 0
  -3222625.810 8  53018393.283 7  20786387.878 0  20786390.182 0
  -3347165.874 7  -2452169.279 7  21750420.833 0  21750424.018 0
 -19568485.400 7 -15133268.432 6  20229251.821 0  20229254.960 0
 88  3  3  7 43 59.0800000  0  4  6 13 11  9
   5047730.209 7   3933292.267 7  22708545.657 0  22708549.534 0
  -3236913.785 8  53007259.812 7  20783668.186 0  20783672.865 0
  -3287560.454 7  -2405723.504 7  21761762.605 0  21761766.073 0
 -19534637.953 7 -15106893.823 6  20235692.093 0  20235696.834 0
 88  3  3  7 44 29.0800000  0  4  3 13 11  9
          .326 7         -.233 7  24105976.491 0          .000 0
  -3250810.917 8  52996430.889 7  20781024.330 0  20781028.535 0
  -3227799.099 7  -2359156.211 7  21773134.852 0  21773139.020 0
 -19500138.361 7 -15080011.022 6  20242258.398 0  20242259.891 0
 88  3  3  7 44 59.0800000  0  4  3 13 11  9
    -77493.357 7  84321258.957 7  24091263.679 0  24091267.672 0
  -3264318.003 8  52985905.903 7  20778453.438 0  20778457.514 0
  -3167884.181 8  -2312469.263 7  21784536.229 0  21784539.714 0
 -19464987.639 7 -15052620.874 6  20248946.727 0  20248950.997 0
 88  3  3  7 45 29.0800000  0  4  3 13 11  9
   -154761.507 7  84261050.021 7  24076559.824 0  24076563.689 0
  -3277436.111 7  52975684.005 7  20775957.783 0  20775961.504 0
  -3107817.891 7  -2265664.366 7  21795966.086 0  21795970.604 0
 -19429186.520 7 -15024723.922 7  20255760.843 0  20255763.582 0
 88  3  3  7 45 59.0800000  0  4  3 13 11  9
   -231804.434 7  84201016.533 7  24061899.376 0  24061903.955 0
  -3290166.697 7  52965764.083 7  20773535.036 0  20773539.299 0
  -3047602.104 8  -2218742.979 7  21807424.385 0  21807429.021 0
 -19392736.052 7 -14996320.986 6  20262694.950 0  20262699.054 0
 88  3  3  7 46 29.0800000  0  4  3 13 11  9
   -308621.390 7  84141159.184 7  24047280.874 0  24047286.027 0
  -3302511.182 7  52956145.011 7  20771185.606 0  20771189.900 0
  -2987238.663 7  -2171706.539 7  21818911.557 0  21818915.545 0
 -19355636.661 6 -14967412.381 7  20269755.982 0  20269758.599 0
 88  3  3  7 46 59.0800000  0  4  3 13 11  9
   -385212.234 7  84081477.980 7  24032705.668 0  24032710.841 0
  -3314471.089 8  52946825.615 7  20768909.056 0  20768913.335 0
  -2926729.861 7  -2124556.835 8  21830426.640 0  21830430.156 0
 -19317888.821 6 -14937998.495 7  20276938.792 0  20276942.449 0
 88  3  3  7 47 29.0800000  0  4  3 13 11  9
   -461577.186 8  84021972.823 7  24018174.768 0  24018179.709 0
  -3326048.099 8  52937804.571 7  20766706.543 0  20766712.236 0
  -2866077.822 7  -2077295.507 7  21841967.729 0  21841971.906 0
 -19279494.260 7 -14908080.683 6  20284244.048 0  20284248.473 0
 88  3  3  7 47 59.0800000  0  4  3 13 11  9
   -537715.630 7  83962644.146 7  24003685.266 0  24003690.769 0
  -3337243.210 8  52929081.133 7  20764576.744 0  20764579.823 0
  -2805284.383 8  -2029923.995 7  21853536.550 0  21853540.380 0
 -19240453.536 7 -14877659.354 7  20291675.227 0  20291678.981 0
 88  3  3  7 48 29.0800000  0  4  3 13 11  9
   -613627.200 7  83903492.307 7  23989239.453 0  23989245.542 0
  -3348058.038 7  52920653.990 7  20762516.864 0  20762522.471 0
  -2744351.108 7  -1982443.526 7  21865131.836 0  21865135.728 0
 -19200766.951 6 -14846734.760 6  20299226.064 0  20299229.495 0
 88  3  3  7 48 59.0800000  0  4  3 13 11  9
   -689311.434 7  83844517.607 7  23974837.280 0  23974842.002 0
  -3358492.945 7  52912522.915 7  20760532.707 0  20760536.927 0
  -2683279.844 7  -1934855.530 8  21876753.944 0  21876756.890 0
 -19160435.534 6 -14815307.705 6  20306901.682 0  20306904.800 0
 88  3  3  7 49 29.0800000  0  4  3 13 11  9
   -764767.431 8  83785720.719 7  23960479.830 0  23960483.529 0
  -3368549.372 8  52904686.734 7  20758619.366 0  20758623.327 0
  -2622072.621 8  -1887161.587 8  21888400.318 0  21888404.866 0
 -19119460.014 6 -14783378.742 7  20314698.862 0  20314700.951 0
 88  3  3  7 49 59.0800000  0  4  3 13 11  9
   -839995.754 7  83727101.234 7  23946163.968 0  23946170.892 0
  -3378229.078 7  52897144.128 6  20756777.126 0  20756780.989 0
  -2560731.382 7  -1839363.219 7  21900073.704 0  21900076.944 0
 -19077841.538 7 -14750948.801 6  20322618.847 0  20322622.624 0
 88  3  3  7 50 29.0800000  0  4  3 13 11  9
   -914995.601 7  83668659.790 7  23931891.212 0  23931896.742 0
  -3387533.505 7  52889893.931 7  20755006.978 0  20755010.426 0
  -2499258.159 8  -1791462.017 6  21911771.084 0  21911775.722 0
 -19035581.290 6 -14718018.728 6  20330659.168 0  20330664.283 0
 88  3  3  7 50 59.0800000  0  4  3 13 11  9
   -989766.851 7  83610396.488 6  23917664.313 0  23917667.888 0
  -3396463.796 7  52882935.268 6  20753306.730 0  20753311.266 0
  -2437654.889 7  -1743459.471 7  21923494.665 0  21923497.666 0
 -18992680.074 6 -14684589.244 6  20338823.987 0  20338826.648 0
 88  3  3  7 51 29.0800000  0  4  3 13 11  9
  -1064309.192 7  83552311.555 7  23903478.235 0  23903483.450 0
  -3405021.560 7  52876266.886 7  20751679.088 0  20751683.021 0
  -2375923.245 7  -1695356.885 7  21935241.312 0  21935245.054 0
 -18949138.862 6 -14650661.057 6  20347109.918 0  20347113.412 0
 88  3  3  7 51 59.0800000  0  4  3 13 11  9
  -1138622.340 7  83494405.203 7  23889337.317 0  23889341.610 0
  -3413207.861 7  52869887.971 7  20750120.625 0  20750124.348 0
  -2314065.117 7  -1647155.756 8  21947012.826 0  21947016.303 0
 -18904958.838 6 -14616235.076 6  20355516.807 0  20355520.935 0
 88  3  3  7 52 29.0800000  0  4  3 13 11  9
  -1212705.675 7  83436677.929 7  23875239.834 0  23875244.643 0
  -3421023.549 7  52863797.833 6  20748634.557 0  20748636.993 0
  -2252082.224 7  -1598857.408 7  21958807.216 0  21958811.206 0
 -18860140.536 7 -14581311.742 6  20364045.552 0  20364047.988 0
 88  3  3  7 52 59.0800000  0  4  3 13 11  9
  -1286559.226 7  83379129.714 8  23861186.334 0  23861190.113 0
  -3428471.123 7  52857994.522 7  20747216.703 0  20747220.236 0
  -2189976.492 7  -1550463.331 7  21970625.254 0  21970630.379 0
 -18814685.602 7 -14545892.323 6  20372696.857 0  20372698.984 0
 88  3  3  7 53 29.0800000  0  4  3 13 11  9
  -1360183.035 7  83321760.513 7  23847175.351 0  23847180.910 0
  -3435552.383 7  52852476.678 7  20745868.603 0  20745873.368 0
  -2127750.047 7  -1501975.194 7  21982466.493 0  21982470.802 0
 -18768595.406 7 -14509977.900 6  20381466.112 0  20381468.827 0
 88  3  3  7 53 59.0800000  0  4  3 13 11  9
  -1433577.087 6  83264570.354 7  23833209.087 0  23833214.729 0
  -3442268.413 7  52847243.415 7  20744591.605 0  20744593.552 0
  -2065404.934 7  -1453394.590 7  21994330.618 0  21994335.056 0
 -18721871.092 7 -14473569.372 7  20390357.646 0  20390361.482 0
 88  3  3  7 54 29.0800000  0  4  3 13 11  9
  -1506740.577 7  83207559.847 7  23819286.577 0  23819291.702 0
  -3448620.102 8  52842294.053 7  20743381.990 0  20743385.883 0
  -2002942.316 7  -1404722.427 7  22006216.968 0  22006221.420 0
 -18674513.758 7 -14436667.560 6  20399369.950 0  20399372.592 0
 88  3  3  7 54 59.0800000  0  4  3 13 11  9
  -1579672.991 6  83150729.411 7  23805407.666 0  23805412.576 0
  -3454608.969 7  52837627.414 7  20742241.733 0  20742246.756 0
  -1940364.282 7  -1355960.326 7  22018124.955 0  22018129.427 0
 -18626524.122 7 -14399273.058 7  20408501.119 0  20408504.553 0
 88  3  3  7 55 29.0800000  0  4  3 13 11  9
  -1652374.480 6  83094078.923 7  23791572.509 0  23791577.998 0
  -3460236.151 7  52833242.620 7  20741171.104 0  20741176.598 0
  -1877672.371 7  -1307109.483 7  22030055.083 0  22030058.474 0
 -18577903.586 7 -14361386.932 7  20417754.231 0  20417757.130 0
 88  3  3  7 55 59.0800000  0  4  3 13 11  9
  -1724844.880 7  83037608.503 7  23777783.547 0  23777787.783 0
  -3465503.522 7  52829138.186 7  20740168.256 0  20740172.634 0
  -1814868.785 8  -1258171.634 7  22042005.862 0  22042009.850 0
 -18528653.701 7 -14323010.424 6  20427125.234 0  20427129.041 0
 88  3  3  7 56 29.0800000  0  4  3 13 11  9
  -1797084.223 6  82981318.082 7  23764033.795 0  23764041.021 0
  -3470412.288 7  52825313.172 6  20739235.352 0  20739239.757 0
  -1751955.211 7  -1209148.061 7  22053978.335 0  22053981.460 0
 -18478775.620 7 -14284144.399 6  20436616.813 0  20436620.067 0
 88  3  3  7 56 59.0800000  0  4  3 13 11  9
  -1869092.576 8  82925207.645 7  23750333.545 0  23750339.395 0
  -3474964.923 7  52821765.674 7  20738368.000 0  20738372.450 0
  -1688933.672 7  -1160040.373 7  22065971.336 0  22065974.771 0
 -18428271.308 7 -14244790.411 5  20446227.044 0  20446231.071 0
 88  3  3  7 57 29.0800000  0  4  3 13 11  9
  -1940869.607 7  82869277.505 7  23736675.213 0  23736679.568 0
  -3479162.847 7  52818494.582 7  20737569.788 0  20737572.564 0
  -1625805.798 7  -1110849.816 7  22077982.839 0  22077988.401 0
 -18377141.697 7 -14204949.161 6  20455958.296 0  20455961.598 0
 88  3  3  7 57 59.0800000  0  4  3 13 11  9
  -2012414.915 8  82813527.916 7  23723060.421 0  23723064.607 0
  -3483007.079 7  52815499.082 7  20736838.444 0  20736841.077 0
  -1562573.211 7  -1061577.676 7  22090016.154 0  22090021.323 0
 -18325388.105 7 -14164621.710 6  20465805.615 0  20465809.470 0
 88  3  3  7 58 29.0800000  0  4  3 13 11  9
  -2083728.286 8  82757959.048 7  23709489.567 0  23709494.834 0
  -3486498.503 7  52812778.483 7  20736174.125 0  20736177.958 0
  -1499237.728 8  -1012225.340 7  22102069.197 0  22102073.384 0
 -18273012.284 7 -14123809.410 6  20475773.197 0  20475775.448 0
 88  3  3  7 58 59.0800000  0  4  3 13 11  9
  -2154809.366 8  82702571.192 7  23695963.174 0  23695968.604 0
  -3489639.363 7  52810331.077 7  20735576.428 0  20735581.062 0
  -1435801.208 8   -962794.309 7  22114141.329 0  22114144.136 0
 -18220015.407 7 -14082513.137 6  20485858.528 0  20485860.168 0
 88  3  3  7 59 29.0800000  0  4  3 13 11  9
  -2225658.223 8  82647364.302 7  23682481.660 0  23682486.784 0
  -3492430.645 7  52808156.069 6  20735044.724 0  20735049.331 0
  -1372264.986 8   -913285.562 8  22126231.442 0  22126235.882 0
 -18166398.671 7 -14040733.878 6  20496060.517 0  20496065.020 0
 88  3  3  7 59 59.0800000  0  4  3 13 11  9
  -2296274.958 8  82592338.282 7  23669043.138 0  23669047.774 0
  -3494874.064 7  52806252.117 6  20734579.918 0  20734583.936 0
  -1308631.097 7   -863700.720 7  22138340.246 0  22138344.884 0
 -18112164.101 7 -13998473.194 6  20506381.450 0  20506384.872 0
 88  3  3  8  0 29.0800000  0  4  3 13 11  9
  -2366659.054 8  82537493.536 8  23655649.690 0  23655654.778 0
  -3496971.246 7  52804617.973 6  20734180.734 0  20734184.311 0
  -1244901.462 7   -814041.257 7  22150468.159 0  22150471.181 0
 -18057312.841 7 -13955731.968 7  20516819.297 0  20516822.766 0
 88  3  3  8  0 59.0800000  0  4  3 13 11  9
  -2436811.105 7  82482829.624 7  23642299.813 0  23642305.059 0
  -3498724.048 7  52803252.158 7  20733847.270 0  20733851.075 0
  -1181077.670 7   -764308.445 7  22162613.100 0  22162616.676 0
 -18001846.698 7 -13912511.610 6  20527373.636 0  20527377.565 0
 88  3  3  8  1 29.0800000  0  4  3 13 11  9
  -2506730.847 7  82428346.716 7  23628994.954 0  23628998.862 0
  -3500133.676 7  52802153.737 7  20733579.256 0  20733582.690 0
  -1117161.257 7   -714503.453 7  22174775.760 0  22174779.399 0
 -17945767.336 7 -13868813.419 6  20538045.151 0  20538049.310 0
 88  3  3  8  1 59.0800000  0  4  3 13 11  9
  -2576418.168 7  82374044.895 7  23615733.180 0  23615737.781 0
  -3501201.781 7  52801321.465 7  20733375.606 0  20733380.413 0
  -1053154.068 8   -664627.715 7  22186955.191 0  22186960.913 0
 -17889076.379 7 -13824638.681 7  20548832.962 0  20548836.428 0
 88  3  3  8  2 29.0800000  0  4  3 13 11  9
  -2645871.838 8  82319925.151 7  23602517.359 0  23602522.260 0
  -3501929.512 7  52800754.416 7  20733238.065 0  20733241.558 0
   -989056.747 7   -614681.769 7  22199152.778 0  22199157.173 0
 -17831774.531 7 -13779987.899 6  20559737.844 0  20559740.141 0
 88  3  3  8  2 59.0800000  0  4  3 13 11  9
  -2715092.225 7  82265987.226 7  23589344.780 0  23589349.718 0
  -3502317.690 7  52800451.942 7  20733162.957 0  20733166.975 0
   -924871.396 7   -564667.221 7  22211367.268 0  22211371.095 0
 -17773863.516 7 -13734862.445 7  20570757.257 0  20570760.849 0
 88  3  3  8  3 29.0800000  0  4  3 13 11  9
  -2784080.187 7  82212230.389 7  23576217.004 0  23576221.390 0
  -3502368.857 7  52800412.082 7  20733154.440 0  20733157.102 0
   -860600.640 8   -514586.119 7  22223597.667 0  22223601.970 0
 -17715346.472 6 -13689264.775 5  20581891.624 0  20581896.292 0
 88  3  3  8  3 59.0800000  0  4  3 13 11  9
  -2852835.097 7  82158655.142 7  23563131.532 0  23563137.737 0
  -3502084.361 7  52800633.774 7  20733208.255 0  20733211.160 0
   -796245.572 7   -464439.321 7  22235843.818 0  22235848.337 0
 -17656223.825 6 -13643195.205 6  20593143.879 0  20593147.176 0
 88  3  3  8  4 29.0800000  0  4  3 13 11  9
  -2921356.835 7  82105261.599 7  23550094.442 0  23550098.763 0
  -3501466.240 7  52801115.444 7  20733325.602 0  20733329.124 0
   -731807.778 7   -414228.053 7  22248105.536 0  22248110.232 0
 -17596497.699 7 -13596655.392 5  20604509.015 0  20604511.622 0
 88  3  3  8  4 59.0800000  0  4  3 13 11  9
  -2989645.666 7  82052049.553 7  23537098.902 0  23537104.447 0
  -3500515.964 7  52801855.930 7  20733506.026 0  20733510.649 0
   -667288.835 8   -363953.553 8  22260384.123 0  22260388.434 0
 -17536170.175 6 -13549646.935 6  20615989.299 0  20615991.982 0
 88  3  3  8  5 29.0800000  0  4  3 13 11  9
  -3057701.896 7  81999018.750 7  23524148.731 0  23524153.362 0
  -3499235.052 8  52802854.054 7  20733750.840 0  20733753.588 0
   -602690.445 7   -313617.169 7  22272675.625 0  22272680.631 0
 -17475242.872 7 -13502171.140 6  20627583.063 0  20627587.128 0
 88  3  3  8  5 59.0800000  0  4  3 13 11  9
  -3125525.411 8  81946169.269 7  23511241.389 0  23511247.178 0
  -3497625.135 8  52804108.540 6  20734056.627 0  20734059.575 0
   -538014.489 7   -263220.319 8  22284982.618 0  22284987.751 0
 -17413717.816 7 -13454229.566 6  20639290.987 0  20639295.316 0
 88  3  3  8  6 29.0800000  0  4  3 13 11  9
  -3193115.773 7  81893501.477 7  23498380.174 0  23498385.308 0
  -3495687.630 7  52805618.284 7  20734425.330 0  20734428.607 0
   -473262.272 7   -212764.049 7  22297304.985 0  22297309.634 0
 -17351596.763 7 -13405823.549 6  20651111.435 0  20651114.743 0
 88  3  3  8  6 59.0800000  0  4  3 13 11  9
  -3260473.471 7  81841014.979 7  23485561.855 0  23485566.748 0
  -3493424.360 7  52807381.879 7  20734856.091 0  20734860.059 0
   -408435.516 8   -162249.714 7  22309641.238 0  22309646.209 0
 -17288881.355 7 -13356954.424 6  20663046.484 0  20663049.212 0
 88  3  3  8  7 29.0800000  0  4  3 13 11  9
  -3327598.529 6  81788709.762 7  23472788.503 0  23472793.353 0
  -3490837.417 7  52809397.710 7  20735348.756 0  20735352.034 0
   -343535.939 8   -111678.613 7  22321992.090 0  22321995.562 0
 -17225573.694 6 -13307623.813 7  20675093.370 0  20675097.370 0
 88  3  3  8  7 59.0800000  0  4  3 13 11  9
  -3394490.628 7  81736586.059 7  23460059.559 0  23460065.069 0
  -3487927.468 8  52811665.194 7  20735902.851 0  20735904.854 0
   -278564.615 7    -61051.608 7  22334355.597 0  22334360.343 0
 -17161675.750 7 -13257833.228 6  20687252.824 0  20687257.009 0
 88  3  3  8  8 29.0800000  0  4  3 13 11  9
  -3461149.514 7  81684644.084 7  23447373.966 0  23447379.175 0
  -3484696.487 7  52814182.846 7  20736516.713 0  20736520.203 0
   -213523.469 8    -10370.213 7  22346732.420 0  22346736.833 0
 -17097189.435 7 -13207584.160 6  20699524.712 0  20699526.993 0
 88  3  3  8  8 59.0800000  0  4  3 13 11  9
  -3527575.804 7  81632883.363 7  23434733.468 0  23434739.291 0
  -3481146.112 8  52816949.380 7  20737191.435 0  20737196.656 0
   -148414.305 7     40364.208 7  22359121.670 0  22359126.709 0
 -17032116.413 7 -13156877.924 6  20711907.835 0  20711910.713 0
 88  3  3  8  9 29.0800000  0  4  3 13 11  9
  -3593769.791 6  81581303.639 6  23422138.028 0  23422142.546 0
  -3477278.431 7  52819963.166 7  20737928.340 0  20737932.662 0
    -83238.056 8     91150.882 7  22371525.710 0  22371528.474 0
 -16966459.357 7 -13105716.603 6  20724401.124 0  20724404.585 0
 88  3  3  8  9 59.0800000  0  4  3 13 11  9
  -3659731.339 7  81529905.035 7  23409586.733 0  23409589.411 0
  -3473094.688 8  52823223.219 7  20738724.817 0  20738728.280 0
    -17996.781 7    141988.232 8  22383940.222 0  22383944.597 0
 -16900219.806 6 -13054101.391 7  20737006.402 0  20737009.216 0
 88  3  3  8 10 29.0800000  0  4  3 13 11  9
  -3725460.397 7  81478687.588 7  23397078.195 0  23397082.797 0
  -3468596.204 7  52826728.537 6  20739580.564 0  20739583.628 0
     47308.126 8    192875.175 7  22396367.518 0  22396371.075 0
 -16833399.888 7 -13002033.920 6  20749722.180 0  20749724.474 0
 88  3  3  8 10 59.0800000  0  4  3 13 11  9
  -3790957.567 7  81427650.866 7  23384613.936 0  23384619.367 0
  -3463785.339 7  52830477.280 7  20740495.234 0  20740499.127 0
    112674.892 7    243810.319 7  22408805.820 0  22408809.925 0
 -16766002.154 7 -12949516.216 6  20762546.354 0  20762550.479 0
 88  3  3  8 11 29.0800000  0  4  3 13 11  9
  -3856222.895 7  81376794.770 7  23372195.103 0  23372199.165 0
  -3458663.913 7  52834467.994 7  20741469.389 0  20741474.667 0
    178101.967 7    294792.437 7  22421256.100 0  22421259.867 0
 -16698028.874 7 -12896550.039 6  20775482.753 0  20775485.033 0
 88  3  3  8 11 59.0800000  0  4  3 13 11  9
  -3921256.093 8  81326119.575 8  23359820.361 0  23359823.554 0
  -3453233.194 7  52838699.727 7  20742504.657 0  20742508.650 0
    243588.059 7    345820.568 7  22433717.315 0  22433721.583 0
 -16629481.670 7 -12843136.655 7  20788526.507 0  20788530.594 0
 88  3  3  8 12 29.0800000  0  4  3 13 11  9
  -3986057.360 7  81275625.102 6  23347487.963 0  23347492.249 0
  -3447494.331 7  52843171.583 7  20743594.846 0  20743599.580 0
    309131.837 7    396893.633 7  22446190.276 0  22446194.219 0
 -16560362.726 7 -12789277.746 6  20801679.996 0  20801681.979 0
 88  3  3  8 12 59.0800000  0  4  3 13 11  9
  -4050627.163 7  81225310.994 7  23335200.264 0  23335205.635 0
  -3441449.473 7  52847881.856 7  20744745.891 0  20744749.551 0
    374731.468 8    448010.229 7  22458673.376 0  22458677.685 0
 -16490674.188 7 -12734974.995 6  20814940.966 0  20814943.683 0
 88  3  3  8 13 29.0800000  0  4  3 13 11  9
  -4114964.211 7  81175178.255 7  23322957.531 0  23322961.340 0
  -3435099.093 7  52852830.225 6  20745953.926 0  20745958.248 0
    440386.766 7    499170.200 7  22471167.846 0  22471170.047 0
 -16420416.867 6 -12680229.050 6  20828309.990 0  20828312.343 0
 88  3  3  8 13 59.0800000  0  4  3 13 11  9
  -4179069.255 7  81125226.277 7  23310760.297 0  23310764.339 0
  -3428445.242 7  52858015.053 7  20747221.133 0  20747224.524 0
    506096.184 7    550372.336 7  22483671.698 0  22483675.872 0
 -16349593.777 7 -12625042.241 7  20841787.897 0  20841791.439 0
 88  3  3  8 14 29.0800000  0  4  3 13 11  9
  -4242942.405 8  81075455.012 7  23298604.774 0  23298609.202 0
  -3421489.627 7  52863435.020 7  20748545.346 0  20748547.092 0
    571857.904 7    601615.243 7  22496185.984 0  22496189.580 0
 -16278207.363 8 -12569416.491 7  20855371.826 0  20855374.852 0
 88  3  3  8 14 59.0800000  0  4  3 13 11  9
  -4306584.593 7  81025863.753 7  23286494.624 0  23286498.831 0
  -3414235.158 7  52869087.853 7  20749924.380 0  20749928.618 0
    637669.658 7    652897.117 7  22508708.915 0  22508712.989 0
 -16206260.843 7 -12513354.289 6  20869063.398 0  20869066.409 0
 88  3  3  8 15 29.0800000  0  4  3 13 11  9
  -4369996.095 6  80976452.206 7  23274426.622 0  23274430.366 0
  -3406682.638 8  52874972.949 7  20751361.952 0  20751366.631 0
    703530.243 8    704217.051 7  22521242.108 0  22521245.491 0
 -16133755.767 7 -12456856.850 6  20882859.647 0  20882864.490 0
 88  3  3  8 15 59.0800000  0  4  3 13 11  9
  -4433174.314 7  80927222.451 7  23262404.754 0  23262408.903 0
  -3398832.047 7  52881090.293 6  20752855.746 0  20752860.824 0
    769440.647 7    755575.800 7  22533783.894 0  22533788.512 0
 -16060692.296 7 -12399924.282 7  20896764.425 0  20896767.112 0
 88  3  3  8 16 29.0800000  0  4  3 13 11  9
  -4496122.039 7  80878172.298 7  23250425.215 0  23250430.106 0
  -3390687.002 7  52887437.095 7  20754406.231 0  20754409.651 0
    835397.483 7    806970.729 8  22546334.895 0  22546339.014 0
 -15987074.656 7 -12342559.901 6  20910773.080 0  20910776.242 0
 88  3  3  8 16 59.0800000  0  4  3 13 11  9
  -4558838.777 7  80829302.159 7  23238491.653 0  23238495.501 0
  -3382248.926 7  52894012.210 7  20756011.148 0  20756015.743 0
    901399.601 7    858400.950 7  22558894.952 0  22558900.568 0
 -15912905.121 7 -12284765.476 7  20924885.987 0  20924890.293 0
 88  3  3  8 17 29.0800000  0  4  3 13 11  9
  -4621325.161 6  80780611.520 7  23226600.940 0  23226604.582 0
  -3373519.254 7  52900814.563 7  20757673.389 0  20757677.067 0
    967445.410 7    909865.213 8  22571463.404 0  22571467.382 0
 -15838186.041 7 -12226542.851 7  20939105.194 0  20939109.109 0
 88  3  3  8 17 59.0800000  0  4  3 13 11  9
  -4683581.332 7  80732100.238 7  23214752.566 0  23214759.217 0
  -3364499.789 7  52907842.723 7  20759389.433 0  20759392.880 0
   1033533.396 7    961362.328 7  22584039.312 0  22584043.940 0
 -15762920.125 7 -12167894.104 6  20953426.993 0  20953431.782 0
 88  3  3  8 18 29.0800000  0  4  3 13 11  9
  -4745607.510 7  80683768.176 7  23202950.091 0  23202955.078 0
  -3355192.972 7  52915094.781 6  20761160.509 0  20761164.558 0
   1099662.410 8   1012891.431 7  22596622.934 0  22596626.896 0
 -15687109.321 7 -12108820.758 6  20967854.214 0  20967857.188 0
 88  3  3  8 18 59.0800000  0  4  3 13 11  9
  -4807404.217 7  80635614.924 7  23191190.533 0  23191195.738 0
  -3345599.927 7  52922569.884 7  20762985.572 0  20762990.094 0
   1165830.644 7   1064451.087 8  22609215.401 0  22609218.335 0
 -15610757.199 7 -12049325.606 7  20982383.331 0  20982386.978 0
 88  3  3  8 19 29.0800000  0  4  3 13 11  9
  -4868971.520 7  80587640.426 7  23179475.193 0  23179479.030 0
  -3335722.529 7  52930266.565 6  20764865.299 0  20764869.406 0
   1232037.056 7   1116040.485 7  22621812.967 0  22621817.276 0
 -15533865.482 6 -11989409.996 7  20997015.338 0  20997019.049 0
 88  3  3  8 19 59.0800000  0  4  3 13 11  9
  -4930310.338 7  80539843.961 7  23167803.729 0  23167807.757 0
  -3325563.149 7  52938182.969 6  20766797.926 0  20766801.975 0
   1298279.741 7   1167658.159 7  22634418.441 0  22634423.372 0
 -15456437.000 7 -11929076.139 6  21011749.945 0  21011753.748 0
 88  3  3  8 20 29.0800000  0  4  3 13 11  9
  -4991418.379 8  80492227.334 7  23156174.367 0  23156178.646 0
  -3315120.662 8  52946319.971 6  20768786.129 0  20768791.637 0
   1364560.028 7   1219305.115 8  22647031.602 0  22647036.487 0
 -15378471.980 7 -11868324.200 7  21026586.088 0  21026590.399 0
 88  3  3  8 20 59.0800000  0  4  3 13 11  9
  -5052298.632 7  80444788.192 7  23144590.124 0  23144591.535 0
  -3304399.826 7  52954673.880 7  20770826.546 0  20770828.782 0
   1430873.638 8   1270978.063 7  22659651.091 0  22659654.214 0
 -15299975.908 8 -11807158.433 7  21041522.804 0  21041526.954 0
 88  3  3  8 21 29.0800000  0  4  3 13 11  9
  -5112951.171 7  80397526.489 7  23133046.769 0  23133051.956 0
  -3293401.526 7  52963243.979 7  20772918.891 0  20772922.298 0
   1497220.077 7   1322676.565 7  22672275.453 0  22672280.416 0
 -15220950.214 7 -11745580.001 7  21056561.774 0  21056564.965 0
 88  3  3  8 21 59.0800000  0  4  3 13 11  9
  -5173375.846 7  80350442.355 7  23121548.753 0  23121552.781 0
  -3282127.350 7  52972029.052 8  20775063.769 0  20775066.961 0
   1563597.657 7   1374399.350 8  22684907.612 0  22684911.570 0
 -15141397.833 7 -11683591.146 6  21071699.561 0  21071703.473 0
 88  3  3  8 22 29.0800000  0  4  3 13 11  9
  -5233570.841 7  80303537.170 7  23110093.541 0  23110098.502 0
  -3270576.428 8  52981029.770 7  20777262.731 0  20777266.194 0
   1630007.954 7   1426147.606 8  22697544.558 0  22697548.962 0
 -15061318.483 7 -11621191.657 7  21086938.388 0  21086941.792 0
 88  3  3  8 22 59.0800000  0  4  3 13 11  9
  -5293539.547 7  80256808.329 7  23098681.918 0  23098686.245 0
  -3258754.377 8  52990241.764 7  20779511.022 0  20779515.942 0
   1696445.926 8   1477917.456 7  22710187.854 0  22710191.890 0
 -14980718.837 7 -11558386.758 6  21102276.094 0  21102279.753 0
 88  3  3  8 23 29.0800000  0  4  3 13 11  9
  -5353281.036 7  80210256.530 6  23087313.313 0  23087318.306 0
  -3246661.356 7  52999664.907 7  20781812.050 0  20781817.342 0
   1762912.015 7   1529709.206 7  22722836.285 0  22722839.429 0
 -14899599.750 7 -11495177.100 7  21117712.744 0  21117715.857 0
 88  3  3  8 23 59.0800000  0  4  3 13 11  9
  -5412793.375 7  80163883.295 6  23075990.020 0  23075994.784 0
  -3234296.657 7  53009299.741 7  20784165.627 0  20784169.547 0
   1829407.160 7   1581523.604 6  22735489.190 0  22735493.926 0
 -14817961.527 7 -11431562.905 7  21133248.438 0  21133249.786 0
 88  3  3  8 24 29.0800000  0  4  3 13 11  9
  -5472079.679 7  80117686.213 6  23064706.640 0  23064710.092 0
  -3221664.512 7  53019142.968 7  20786571.257 0  20786574.435 0
   1895927.618 7   1633357.710 7  22748147.195 0  22748152.410 0
 -14735809.319 7 -11367548.219 7  21148881.166 0  21148884.256 0
 88  3  3  8 24 59.0800000  0  4  3 13 11  9
  -5531140.018 7  80071665.162 7  23053468.458 0  23053472.672 0
  -3208766.737 7  53029193.182 7  20789023.594 0  20789028.030 0
   1962471.983 7   1685210.451 7  22760811.947 0  22760814.729 0
 -14653146.065 7 -11303135.330 7  21164610.958 0  21164614.850 0
 88  3  3  8 25 29.0800000  0  4  3 13 11  9
  -5589975.174 7  80025819.600 7  23042271.801 0  23042276.509 0
  -3195605.263 8  53039448.871 7  20791529.675 0  20791531.824 0
   2029038.806 7   1737080.680 7  22773477.998 0  22773482.207 0
 -14569974.629 7 -11238326.414 7  21180437.910 0  21180441.699 0
 88  3  3  8 25 59.0800000  0  4  3 13 11  9
  -5648585.518 7  79980149.234 6  23031120.416 0  23031122.608 0
  -3182182.316 7  53049908.329 7  20794082.950 0  20794088.359 0
   2095626.774 8   1788967.415 7  22786149.485 0  22786153.700 0
 -14486298.102 7 -11173123.945 7  21196360.960 0  21196364.684 0
 88  3  3  8 26 29.0800000  0  4  3 13 11  9
  -5706969.716 7  79934655.060 7  23020008.163 0  23020013.471 0
  -3168497.776 7  53060571.611 7  20796687.616 0  20796691.492 0
   2162236.208 7   1840870.865 7  22798824.404 0  22798828.668 0
 -14402117.265 7 -11107528.490 7  21212380.999 0  21212383.246 0
 88  3  3  8 26 59.0800000  0  4  3 13 11  9
  -5765128.703 7  79889336.375 7  23008941.010 0  23008946.011 0
  -3154553.243 7  53071437.484 7  20799340.913 0  20799343.850 0
   2228865.964 7   1892790.136 7  22811503.979 0  22811507.515 0
 -14317435.106 7 -11041542.410 7  21228493.893 0  21228498.511 0
 88  3  3  8 27 29.0800000  0  4  3 13 11  9
  -5823063.974 7  79844192.028 7  22997915.560 0  22997921.915 0
  -3140352.169 7  53082503.253 7  20802042.517 0  20802046.836 0
   2295513.683 7   1944723.416 7  22824186.584 0  22824190.979 0
 -14232255.554 8 -10975168.752 7  21244704.345 0  21244708.335 0
 88  3  3  8 27 59.0800000  0  4  3 13 11  9
  -5880774.849 7  79799222.523 7  22986934.837 0  22986938.408 0
  -3125894.769 7  53093768.777 7  20804794.255 0  20804797.250 0
   2362178.874 7   1996670.300 7  22836872.143 0  22836876.953 0
 -14146580.667 8 -10908409.127 7  21261007.061 0  21261010.940 0
 88  3  3  8 28 29.0800000  0  4  3 13 11  9
  -5938262.814 7  79754426.724 7  22975994.429 0  22975998.799 0
  -3111183.824 7  53105231.845 7  20807593.499 0  20807597.515 0
   2428859.958 7   2048629.582 7  22849561.604 0  22849566.234 0
 -14060413.711 7 -10841266.055 7  21277404.335 0  21277408.484 0
 88  3  3  8 28 59.0800000  0  4  3 13 11  9
  -5995527.578 8  79709804.849 7  22965098.385 0  22965101.189 0
  -3096220.272 7  53116891.754 7  20810441.287 0  20810445.651 0
   2495556.463 7   2100600.874 7  22862252.674 0  22862258.398 0
 -13973756.720 8 -10773741.150 7  21293894.474 0  21293898.337 0
 88  3  3  8 29 29.0800000  0  4  3 13 11  9
  -6052569.487 7  79665356.618 7  22954244.211 0  22954248.446 0
  -3081005.529 7  53128747.405 6  20813335.831 0  20813339.733 0
   2562266.920 7   2152583.022 7  22874946.663 0  22874952.270 0
 -13886612.804 7 -10705836.809 7  21310477.255 0  21310481.315 0
 88  3  3  8 29 59.0800000  0  4  3 13 11  9
  -6109389.570 7  79621081.247 7  22943431.590 0  22943436.207 0
  -3065542.121 8  53140796.809 7  20816278.466 0  20816283.044 0
   2628989.594 8   2204574.718 7  22887644.835 0  22887648.551 0
 -13798985.710 7 -10637555.969 7  21327152.641 0  21327155.928 0
 88  3  3  8 30 29.0800000  0  4  3 13 11  9
  -6165987.054 7  79576979.348 7  22932660.780 0  22932665.254 0
  -3049831.817 7  53153038.596 7  20819268.961 0  20819271.929 0
   2695724.103 7   2256575.625 7  22900344.059 0  22900347.758 0
 -13710877.353 8 -10568900.116 7  21343919.061 0  21343921.836 0
 88  3  3  8 30 59.0800000  0  4  3 13 11  9
  -6222362.965 7  79533050.072 7  22921932.685 0  22921937.707 0
  -3033875.961 8  53165471.736 7  20822304.748 0  20822308.168 0
   2762469.087 8   2308584.693 7  22913046.488 0  22913048.941 0
 -13622291.045 7 -10499871.840 7  21360777.407 0  21360780.526 0
 88  3  3  8 31 29.0800000  0  4  3 13 11  9
  -6278517.966 7  79489292.938 7  22911246.008 0  22911250.507 0
  -3017675.850 7  53178095.205 6  20825387.390 0  20825391.525 0
   2829223.971 8   2360601.489 7  22925747.539 0  22925751.894 0
 -13533228.882 8 -10430472.760 7  21377724.010 0  21377727.814 0
 88  3  3  8 31 59.0800000  0  4  3 13 11  9
  -6334451.587 7  79445708.322 7  22900602.214 0  22900606.627 0
  -3001232.905 8  53190907.882 6  20828517.160 0  20828520.656 0
   2895987.977 8   2412625.376 7  22938453.998 0  22938457.197 0
 -13443693.733 8 -10360705.132 6  21394761.619 0  21394765.797 0
 88  3  3  8 32 29.0800000  0  4  3 13 11  9
  -6390165.849 7  79402294.627 7  22890000.961 0  22890005.497 0
  -2984550.556 7  53203907.128 7  20831691.420 0  20831694.899 0
   2962758.631 7   2464654.447 7  22951158.690 0  22951163.240 0
 -13353689.782 7 -10290572.199 6  21411890.691 0  21411892.894 0
 88  3  3  8 32 59.0800000  0  4  3 13 11  9
  -6445662.916 7  79359050.165 7  22879439.159 0  22879444.261 0
  -2967631.605 8  53217090.720 7  20834910.610 0  20834913.961 0
   3029533.330 8   2516686.686 7  22963865.185 0  22963869.300 0
 -13263221.428 7 -10220077.385 7  21429105.509 0  21429108.481 0
 88  3  3  8 33 29.0800000  0  4  3 13 11  9
  -6500940.442 7  79315976.813 7  22868921.208 0  22868925.616 0
  -2950475.579 8  53230459.052 7  20838174.915 0  20838179.122 0
   3096313.618 7   2568723.263 7  22976573.600 0  22976578.169 0
 -13172289.305 7 -10149221.200 7  21446408.325 0  21446413.114 0
 88  3  3  8 33 59.0800000  0  4  3 13 11  9
  -6555999.835 7  79273073.405 7  22858445.226 0  22858447.831 0
  -2933084.965 7  53244010.190 7  20841485.285 0  20841488.643 0
   3163097.240 7   2620762.441 7  22989282.481 0  22989286.874 0
 -13080897.180 7 -10078006.585 7  21463800.199 0  21463804.235 0
 88  3  3  8 34 29.0800000  0  4  3 13 11  9
  -6610841.248 7  79230339.841 6  22848008.158 0  22848011.490 0
  -2915459.963 8  53257743.953 7  20844838.060 0  20844842.412 0
   3229884.465 7   2672804.423 7  23001990.474 0  23001995.432 0
 -12989046.968 7 -10006435.012 7  21481278.990 0  21481282.922 0
 88  3  3  8 34 59.0800000  0  4  3 13 11  9
  -6665465.073 7  79187775.848 7  22837612.244 0  22837616.729 0
  -2897603.050 7  53271658.438 7  20848236.156 0  20848240.429 0
   3296673.854 7   2724848.091 7  23014701.130 0  23014705.154 0
 -12896742.408 8  -9934509.386 7  21498843.037 0  21498846.827 0
 88  3  3  8 35 29.0800000  0  4  3 13 11  9
  -6719871.494 7  79145381.256 7  22827259.833 0  22827264.713 0
  -2879515.652 7  53285752.504 7  20851678.513 0  20851682.769 0
   3363465.143 8   2776893.251 7  23027411.012 0  23027415.294 0
 -12803985.504 8  -9862231.275 7  21516495.340 0  21516498.444 0
 88  3  3  8 35 59.0800000  0  4  3 13 11  9
  -6774061.395 7  79103155.394 7  22816947.097 0  22816952.435 0
  -2861199.397 8  53300024.927 7  20855164.886 0  20855167.858 0
   3430256.873 7   2828938.737 8  23040121.334 0  23040125.426 0
 -12710779.735 7  -9789603.431 7  21534230.838 0  21534235.530 0
 88  3  3  8 36 29.0800000  0  4  3 13 11  9
  -6828035.282 7  79061097.832 7  22806676.682 0  22806680.573 0
  -2842656.467 7  53314473.960 7  20858693.567 0  20858695.335 0
   3497047.706 8   2880983.534 7  23052830.548 0  23052835.133 0
 -12617128.528 7  -9716628.482 7  21552052.190 0  21552056.210 0
 88  3  3  8 36 59.0800000  0  4  3 13 11  9
  -6881792.792 7  79019208.888 6  22796447.168 0  22796451.046 0
  -2823887.638 8  53329099.029 7  20862264.209 0  20862268.327 0
   3563837.505 7   2933027.524 7  23065542.358 0  23065545.428 0
 -12523034.020 7  -9643308.099 7  21569958.225 0  21569960.742 0
 88  3  3  8 37 29.0800000  0  4  3 13 11  9
  -6935334.269 7  78977488.267 7  22786258.486 0  22786263.523 0
  -2804894.432 7  53343898.938 6  20865878.385 0  20865882.625 0
   3630625.190 7   2985069.876 7  23078248.996 0  23078254.252 0
 -12428499.407 7  -9569644.773 7  21587947.712 0  21587950.929 0
 88  3  3  8 37 59.0800000  0  4  3 13 11  9
  -6988662.229 7  78935934.060 7  22776111.151 0  22776115.397 0
  -2785680.350 8  53358870.957 7  20869534.996 0  20869538.462 0
   3697408.293 7   3037108.665 7  23090958.535 0  23090962.135 0
 -12333529.096 8  -9495641.937 7  21606019.904 0  21606022.123 0
 88  3  3  8 38 29.0800000  0  4  3 13 11  9
  -7041776.848 7  78894546.074 7  22766002.570 0  22766007.657 0
  -2766246.205 8  53374014.438 6  20873233.288 0  20873236.942 0
   3764186.839 8   3089143.866 7  23103665.689 0  23103670.361 0
 -12238125.802 8  -9421301.706 7  21624173.860 0  21624177.208 0
 88  3  3  8 38 59.0800000  0  4  3 13 11  9
  -7094677.037 7  78853325.172 7  22755937.090 0  22755941.118 0
  -2746592.346 8  53389329.138 6  20876973.522 0  20876976.942 0
   3830960.723 7   3141175.468 7  23116372.595 0  23116377.345 0
 -12142291.391 7  -9346625.544 7  21642412.297 0  21642414.039 0
 88  3  3  8 39 29.0800000  0  4  3 13 11  9
  -7147364.104 7  78812270.308 7  22745911.440 0  22745915.024 0
  -2726721.775 8  53404812.705 7  20880754.086 0  20880760.009 0
   3897728.791 8   3193202.517 7  23129077.651 0  23129082.796 0
 -12046029.628 7  -9271616.383 6  21660729.521 0  21660732.882 0
 88  3  3  8 39 59.0800000  0  4  3 13 11  9
  -7199838.773 7  78771380.989 6  22735924.473 0  22735929.225 0
  -2706635.396 8  53420464.431 7  20884577.777 0  20884580.443 0
   3964489.804 7   3245224.075 7  23141781.742 0  23141786.386 0
 -11949343.415 7  -9196276.488 7  21679128.362 0  21679131.709 0
 88  3  3  8 40 29.0800000  0  4  3 13 11  9
  -7252101.745 7  78730656.631 7  22725979.548 0  22725983.169 0
  -2686335.529 8  53436282.514 7  20888439.348 0  20888443.626 0
   4031242.235 7   3297238.954 7  23154485.071 0  23154488.627 0
 -11852236.554 8  -9120608.803 7  21697607.368 0  21697610.214 0
 88  3  3  8 40 59.0800000  0  4  3 13 11  9
  -7304152.955 7  78690097.266 7  22716075.158 0  22716079.119 0
  -2665822.862 8  53452266.425 7  20892343.245 0  20892346.696 0
   4097986.531 7   3349247.491 7  23167185.871 0  23167190.153 0
 -11754710.941 8  -9044614.821 7  21716165.359 0  21716168.988 0
 88  3  3  8 41 29.0800000  0  4  3 13 11  9
  -7355993.161 7  78649702.310 7  22706209.995 0  22706213.495 0
  -2645100.012 8  53468414.095 7  20896286.475 0  20896290.598 0
   4164721.464 8   3401248.709 8  23179884.410 0  23179889.177 0
 -11656770.281 8  -8968297.428 7  21734803.307 0  21734806.282 0
 88  3  3  8 41 59.0800000  0  4  3 13 11  9
  -7407622.953 7  78609471.347 6  22696384.924 0  22696387.771 0
  -2624167.584 7  53484725.089 7  20900269.125 0  20900273.454 0
   4231446.109 7   3453241.935 7  23192582.265 0  23192586.942 0
 -11558417.409 8  -8891658.829 7  21753518.729 0  21753522.260 0
 88  3  3  8 42 29.0800000  0  4  3 13 11  9
  -7459042.472 7  78569404.184 7  22686600.676 0  22686604.310 0
  -2603027.534 8  53501197.844 7  20904293.196 0  20904296.060 0
   4298160.141 7   3505226.887 7  23205276.712 0  23205282.037 0
 -11459655.979 8  -8814701.893 7  21772312.763 0  21772315.881 0
 88  3  3  8 42 59.0800000  0  4  3 13 11  9
  -7510252.414 7  78529500.364 7  22676853.553 0  22676859.352 0
  -2581681.209 7  53517831.352 7  20908354.650 0  20908357.696 0
   4364862.501 7   3557202.743 7  23217969.509 0  23217974.957 0
 -11360488.315 8  -8737428.389 7  21791183.322 0  21791186.084 0
 88  3  3  8 43 29.0800000  0  4  3 13 11  9
  -7561254.216 7  78489758.724 7  22667150.376 0  22667155.391 0
  -2560130.959 7  53534623.754 7  20912455.103 0  20912459.804 0
   4431551.929 8   3609168.513 7  23230661.296 0  23230666.077 0
 -11260918.523 7  -8659841.553 7  21810130.265 0  21810134.514 0
 88  3  3  8 43 59.0800000  0  4  3 13 11  9
  -7612047.981 8  78450179.179 7  22657484.024 0  22657487.544 0
  -2538377.882 8  53551574.210 7  20916594.976 0  20916599.374 0
   4498227.633 7   3661123.615 7  23243349.114 0  23243353.200 0
 -11160949.313 8  -8581943.502 7  21829154.105 0  21829157.925 0
 88  3  3  8 44 29.0800000  0  4  3 13 11  9
  -7662634.065 7  78410761.484 6  22647857.870 0  22647861.546 0
  -2516423.791 7  53568681.311 7  20920772.121 0  20920776.490 0
   4564889.324 7   3713067.773 7  23256033.563 0  23256039.558 0
 -11060583.885 7  -8503736.687 7  21848253.814 0  21848257.373 0
 88  3  3  8 44 59.0800000  0  4  3 13 11  9
  -7713013.353 8  78371504.903 7  22638271.932 0  22638274.730 0
  -2494270.316 7  53585943.763 7  20924989.002 0  20924992.503 0
   4631535.930 7   3765000.172 8  23268715.969 0  23268720.953 0
 -10959825.603 7  -8425223.753 7  21867427.327 0  21867429.945 0
 88  3  3  8 45 29.0800000  0  4  3 13 11  9
  -7763186.522 8  78332408.912 7  22628722.779 0  22628727.157 0
  -2471919.024 7  53603360.361 8  20929242.265 0  20929246.222 0
   4698166.491 7   3816920.082 7  23281396.692 0  23281400.860 0
 -10858677.707 7  -8346407.213 7  21886674.506 0  21886678.911 0
 88  3  3  8 45 59.0800000  0  4  3 13 11  9
  -7813153.768 7  78293473.425 6  22619214.643 0  22619218.714 0
  -2449370.979 8  53620930.266 7  20933532.253 0  20933536.779 0
   4764780.937 7   3868827.441 7  23294072.430 0  23294076.482 0
 -10757143.274 7  -8267289.516 7  21905995.806 0  21905999.025 0
 88  3  3  8 46 29.0800000  0  4  3 13 11  9
  -7862915.461 7  78254698.091 7  22609745.806 0  22609749.618 0
  -2426627.603 7  53638652.381 7  20937860.475 0  20937864.003 0
   4831378.553 7   3920721.675 7  23306745.332 0  23306749.827 0
 -10655224.942 7  -8187872.647 7  21925390.341 0  21925393.760 0
 88  3  3  8 46 59.0800000  0  4  3 13 11  9
  -7912472.745 7  78216082.039 6  22600314.459 0  22600318.759 0
  -2403691.258 8  53656524.852 6  20942225.220 0  20942228.392 0
   4897958.180 8   3972601.887 8  23319414.899 0  23319419.815 0
 -10552926.648 8  -8108159.727 7  21944857.537 0  21944862.258 0
 88  3  3  8 47 29.0800000  0  4  3 13 11  9
  -7961826.236 7  78177624.804 6  22590924.050 0  22590927.434 0
  -2380563.200 7  53674546.718 7  20946626.568 0  20946629.737 0
   4964519.255 7   4024467.631 7  23332080.801 0  23332085.662 0
 -10450251.504 7  -8028153.139 7  21964396.394 0  21964400.099 0
 88  3  3  8 47 59.0800000  0  4  3 13 11  9
  -8010976.047 7  78139326.264 6  22581570.680 0  22581573.179 0
  -2357244.736 7  53692716.957 7  20951063.808 0  20951067.001 0
   5031061.164 7   4076318.479 7  23344743.684 0  23344747.997 0
 -10347202.562 7  -7947855.290 7  21984005.509 0  21984008.384 0
 88  3  3  8 48 29.0800000  0  4  3 13 11  9
  -8059923.243 8  78101185.601 7  22572256.140 0  22572260.483 0
  -2333737.829 7  53711034.026 7  20955536.679 0  20955540.175 0
   5097582.933 7   4128153.615 7  23357403.171 0  23357406.415 0
 -10243783.017 8  -7867268.667 6  22003685.484 0  22003688.243 0
 88  3  3  8 48 59.0800000  0  4  3 13 11  9
  -8108668.111 7  78063202.611 7  22562980.048 0  22562984.433 0
  -2310044.103 7  53729496.675 7  20960046.021 0  20960049.180 0
   5164084.248 7   4179972.810 7  23370058.245 0  23370061.048 0
 -10139996.146 7  -7786395.808 7  22023436.345 0  22023439.449 0
 88  3  3  8 49 29.0800000  0  4  3 13 11  9
  -8157212.481 7  78025375.849 7  22553743.587 0  22553746.390 0
  -2286165.455 8  53748103.403 7  20964589.584 0  20964593.248 0
   5230563.748 7   4231774.997 7  23382708.299 0  23382712.029 0
 -10035846.304 8  -7705240.126 7  22043254.547 0  22043258.308 0
 88  3  3  8 49 59.0800000  0  4  3 13 11  9
  -8205556.927 8  77987704.862 7  22544543.575 0  22544546.660 0
  -2262103.549 8  53766852.946 7  20969167.444 0  20969171.379 0
   5297020.748 7   4283559.659 7  23395354.841 0  23395359.111 0
  -9931336.483 7  -7623803.915 7  22063143.291 0  22063145.738 0
 88  3  3  8 50 29.0800000  0  4  3 13 11  9
  -8253700.900 8  77950190.111 7  22535381.728 0  22535385.641 0
  -2237858.970 8  53785744.827 7  20973781.993 0  20973786.821 0
   5363455.149 7   4335326.722 7  23407996.370 0  23408001.184 0
  -9826469.278 8  -7542089.212 6  22083097.916 0  22083101.277 0
 88  3  3  8 50 59.0800000  0  4  3 13 11  9
  -8301645.294 7  77912830.858 7  22526257.399 0  22526261.234 0
  -2213433.774 8  53804777.454 7  20978430.049 0  20978433.416 0
   5429866.354 7   4387075.700 7  23420633.270 0  23420638.200 0
  -9721248.213 8  -7460098.793 7  22103121.168 0  22103124.500 0
 88  3  3  8 51 29.0800000  0  4  3 13 11  9
  -8349390.669 7  77875626.699 7  22517172.428 0  22517175.904 0
  -2188828.365 8  53823950.498 7  20983112.796 0  20983115.482 0
   5496254.372 6   4438806.617 7  23433266.375 0  23433272.248 0
  -9615675.856 7  -7377834.649 7  22123210.985 0  22123214.635 0
 88  3  3  8 51 59.0800000  0  4  3 13 11  9
  -8396936.472 7  77838578.039 7  22508124.153 0  22508129.166 0
  -2164044.108 7  53843262.923 7  20987828.584 0  20987832.456 0
   5562618.994 7   4490519.288 7  23445896.345 0  23445900.752 0
  -9509754.783 7  -7295298.799 7  22143366.797 0  22143370.574 0
 88  3  3  8 52 29.0800000  0  4  3 13 11  9
  -8444284.334 7  77801683.633 6  22499114.334 0  22499117.875 0
  -2139083.041 8  53862713.104 7  20992579.179 0  20992581.601 0
   5628959.129 7   4542212.895 8  23458520.108 0  23458524.996 0
  -9403489.573 7  -7212494.763 7  22163588.261 0  22163591.938 0
 88  3  3  8 52 59.0800000  0  4  3 13 11  9
  -8491435.505 7  77764942.499 7  22490140.980 0  22490145.424 0
  -2113947.234 7  53882299.448 7  20997361.346 0  20997365.899 0
   5695273.397 7   4593886.308 7  23471139.078 0  23471144.015 0
  -9296883.060 7  -7129424.768 7  22183874.686 0  22183878.206 0
 88  3  3  8 53 29.0800000  0  4  3 13 11  9
  -8538390.364 7  77728354.319 7  22481206.279 0  22481210.776 0
  -2088638.254 8  53902020.713 7  21002177.506 0  21002181.100 0
   5761561.664 7   4645539.496 7  23483752.991 0  23483758.287 0
  -9189939.034 7  -7046091.809 7  22204225.677 0  22204228.851 0
 88  3  3  8 53 59.0800000  0  4  3 13 11  9
  -8585149.868 7  77691918.367 6  22472309.334 0  22472311.902 0
  -2063157.516 8  53921875.833 7  21007026.319 0  21007030.504 0
   5827822.909 7   4697171.646 7  23496362.281 0  23496366.607 0
  -9082661.197 7  -6962498.708 7  22224640.487 0  22224643.147 0
 88  3  3  8 54 29.0800000  0  4  3 13 11  9
  -8631714.910 7  77655633.947 7  22463447.951 0  22463450.534 0
  -2037506.771 7  53941863.440 7  21011907.019 0  21011911.322 0
   5894056.549 7   4748782.249 7  23508965.971 0  23508970.626 0
  -8975052.844 8  -6878648.075 7  22245117.539 0  22245120.427 0
 88  3  3  8 54 59.0800000  0  4  3 13 11  9
  -8678085.480 7  77619501.036 6  22454622.858 0  22454627.337 0
  -2011686.553 8  53961983.093 7  21016821.460 0  21016824.962 0
   5960262.880 8   4800371.584 7  23521565.843 0  23521569.612 0
  -8867116.552 7  -6794541.906 7  22265656.237 0  22265661.072 0
 88  3  3  8 55 29.0800000  0  4  3 13 11  9
  -8724262.819 7  77583518.746 7  22445835.980 0  22445840.445 0
  -1985698.695 8  53982233.358 7  21021766.712 0  21021770.279 0
   6026440.722 8   4851938.731 7  23534158.400 0  23534162.879 0
  -8758856.406 7  -6710183.406 8  22286257.410 0  22286261.541 0
 88  3  3  8 55 59.0800000  0  4  3 13 11  9
  -8770247.731 7  77547686.365 6  22437085.117 0  22437089.297 0
  -1959545.143 8  54002612.755 7  21026743.242 0  21026746.453 0
   6092589.361 7   4903483.147 7  23546745.747 0  23546750.495 0
  -8650275.763 7  -6625575.123 7  22306920.479 0  22306923.441 0
 88  3  3  8 56 29.0800000  0  4  3 13 11  9
  -8816040.797 7  77512003.477 7  22428370.918 0  22428375.246 0
  -1933227.301 8  54023120.158 7  21031751.397 0  21031755.128 0
   6158708.474 7   4955004.520 7  23559328.316 0  23559331.852 0
  -8541377.994 7  -6540719.757 7  22327641.737 0  22327646.756 0
 88  3  3  8 56 59.0800000  0  4  3 13 11  9
  -8861642.430 7  77476469.796 7  22419692.370 0  22419698.159 0
  -1906746.295 8  54043754.699 7  21036791.186 0  21036793.506 0
   6224797.084 7   5006502.110 7  23571906.000 0  23571908.157 0
  -8432165.788 8  -6455619.367 6  22348424.806 0  22348428.370 0
 88  3  3  8 57 29.0800000  0  4  3 13 11  9
  -8907053.218 7  77441084.777 7  22411052.090 0  22411055.926 0
  -1880103.610 8  54064515.224 7  21041859.828 0  21041864.954 0
   6290855.356 7   5057976.064 7  23584475.556 0  23584478.447 0
  -8322643.037 8  -6370276.976 7  22369267.175 0  22369270.363 0
 88  3  3  8 57 59.0800000  0  4  3 13 11  9
  -8952273.720 7  77405848.053 7  22402446.607 0  22402451.501 0
  -1853300.809 7  54085400.536 7  21046961.543 0  21046964.235 0
   6356883.064 7   5109426.194 7  23597039.855 0  23597044.526 0
  -8212812.837 8  -6284695.021 8  22390166.892 0  22390170.169 0
 88  3  3  8 58 29.0800000  0  4  3 13 11  9
  -8997304.968 7  77370758.808 7  22393878.177 0  22393881.594 0
  -1826339.201 8  54106409.579 6  21052092.075 0  21052095.291 0
   6422879.523 8   5160852.015 7  23609598.397 0  23609602.964 0
  -8102678.591 8  -6198876.166 7  22411124.677 0  22411128.083 0
 88  3  3  8 58 59.0800000  0  4  3 13 11  9
  -9042147.722 7  77335816.453 7  22385344.081 0  22385348.725 0
  -1799220.140 8  54127541.310 7  21057252.165 0  21057255.034 0
   6488844.113 7   5212252.986 7  23622151.745 0  23622155.981 0
  -7992243.893 8  -6112823.171 7  22432139.498 0  22432143.202 0
 88  3  3  8 59 29.0800000  0  4  3 13 11  9
  -9086802.990 7  77301020.174 7  22376847.081 0  22376850.987 0
  -1771945.269 8  54148794.450 7  21062442.367 0  21062446.341 0
   6554776.564 7   5263628.891 7  23634697.891 0  23634701.732 0
  -7881511.708 8  -6026538.378 7  22453211.215 0  22453215.534 0
 88  3  3  8 59 59.0800000  0  4  3 13 11  9
  -9131271.009 8  77266369.790 6  22368384.918 0  22368389.187 0
  -1744515.736 8  54170168.099 6  21067661.863 0  21067665.308 0
   6620676.024 7   5314979.105 7  23647237.897 0  23647242.145 0
  -7770485.907 8  -5940024.803 7  22474338.964 0  22474342.382 0
 88  3  3  9  0 29.0800000  0  4  3 13 11  9
  -9175552.617 7  77231864.675 7  22359958.355 0  22359962.598 0
  -1716932.850 7  54191661.248 6  21072910.943 0  21072913.573 0
   6686542.594 7   5366303.701 7  23659772.471 0  23659776.094 0
  -7659169.770 8  -5853284.967 7  22495521.432 0  22495526.267 0
 88  3  3  9  0 59.0800000  0  4  3 13 11  9
  -9219648.607 7  77197504.192 6  22351568.366 0  22351572.430 0
  -1689198.505 8  54213272.438 7  21078188.615 0  21078191.956 0
   6752375.553 7   5417602.096 7  23672300.110 0  23672304.139 0
  -7547566.174 8  -5766321.168 7  22516758.447 0  22516762.495 0
 88  3  3  9  1 29.0800000  0  4  3 13 11  9
  -9263559.687 7  77163287.792 6  22343210.968 0  22343215.069 0
  -1661313.958 7  54235000.655 7  21083494.934 0  21083498.046 0
   6818174.633 7   5468874.108 7  23684820.949 0  23684824.756 0
  -7435679.341 7  -5679136.643 7  22538051.582 0  22538054.829 0
 88  3  3  9  1 59.0800000  0  4  3 13 11  9
  -9307286.236 7  77129215.200 7  22334890.772 0  22334894.228 0
  -1633280.561 7  54256844.856 7  21088829.337 0  21088833.082 0
   6883939.451 7   5520119.397 7  23697335.037 0  23697339.453 0
  -7323511.951 7  -5591733.506 7  22559395.516 0  22559398.619 0
 88  3  3  9  2 29.0800000  0  4  3 13 11  9
  -9350828.891 7  77095285.882 7  22326603.825 0  22326608.275 0
  -1605099.479 8  54278804.131 6  21094192.400 0  21094195.856 0
   6949669.528 7   5571337.627 7  23709843.616 0  23709847.056 0
  -7211067.545 7  -5504114.511 7  22580792.337 0  22580796.686 0
 88  3  3  9  2 59.0800000  0  4  3 13 11  9
  -9394188.597 7  77061499.128 7  22318351.792 0  22318357.665 0
  -1576771.563 7  54300877.826 6  21099581.774 0  21099587.305 0
   7015364.613 7   5622528.574 7  23722344.478 0  23722348.691 0
  -7098349.652 7  -5416282.432 7  22602241.386 0  22602245.606 0
 88  3  3  9  3 29.0800000  0  4  3 13 11  9
  -9437366.549 8  77027854.001 7  22310137.798 0  22310141.485 0
  -1548299.198 8  54323064.083 7  21105000.986 0  21105004.419 0
   7081024.115 7   5673691.827 7  23734839.675 0  23734843.694 0
  -6985361.920 7  -5328240.084 8  22623741.748 0  22623746.437 0
 88  3  3  9  3 59.0800000  0  4  3 13 11  9
  -9480363.238 7  76994350.112 7  22301954.316 0  22301958.950 0
  -1519683.172 7  54345362.291 7  21110445.783 0  21110450.913 0
   7146647.812 7   5724827.191 7  23747327.461 0  23747330.803 0
  -6872107.717 7  -5239990.083 7  22645293.935 0  22645298.514 0
 88  3  3  9  4 29.0800000  0  4  3 13 11  9
  -9523179.361 7  76960986.929 7  22293807.347 0  22293810.510 0
  -1490924.764 7  54367771.448 6  21115916.833 0  21115922.056 0
   7212235.773 7   5775934.686 7  23759807.206 0  23759811.632 0
  -6758589.838 7  -5151534.589 7  22666897.521 0  22666900.052 0
 88  3  3  9  4 59.0800000  0  4  3 13 11  9
  -9565815.591 7  76927763.913 7  22285693.985 0  22285697.815 0
  -1462025.346 8  54390290.474 7  21121418.038 0  21121421.609 0
   7277786.995 7   5827013.537 7  23772281.933 0  23772287.056 0
  -6644812.408 7  -5062876.864 7  22688547.215 0  22688551.048 0
 88  3  3  9  5 29.0800000  0  4  3 13 11  9
  -9608272.432 7  76894680.689 6  22277613.939 0  22277617.647 0
  -1432986.473 7  54412918.160 6  21126944.224 0  21126947.457 0
   7343301.095 7   5878063.459 7  23784748.881 0  23784753.286 0
  -6530778.612 8  -4974019.393 7  22710247.269 0  22710251.079 0
 88  3  3  9  5 59.0800000  0  4  3 13 11  9
  -9650550.913 7  76861736.434 7  22269569.813 0  22269573.696 0
  -1403809.122 7  54435653.753 7  21132495.731 0  21132500.739 0
   7408778.269 7   5929084.634 7  23797208.623 0  23797213.023 0
  -6416491.948 8  -4884964.855 7  22731996.503 0  22731998.991 0
 88  3  3  9  6 29.0800000  0  4  3 13 11  9
  -9692651.601 8  76828930.734 7  22261557.887 0  22261561.728 0
  -1374495.034 7  54458495.901 7  21138074.269 0  21138077.089 0
   7474217.703 7   5980076.419 7  23809662.972 0  23809665.417 0
  -6301955.782 8  -4795715.926 7  22753790.284 0  22753795.407 0
 88  3  3  9  6 59.0800000  0  4  3 13 11  9
  -9734575.022 7  76796263.175 6  22253579.731 0  22253583.517 0
  -1345045.096 7  54481443.901 7  21143678.420 0  21143681.800 0
   7539619.694 6   6031038.972 7  23822108.669 0  23822111.908 0
  -6187173.140 8  -4706274.939 7  22775633.319 0  22775637.071 0
 88  3  3  9  7 29.0800000  0  4  3 13 11  9
  -9776322.396 7  76763732.762 6  22245634.425 0  22245639.617 0
  -1315460.706 8  54504496.663 7  21149308.158 0  21149312.265 0
   7604983.757 7   6081971.984 8  23834545.991 0  23834549.973 0
  -6072147.817 7  -4616644.822 7  22797522.348 0  22797526.003 0
 88  3  3  9  7 59.0800000  0  4  3 13 11  9
  -9817894.604 7  76731338.860 7  22237725.360 0  22237728.474 0
  -1285743.550 7  54527652.880 7  21154963.739 0  21154967.373 0
   7670309.389 7   6132875.065 7  23846977.159 0  23846981.080 0
  -5956883.462 7  -4526828.469 7  22819455.407 0  22819459.918 0
 88  3  3  9  8 29.0800000  0  4  3 13 11  9
  -9859291.608 7  76699081.481 6  22229848.135 0  22229849.794 0
  -1255893.989 7  54550912.269 7  21160643.599 0  21160648.093 0
   7735596.881 7   6183748.408 7  23859399.981 0  23859405.159 0
  -5841382.647 8  -4436827.844 7  22841435.792 0  22841439.381 0
 88  3  3  9  8 59.0800000  0  4  3 13 11  9
  -9900514.588 7  76666959.694 7  22222002.383 0  22222006.525 0
  -1225913.914 7  54574273.377 7  21166348.643 0  21166352.422 0
   7800845.580 7   6234591.557 8  23871817.238 0  23871821.555 0
  -5725649.345 7  -4346646.062 7  22863458.921 0  22863461.663 0
 88  3  3  9  9 29.0800000  0  4  3 13 11  9
  -9941564.124 8  76634973.055 7  22214192.138 0  22214195.037 0
  -1195804.285 8  54597735.411 7  21172077.643 0  21172082.136 0
   7866055.458 7   6285404.441 7  23884226.466 0  23884230.675 0
  -5609686.752 7  -4256285.635 8  22885525.507 0  22885529.415 0
 88  3  3  9  9 59.0800000  0  4  3 13 11  9
  -9982441.259 7  76603120.769 7  22206412.551 0  22206415.693 0
  -1165566.866 7  54621297.035 7  21177831.712 0  21177836.176 0
   7931225.896 7   6336186.564 8  23896627.202 0  23896631.667 0
  -5493498.640 8  -4165749.483 8  22907637.108 0  22907639.172 0
 88  3  3  9 10 29.0800000  0  4  3 13 11  9
 -10023146.192 7  76571402.658 7  22198666.262 0  22198670.839 0
  -1135202.376 7  54644957.671 7  21183610.351 0  21183614.658 0
   7996356.878 7   6386937.967 7  23909021.158 0  23909025.468 0
  -5377088.153 8  -4075040.035 7  22929787.778 0  22929791.496 0
 88  3  3  9 10 59.0800000  0  4  3 13 11  9
 -10063679.970 6  76539817.919 7  22190951.955 0  22190956.291 0
  -1104711.852 8  54668716.509 7  21189413.114 0  21189416.692 0
   8061449.063 7   6437659.136 6  23921408.634 0  23921412.915 0
  -5260458.577 7  -3984159.867 7  22951981.052 0  22951984.996 0
 88  3  3  9 11 29.0800000  0  4  3 13 11  9
 -10104043.578 8  76508365.777 7  22183271.887 0  22183275.694 0
  -1074097.081 8  54692572.168 7  21195238.542 0  21195242.363 0
   8126501.034 7   6488348.999 6  23933786.457 0  23933792.459 0
  -5143613.815 8  -3893112.006 8  22974217.428 0  22974219.627 0
 88  3  3  9 11 59.0800000  0  4  3 13 11  9
 -10144237.391 7  76477045.941 7  22175623.481 0  22175626.737 0
  -1043359.061 8  54716523.875 7  21201086.853 0  21201091.472 0
   8191512.666 7   6539007.429 7  23946159.224 0  23946162.167 0
  -5026557.083 7  -3801898.999 7  22996491.842 0  22996495.142 0
 88  3  3  9 12 29.0800000  0  4  3 13 11  9
 -10184262.465 8  76445857.603 7  22168007.492 0  22168010.333 0
  -1012498.983 8  54740570.670 7  21206959.530 0  21206964.138 0
   8256484.053 7   6589634.485 7  23958522.586 0  23958527.946 0
  -4909291.807 7  -3710523.476 7  23018806.283 0  23018810.631 0
 88  3  3  9 12 59.0800000  0  4  3 13 11  9
 -10224119.947 7  76414799.845 7  22160422.153 0  22160425.052 0
   -981518.049 7  54764711.671 7  21212855.462 0  21212859.207 0
   8321414.858 7   6640229.940 6  23970879.108 0  23970881.182 0
  -4791821.729 7  -3618988.376 7  23041159.858 0  23041164.194 0
 88  3  3  9 13 29.0800000  0  4  3 13 11  9
 -10263809.825 8  76383872.709 6  22152870.188 0  22152873.318 0
   -950417.500 8  54788945.861 7  21218773.955 0  21218778.720 0
   8386305.100 7   6690793.765 6  23983226.317 0  23983229.941 0
  -4674149.872 7  -3527296.056 8  23063551.429 0  23063556.529 0
 88  3  3  9 13 59.0800000  0  4  3 13 11  9
 -10303333.440 8  76353075.090 7  22145348.749 0  22145350.946 0
   -919198.533 7  54813272.324 7  21224714.331 0  21224717.551 0
   8451154.513 7   6741325.795 7  23995567.462 0  23995570.990 0
  -4556279.903 7  -3435449.350 7  23085983.243 0  23085986.360 0
 88  3  3  9 14 29.0800000  0  4  3 13 11  9
 -10342691.337 7  76322406.610 7  22137858.024 0  22137862.787 0
   -887862.331 8  54837690.137 6  21230677.757 0  21230681.907 0
   8515963.019 6   6791825.931 7  24007899.085 0  24007904.688 0
  -4438215.189 7  -3343450.888 7  23108450.446 0  23108453.085 0
 88  3  3  9 14 59.0800000  0  4  3 13 11  9
 -10381884.361 7  76291866.636 7  22130400.800 0  22130405.278 0
   -856409.894 7  54862198.520 6  21236663.005 0  21236666.213 0
   8580730.244 7   6842293.905 6  24020224.412 0  24020228.570 0
  -4319958.871 7  -3251303.122 7  23130953.549 0  23130956.929 0
 88  3  3  9 15 29.0800000  0  4  3 13 11  9
 -10420913.154 7  76261454.607 7  22122972.618 0  22122977.476 0
   -824842.373 7  54886796.588 7  21242670.806 0  21242674.325 0
   8645456.206 7   6892729.718 6  24032540.591 0  24032545.256 0
  -4201514.762 8  -3159009.019 7  23153492.072 0  23153495.584 0
 88  3  3  9 15 59.0800000  0  4  3 13 11  9
 -10459778.668 7  76231169.802 7  22115578.077 0  22115582.548 0
   -793161.439 8  54911483.025 7  21248698.310 0  21248702.158 0
   8710140.728 7   6943133.256 6  24044849.988 0  24044855.147 0
  -4082886.108 7  -3066571.132 7  23176065.248 0  23176070.121 0
 88  3  3  9 16 29.0800000  0  4  3 13 11  9
 -10498480.911 7  76201012.246 7  22108214.101 0  22108216.477 0
   -761367.268 8  54936257.715 7  21254749.037 0  21254752.486 0
   8774784.154 6   6993504.735 6  24057150.658 0  24057156.392 0
  -3964075.949 8  -2973991.814 7  23198674.904 0  23198677.753 0
 88  3  3  9 16 59.0800000  0  4  3 13 11  9
 -10537021.042 7  76170980.985 6  22100878.765 0  22100882.529 0
   -729461.289 8  54961119.508 7  21260821.028 0  21260824.162 0
   8839386.055 6   7043843.899 6  24069444.685 0  24069448.340 0
  -3845087.680 7  -2881273.690 7  23221317.518 0  23221322.049 0
 88  3  3  9 17 29.0800000  0  4  3 13 11  9
 -10575400.293 7  76141075.108 7  22093575.158 0  22093579.961 0
   -697444.904 7  54986067.335 7  21266913.093 0  21266917.673 0
   8903946.337 7   7094150.569 6  24081730.326 0  24081733.868 0
  -3725925.590 7  -2788420.134 7  23243994.395 0  23243997.344 0
 88  3  3  9 17 59.0800000  0  4  3 13 11  9
 -10613619.523 7  76111293.919 7  22086302.225 0  22086307.441 0
   -665319.821 7  55011099.882 6  21273026.052 0  21273030.844 0
   8968464.460 7   7144424.433 6  24094006.746 0  24094010.563 0
  -3606592.861 7  -2695433.578 7  23266701.534 0  23266705.685 0
 88  3  3  9 18 29.0800000  0  4  3 13 11  9
 -10651678.641 7  76081637.479 7  22079058.998 0  22079063.133 0
   -633086.389 8  55036216.835 6  21279160.660 0  21279163.105 0
   9032941.060 7   7194665.918 6  24106276.600 0  24106279.612 0
  -3487092.505 7  -2602316.428 7  23289441.620 0  23289445.922 0
 88  3  3  9 18 59.0800000  0  4  3 13 11  9
 -10689578.585 7  76052105.085 7  22071847.444 0  22071852.050 0
   -600745.575 7  55061417.464 7  21285314.927 0  21285317.175 0
   9097375.744 7   7244874.688 6  24118537.534 0  24118542.557 0
  -3367428.214 7  -2509071.544 7  23312212.969 0  23312217.571 0
 88  3  3  9 19 29.0800000  0  4  3 13 11  9
 -10727320.175 7  76022696.074 7  22064666.759 0  22064670.995 0
   -568298.314 8  55086701.028 7  21291488.270 0  21291493.482 0
   9161768.866 8   7295051.151 7  24130792.110 0  24130797.059 0
  -3247602.860 7  -2415701.152 7  23335016.063 0  23335019.051 0
 88  3  3  9 19 59.0800000  0  4  3 13 11  9
 -10764904.586 7  75993409.530 7  22057514.039 0  22057517.645 0
   -535746.005 7  55112066.469 7  21297682.949 0  21297688.499 0
   9226120.182 7   7345195.050 7  24143038.154 0  24143043.229 0
  -3127620.643 7  -2322208.508 7  23357847.959 0  23357851.078 0
 88  3  3  9 20 29.0800000  0  4  3 13 12  9
 -10802332.683 7  75964244.791 6  22050392.114 0  22050395.567 0
   -503090.594 7  55137512.244 7  21303898.461 0  21303900.788 0
         -.277 8         -.450 7  21068462.240 0          .000 0
  -3007485.105 7  -2228596.412 7  23380708.811 0  23380711.622 0
 88  3  3  9 20 59.0800000  0  4  3 13 12  9
 -10839605.368 7  75935201.160 6  22043299.011 0  22043302.979 0
   -470333.037 8  55163037.612 7  21310130.629 0  21310133.616 0
     49534.301 7 120243723.575 7  21077924.003 0  21077929.197 0
  -2887199.717 8  -2134867.522 7  23403598.193 0  23403602.201 0
 88  3  3  9 21 29.0800000  0  4  3 13 12  9
 -10876722.932 7  75906278.389 7  22036234.690 0  22036240.068 0
   -437473.198 8  55188642.678 6  21316384.290 0  21316387.134 0
     99648.550 7 120282773.614 7  21087461.355 0  21087466.000 0
  -2766767.347 7  -2041024.133 7  23426515.575 0  23426519.531 0
 88  3  3  9 21 59.0800000  0  4  3 13 12  9
 -10913685.976 7  75877476.050 7  22029201.389 0  22029204.516 0
   -404512.605 7  55214326.259 6  21322656.595 0  21322659.052 0
    150340.916 7 120322274.150 7  21097108.218 0  21097111.902 0
  -2646191.572 6  -1947068.974 7  23449459.766 0  23449463.992 0
 88  3  3  9 22 29.0800000  0  4  3 13 12  9
 -10950495.149 7  75848793.585 7  22022196.896 0  22022201.067 0
   -371452.050 8  55240087.723 7  21328947.689 0  21328951.061 0
    201609.380 7 120362223.576 7  21106864.771 0  21106868.545 0
  -2525475.292 7  -1853004.389 7  23472431.530 0  23472435.231 0
 88  3  3  9 22 59.0800000  0  4  3 13 12  9
 -10987151.522 8  75820230.201 7  22015222.681 0  22015224.828 0
   -338292.479 8  55265926.339 6  21335257.913 0  21335261.128 0
    253452.298 7 120402620.630 7  21116729.060 0  21116733.152 0
  -2404622.057 7  -1758833.057 7  23495429.970 0  23495434.500 0
 88  3  3  9 23 29.0800000  0  4  3 13 12  9
 -11023655.934 7  75791785.203 6  22008274.626 0  22008278.680 0
   -305035.047 8  55291841.223 6  21341585.923 0  21341590.083 0
    305867.448 8 120443463.570 7  21126703.164 0  21126708.096 0
  -2283635.507 7  -1664557.842 7  23518452.752 0  23518456.216 0
 88  3  3  9 23 59.0800000  0  4  3 13 12  9
 -11060008.918 8  75763458.231 7  22001357.316 0  22001360.836 0
   -271680.808 8  55317831.533 7  21347934.209 0  21347936.581 0
    358852.855 7 120484750.856 7  21136786.090 0  21136790.753 0
  -2162518.722 7  -1570181.131 7  23541500.297 0  23541504.295 0
 88  3  3  9 24 29.0800000  0  4  3 13 12  9
 -11096210.103 7  75735249.535 7  21994469.531 0  21994472.775 0
   -238229.569 8  55343897.421 7  21354299.197 0  21354302.283 0
    412406.866 7 120526481.233 7  21146977.465 0  21146981.972 0
  -2041274.803 7  -1475705.339 7  23564572.548 0  23564576.030 0
 88  3  3  9 24 59.0800000  0  4  3 13 12  9
 -11132260.438 8  75707158.379 7  21987610.060 0  21987612.711 0
   -204682.732 8  55370037.812 6  21360682.398 0  21360685.670 0
    466527.167 7 120568652.861 8  21157275.814 0  21157281.292 0
  -1919906.225 7  -1381132.435 7  23587666.959 0  23587671.545 0
 88  3  3  9 25 29.0800000  0  4  3 13 12  9
 -11168161.747 7  75679183.353 7  21980776.347 0  21980779.561 0
   -171041.919 7  55396251.424 7  21367084.529 0  21367088.488 0
    521211.009 7 120611263.622 7  21167681.100 0  21167686.304 0
  -1798418.766 8  -1286466.857 7  23610786.720 0  23610790.039 0
 88  3  3  9 25 59.0800000  0  4  3 13 12  9
 -11203914.284 7  75651324.257 6  21973972.578 0  21973976.284 0
   -137308.166 8  55422537.466 7  21373503.176 0  21373506.848 0
    576456.167 7 120654311.759 7  21178196.084 0  21178198.844 0
  -1676814.405 7  -1191710.225 6  23633926.388 0  23633930.665 0
 88  3  3  9 26 29.0800000  0  4  3 13 12  9
 -11239519.016 7  75623580.322 7  21967198.208 0  21967199.369 0
   -103482.029 8  55448895.492 6  21379940.466 0  21379943.950 0
    632261.042 7 120697796.083 7  21188813.849 0  21188818.337 0
  -1555096.491 7  -1096865.083 7  23657088.862 0  23657092.715 0
 88  3  3  9 26 59.0800000  0  4  3 13 12  9
 -11274976.674 7  75595950.981 7  21960451.205 0  21960454.658 0
    -69565.065 7  55475324.289 7  21386394.726 0  21386398.915 0
    688622.762 8 120741714.282 7  21199539.784 0  21199545.346 0
  -1433268.964 7  -1001934.530 7  23680272.553 0  23680275.930 0
 88  3  3  9 27 29.0800000  0  4  3 13 12  9
 -11310288.259 7  75568435.475 7  21953730.960 0  21953734.706 0
    -35557.989 8  55501823.303 7  21392865.843 0  21392869.702 0
    745539.212 7 120786064.731 7  21210370.738 0  21210375.564 0
  -1311335.179 7   -906921.201 7  23703475.140 0  23703479.573 0
 88  3  3  9 27 59.0800000  0  4  3 13 12  9
 -11345453.958 7  75541033.649 7  21947038.236 0  21947043.699 0
     -1461.190 7  55528392.234 7  21399354.934 0  21399357.804 0
    803008.356 8 120830845.845 7  21221306.872 0  21221311.398 0
  -1189297.974 7   -811827.269 7  23726697.557 0  23726701.366 0
 88  3  3  9 28 29.0800000  0  4  3 13 12  9
 -11380474.916 7  75513744.605 7  21940374.446 0  21940378.182 0
     32724.221 8  55555030.207 6  21405859.661 0  21405863.765 0
    861027.440 8 120876055.506 7  21232347.577 0  21232351.831 0
  -1067161.505 7   -716655.976 7  23749939.666 0  23749943.175 0
 88  3  3  9 28 59.0800000  0  4  3 13 12  9
 -11415351.836 7  75486567.783 7  21933739.207 0  21933740.717 0
     66997.278 8  55581736.486 7  21412380.919 0  21412385.896 0
    919594.664 8 120921692.274 7  21243492.597 0  21243495.949 0
   -944928.269 6   -621409.303 7  23773199.827 0  23773203.803 0
 88  3  3  9 29 29.0800000  0  4  3 13 12  9
 -11450084.818 7  75459503.129 7  21927128.381 0  21927133.092 0
    101356.973 7  55608510.270 6  21418919.533 0  21418924.708 0
    978707.566 8 120967754.274 7  21254741.967 0  21254745.590 0
   -822601.955 6   -526090.101 7  23796477.820 0  23796482.266 0
 88  3  3  9 29 59.0800000  0  4  3 13 12  9
 -11484675.003 7  75432549.756 7  21920546.561 0  21920550.033 0
    135802.824 8  55635351.190 7  21425473.714 0  21425478.291 0
   1038363.689 8 121014239.546 7  21266092.659 0  21266096.632 0
   -700185.837 6   -430700.958 7  23819771.458 0  23819776.646 0
 88  3  3  9 30 29.0800000  0  4  3 13 12  9
 -11519122.947 7  75405707.203 6  21913990.380 0  21913993.937 0
    170333.135 7  55662257.927 7  21432044.539 0  21432050.328 0
   1098560.822 7 121061146.343 8  21277547.959 0  21277554.573 0
   -577683.536 7   -335244.603 7  23843083.823 0  23843088.014 0
 88  3  3  9 30 59.0800000  0  4  3 13 12  9
 -11553430.328 7  75378974.201 7  21907463.375 0  21907466.015 0
    204947.255 7  55689229.970 7  21438632.489 0  21438636.937 0
   1159295.607 8 121108472.132 7  21289106.779 0  21289109.052 0
   -455098.774 7   -239724.005 7  23866410.661 0  23866415.156 0
 88  3  3  9 31 29.0800000  0  4  3 13 12  9
 -11587596.526 7  75352351.204 7  21900961.335 0  21900964.613 0
    239645.370 8  55716267.457 7  21445235.668 0  21445238.684 0
   1220566.823 7 121156215.939 7  21300766.644 0  21300770.331 0
   -332434.018 7   -144141.094 7  23889753.536 0  23889759.099 0
 88  3  3  9 31 59.0800000  0  4  3 13 12  9
 -11621622.674 7  75325837.335 7  21894485.960 0  21894488.816 0
    274426.431 7  55743369.587 7  21451854.141 0  21451857.284 0
   1282371.680 7 121204375.537 7  21312526.480 0  21312530.446 0
   -209692.547 6    -48498.382 7  23913110.379 0  23913113.774 0
 88  3  3  9 32 29.0800000  0  4  3 13 12  9
 -11655510.407 7  75299431.326 7  21888037.944 0  21888039.909 0
    309288.498 8  55770534.825 7  21458487.652 0  21458492.199 0
   1344707.578 7 121252948.928 7  21324389.355 0  21324391.858 0
    -86877.899 6     47201.323 7  23936481.414 0  23936486.151 0
 88  3  3  9 32 59.0800000  0  4  3 13 12  9
 -11689259.515 8  75273133.313 7  21881615.549 0  21881617.522 0
    344231.209 7  55797762.917 7  21465138.078 0  21465141.052 0
   1407572.322 7 121301934.418 7  21336351.767 0  21336355.582 0
     36006.224 7    142955.194 6  23959865.817 0  23959869.533 0
 88  3  3  9 33 29.0800000  0  4  3 13 12  9
 -11722870.792 8  75246942.710 7  21875219.352 0  21875223.087 0
    379254.011 8  55825053.402 7  21471801.411 0  21471806.329 0
   1470962.751 8 121351329.535 6  21348413.962 0  21348418.408 0
    158956.586 7    238760.718 7  23983261.801 0  23983265.973 0
 88  3  3  9 33 59.0800000  0  4  3 13 12  9
 -11756344.878 7  75220859.011 7  21868849.730 0  21868851.270 0
    414356.564 7  55852406.043 7  21478482.300 0  21478486.146 0
   1534876.627 8 121401132.524 8  21360577.476 0  21360580.919 0
    281970.058 7    334615.391 6  24006669.445 0  24006674.329 0
 88  3  3  9 34 29.0800000  0  4  3 13 12  9
 -11789682.009 7  75194882.035 6  21862505.138 0  21862508.704 0
    449538.381 7  55879820.438 7  21485177.056 0  21485180.240 0
   1599312.641 8 121451342.374 6  21372838.318 0  21372842.872 0
    405043.998 7    430517.160 7  24030090.716 0  24030094.201 0
 88  3  3  9 34 59.0800000  0  4  3 13 12  9
 -11822883.942 7  75169010.412 7  21856187.793 0  21856191.751 0
    484797.696 7  55907295.228 7  21491886.636 0  21491889.910 0
   1664266.754 8 121501955.930 7  21385198.454 0  21385203.430 0
    528174.267 7    526462.830 6  24053521.916 0  24053526.207 0
 88  3  3  9 35 29.0800000  0  4  3 13 12  9
 -11855951.014 8  75143243.866 6  21849894.374 0  21849897.915 0
    520133.517 8  55934829.653 7  21498610.711 0  21498614.313 0
   1729736.257 8 121552971.106 7  21397657.393 0  21397660.402 0
    651357.630 6    622449.881 7  24076961.651 0  24076967.098 0
 88  3  3  9 35 59.0800000  0  4  3 13 12  9
 -11888883.156 8  75117582.472 6  21843628.035 0  21843631.830 0
    555545.836 8  55962423.657 7  21505349.251 0  21505352.026 0
   1795719.526 7 121604386.616 7  21410213.486 0  21410218.018 0
    774591.285 7    718476.088 7  24100412.500 0  24100417.940 0
 88  3  3  9 36 29.0800000  0  4  3 13 12  9
 -11921681.885 8  75092025.017 6  21837386.815 0  21837390.332 0
    591033.647 8  55990076.499 7  21512102.792 0  21512105.620 0
   1862213.107 7 121656199.764 7  21422866.486 0  21422870.791 0
    897871.379 7    814538.486 7  24123872.572 0  24123877.226 0
 88  3  3  9 36 59.0800000  0  4  3 13 12  9
 -11954348.566 7  75066570.484 6  21831169.874 0  21831172.473 0
    626595.611 8  56017787.122 6  21518869.479 0  21518873.268 0
   1929213.737 8 121708408.012 7  21435616.833 0  21435621.337 0
   1021194.116 7    910634.133 7  24147339.419 0  24147344.684 0
 88  3  3  9 37 29.0800000  0  4  3 13 12  9
 -11986882.865 7  75041219.077 7  21824978.575 0  21824984.266 0
    662231.329 8  56045555.214 7  21525651.305 0  21525655.193 0
   1996719.693 8 121761010.050 7  21448462.263 0  21448466.897 0
   1144556.938 7   1006761.016 7  24170815.209 0  24170819.539 0
 88  3  3  9 37 59.0800000  0  4  3 13 12  9
 -12019286.084 7  75015969.839 6  21818813.402 0  21818816.510 0
    697939.655 8  56073379.890 7  21532446.026 0  21532449.455 0
   2064727.647 8 121814003.228 7  21461404.475 0  21461408.027 0
   1267956.071 7   1102916.204 7  24194297.281 0  24194300.493 0
 88  3  3  9 38 29.0800000  0  4  3 13 12  9
 -12051558.780 7  74990822.289 7  21812671.351 0  21812675.495 0
    733720.206 8  56101260.825 7  21539254.967 0  21539258.426 0
   2133234.914 7 121867385.502 7  21474441.948 0  21474445.887 0
   1391388.433 7   1199097.298 7  24217785.950 0  24217789.823 0
 88  3  3  9 38 59.0800000  0  4  3 13 12  9
 -12083701.375 7  74965776.106 7  21806554.985 0  21806559.341 0
    769572.866 7  56129197.971 7  21546077.118 0  21546081.507 0
   2202239.773 8 121921155.485 7  21487572.084 0  21487576.156 0
   1514851.393 7   1295302.220 7  24241279.689 0  24241285.081 0
 88  3  3  9 39 29.0800000  0  4  3 13 12  9
 -12115712.904 7  74940832.085 7  21800463.934 0  21800467.321 0
    805498.071 7  56157191.631 7  21552913.892 0  21552918.066 0
   2271740.442 7 121975311.827 7  21500797.524 0  21500802.178 0
   1638342.520 6   1391529.096 6  24264780.654 0  24264783.441 0
 88  3  3  9 39 59.0800000  0  4  3 13 12  9
 -12147595.649 8  74915988.387 7  21794396.172 0  21794400.109 0
    841493.486 7  56185240.004 7  21559763.344 0  21559767.905 0
   2341732.202 7 122029850.851 7  21514116.826 0  21514120.529 0
   1761857.105 7   1487774.245 6  24288282.154 0  24288287.343 0
 88  3  3  9 40 29.0800000  0  4  3 13 12  9
 -12179350.252 7  74891244.543 7  21788353.419 0  21788356.876 0
    877559.278 7  56213343.227 7  21566627.063 0  21566631.710 0
   2412212.601 8 122084770.640 7  21527529.337 0  21527533.291 0
   1885392.385 6   1584035.535 7  24311791.276 0  24311795.050 0
 88  3  3  9 40 59.0800000  0  4  3 13 12  9
 -12210977.108 8  74866600.244 7  21782335.306 0  21782339.864 0
    913694.746 8  56241500.727 7  21573503.131 0  21573506.789 0
   2483179.328 8 122140069.370 8  21541032.262 0  21541038.304 0
   2008945.016 6   1680310.296 6  24335302.693 0  24335307.697 0
 88  3  3  9 41 29.0800000  0  4  3 13 12  9
 -12242476.929 8  74842054.941 7  21776341.054 0  21776344.305 0
    949898.693 8  56269711.585 7  21580392.691 0  21580396.351 0
   2554629.355 8 122195744.685 7  21554629.799 0  21554633.508 0
   2132511.974 7   1776596.233 8  24358816.900 0  24358820.007 0
 88  3  3  9 41 59.0800000  0  4  3 13 12  9
 -12273850.445 7  74817608.047 7  21770371.134 0  21770374.923 0
    986170.580 7  56297975.403 7  21587295.160 0  21587298.103 0
   2626559.309 8 122251793.984 7  21568317.025 0  21568321.751 0
   2256089.932 7   1872890.765 7  24382332.242 0  24382337.016 0
 88  3  3  9 42 29.0800000  0  4  3 13 12  9
 -12305097.585 7  74793259.629 7  21764424.281 0  21764429.739 0
   1022510.200 8  56326291.976 7  21594210.391 0  21594214.079 0
   2698967.620 8 122308216.027 7  21582095.431 0  21582100.608 0
   2379675.919 7   1969191.576 6  24405850.795 0  24405855.776 0
 88  3  3  9 42 59.0800000  0  4  3 13 12  9
 -12336219.014 7  74769009.201 7  21758502.546 0  21758505.497 0
   1058917.346 8  56354661.182 7  21601137.640 0  21601141.845 0
   2771851.227 8 122365008.421 8  21595965.786 0  21595970.456 0
   2503266.796 7   2065496.185 7  24429369.809 0  24429373.648 0
 88  3  3  9 43 29.0800000  0  4  3 13 12  9
 -12367215.766 7  74744855.889 7  21752604.625 0  21752607.702 0
   1095391.161 7  56383082.333 7  21608078.874 0  21608081.548 0
   2845207.132 8 122422168.863 7  21609924.980 0  21609929.733 0
   2626859.255 7   2161802.016 7  24452887.793 0  24452892.632 0
 88  3  3  9 43 59.0800000  0  4  3 13 12  9
 -12398088.584 7  74720799.152 6  21746729.289 0  21746732.450 0
   1131930.536 7  56411554.555 7  21615030.836 0  21615036.242 0
   2919031.706 8 122479694.464 7  21623972.748 0  21623977.906 0
   2750449.901 7   2258106.448 7  24476406.347 0  24476411.644 0
 88  3  3  9 44 29.0800000  0  4  3 13 12  9
 -12428837.311 7  74696839.127 7  21740878.608 0  21740880.881 0
   1168535.561 8  56440077.962 7  21621996.467 0  21622000.786 0
   2993322.416 8 122537583.311 7  21638110.165 0  21638115.177 0
   2874036.050 7   2354407.352 7  24499923.301 0  24499928.955 0
 88  3  3  9 44 59.0800000  0  4  3 13 12  9
 -12459463.663 7  74672974.433 7  21735049.221 0  21735053.741 0
   1205205.137 7  56468651.645 7  21628975.245 0  21628980.061 0
   3068076.253 8 122595833.029 7  21652335.653 0  21652340.788 0
   2997614.132 7   2450701.993 6  24523440.859 0  24523445.203 0
 88  3  3  9 45 29.0800000  0  4  3 13 12  9
 -12489968.554 7  74649204.400 7  21729244.527 0  21729248.559 0
   1241938.560 8  56497275.087 7  21635965.756 0  21635970.047 0
   3143290.397 7 122654441.423 7  21666648.685 0  21666652.479 0
   3121180.723 7   2546987.663 7  24546954.989 0  24546958.834 0
 88  3  3  9 45 59.0800000  0  4  3 13 12  9
 -12520352.003 7  74625529.010 7  21723463.873 0  21723467.142 0
   1278735.820 7  56525948.277 7  21642967.788 0  21642972.505 0
   3218962.051 7 122713406.321 7  21681047.909 0  21681052.108 0
   3244732.898 7   2643262.130 7  24570466.454 0  24570469.479 0
 88  3  3  9 46 29.0800000  0  4  3 13 12  9
 -12550614.247 7  74601948.054 7  21717704.538 0  21717707.983 0
   1315596.162 7  56554670.617 7  21649981.624 0  21649986.557 0
   3295088.076 8 122772725.280 7  21695534.276 0  21695538.642 0
   3368267.614 7   2739522.986 6  24593973.980 0  24593976.952 0
 88  3  3  9 46 59.0800000  0  4  3 13 12  9
 -12580755.724 7  74578461.195 7  21711968.727 0  21711972.965 0
   1352519.435 8  56583441.994 7  21657008.984 0  21657012.141 0
   3371665.832 7 122832396.241 7  21710106.505 0  21710110.952 0
   3491781.805 6   2835767.820 6  24617474.774 0  24617481.420 0
 88  3  3  9 47 29.0800000  0  4  3 13 12  9
 -12610777.341 7  74555067.743 7  21706254.715 0  21706258.953 0
   1389504.676 7  56612261.647 7  21664046.114 0  21664050.289 0
   3448691.672 8 122892416.350 7  21724763.201 0  21724769.229 0
   3615271.967 5   2931993.906 5  24640975.539 0  24640980.425 0
 88  3  3  9 47 59.0800000  0  4  3 13 12  9
 -12640678.796 8  74531767.918 7  21700565.897 0  21700568.445 0
   1426552.625 8  56641130.183 7  21671096.641 0  21671100.026 0
   3526163.472 7 122952783.952 7  21739506.639 0  21739510.691 0
   3738736.129 5   3028199.800 7  24664471.498 0  24664475.399 0
 88  3  3  9 48 29.0800000  0  4  3 13 12  9
 -12670461.463 8  74508560.647 7  21694897.672 0  21694902.029 0
   1463661.196 8  56670045.932 7  21678158.597 0  21678161.843 0
   3604077.791 7 123013496.393 7  21754332.721 0  21754338.475 0
   3862170.305 6   3124382.287 6  24687959.594 0  24687963.869 0
 88  3  3  9 48 59.0800000  0  4  3 13 12  9
 -12700126.325 8  74485445.194 7  21689253.156 0  21689256.967 0
   1500829.644 7  56699008.356 7  21685231.287 0  21685235.074 0
   3682431.089 7 123074550.904 7  21769244.456 0  21769247.766 0
   3985570.790 6   3220538.528 6  24711441.160 0  24711446.863 0
 88  3  3  9 49 29.0800000  0  4  3 13 12  9
 -12729673.767 7  74462421.226 7  21683630.332 0  21683634.853 0
   1538058.765 7  56728018.060 7  21692315.383 0  21692317.669 0
   3761220.486 7 123135945.226 7  21784235.603 0  21784240.870 0
   4108934.953 6   3316666.480 6  24734916.681 0  24734921.802 0
 88  3  3  9 49 59.0800000  0  4  3 13 12  9
 -12759104.190 8  74439488.446 7  21678031.068 0  21678033.548 0
   1575348.055 7  56757074.638 7  21699411.582 0  21699415.312 0
   3840443.069 7 123197677.076 7  21799312.079 0  21799317.271 0
   4232259.929 6   3412763.915 6  24758385.403 0  24758389.804 0
 88  3  3  9 50 29.0800000  0  4  3 13 12  9
 -12788417.827 7  74416646.648 7  21672452.419 0  21672456.054 0
   1612696.386 8  56786177.230 7  21706518.271 0  21706522.116 0
   3920095.553 8 123259743.930 7  21814470.062 0  21814474.157 0
   4355542.359 6   3508828.198 5  24781846.027 0  24781849.044 0
 88  3  3  9 50 59.0800000  0  4  3 13 12  9
 -12817615.814 7  74393894.967 7  21666895.798 0  21666899.120 0
   1650102.886 8  56815325.144 6  21713637.066 0  21713641.054 0
   4000174.960 8 123322143.460 7  21829707.260 0  21829712.655 0
   4478778.930 6   3604856.718 6  24805296.036 0  24805300.389 0
 88  3  3  9 51 29.0800000  0  4  3 13 12  9
 -12846698.129 7  74371233.423 7  21661360.898 0  21661365.249 0
   1687568.272 7  56844518.941 7  21720766.376 0  21720769.234 0
   4080678.464 8 123384873.447 7  21845027.740 0  21845032.314 0
   4601967.322 6   3700847.700 6  24828738.846 0  24828742.435 0
 88  3  3  9 51 59.0800000  0  4  3 13 12  9
 -12875666.067 7  74348661.013 7  21655848.147 0  21655853.294 0
   1725091.430 8  56873757.772 7  21727907.064 0  21727910.580 0
   4161602.506 7 123447931.117 7  21860427.207 0  21860431.316 0
   4725103.664 6   3796798.124 7  24852170.094 0  24852174.001 0
 88  3  3  9 52 29.0800000  0  4  3 13 12  9
 -12904519.512 7  74326177.825 8  21650359.173 0  21650362.608 0
   1762672.208 7  56903041.485 6  21735058.040 0  21735061.541 0
   4242944.280 8 123511314.314 7  21875905.483 0  21875910.402 0
   4848185.250 7   3892705.873 6  24875592.562 0  24875596.969 0
 88  3  3  9 52 59.0800000  0  4  3 13 12  9
 -12933259.353 8  74303783.144 7  21644889.315 0  21644891.967 0
   1800310.331 8  56932369.886 7  21742221.176 0  21742224.036 0
   4324700.203 8 123575020.204 7  21891463.774 0  21891467.613 0
   4971208.569 6   3988568.215 6  24899004.048 0  24899007.174 0
 88  3  3  9 53 29.0800000  0  4  3 13 12  9
 -12961885.907 7  74281476.738 7  21639442.454 0  21639445.103 0
   1838005.423 8  56961742.678 7  21749392.845 0  21749396.806 0
   4406867.461 8 123639046.607 7  21907098.982 0  21907104.703 0
   5094170.813 6   4084383.015 6  24922403.756 0  24922405.496 0
 88  3  3  9 53 59.0800000  0  4  3 13 12  9
 -12990401.839 7  74259256.539 7  21634015.713 0  21634018.665 0
   1875755.321 8  56991158.188 7  21756577.419 0  21756580.965 0
   4489441.147 8 123703389.746 7  21922812.814 0  21922817.755 0
   5217067.423 5   4180146.624 7  24945788.407 0  24945792.356 0
 88  3  3  9 54 29.0800000  0  3  3 13 12
 -13018806.297 7  74237123.206 7  21628610.301 0  21628614.226 0
   1913560.062 8  57020616.426 8  21763770.335 0  21763774.107 0
   4572418.919 1 123931389.246 7  21938598.300 0          .000 0
 88  3  3  9 54 59.0800000  0  3  3 13 12
 -13047099.146 7  74215076.833 7  21623226.745 0  21623230.696 0
   1951420.533 7  57050118.089 7  21770975.169 0  21770981.076 0
 -12621012.691 2 124159388.746 7  21954304.815 0          .000 0
 88  3  3  9 55 29.0800000  0  3  3 13 12
 -13075280.148 8  74193117.621 6  21617864.098 0  21617867.009 0
   1989336.827 8  57079663.242 7  21778190.392 0  21778194.397 0
 -12537252.123 1 124387388.246 7  21970414.553 0          .000 0
 88  3  3  9 55 59.0800000  0  3  3 13 12
 -13103349.758 7  74171245.210 6  21612521.581 0  21612525.653 0
   2027308.895 7  57109251.867 6  21785416.964 0  21785419.850 0
 -12814679.545 6 124615387.746 7          .000 0          .000 0
 88  3  3  9 56 29.0800000  0  3  3 13 12
 -13131309.348 7  74149458.522 7  21607201.877 0  21607205.250 0
   2065335.430 7  57138882.932 7  21792651.668 0  21792657.354 0
 -12727266.911 8 124843387.246 7  22002487.226 0          .000 0
 88  3  3  9 56 59.0800000  0  3  3 13 12
 -13159159.013 7  74127757.486 6  21601903.879 0  21601905.000 0
   2103416.363 8  57168556.386 7  21799899.485 0  21799902.917 0
 -12642313.136 8 136673110.646 7  22018687.199 0  22018693.039 0
 88  3  3  9 57 29.0800000  0  3  3 13 12
 -13186899.679 7  74106141.373 6  21596624.279 0  21596627.648 0
   2141551.282 8  57198271.898 7  21807156.755 0  21807159.910 0
 -12556973.459 7 136739609.077 7  22034927.561 0  22034932.247 0
 88  3  3  9 57 59.0800000  0  3  3 13 12
 -13214531.337 7  74084610.217 6  21591365.740 0  21591368.825 0
   2179740.842 7  57228029.995 7  21814423.267 0  21814427.565 0
 -12471250.979 7 136806405.836 7  22051238.869 0  22051245.229 0
 88  3  3  9 58 29.0800000  0  3  3 13 12
 -13242054.431 7  74063163.672 7  21586128.919 0  21586131.827 0
   2217984.289 7  57257830.083 7  21821700.854 0  21821704.758 0
 -12385149.297 7 136873498.043 7  22067623.584 0  22067628.768 0
 88  3  3  9 58 59.0800000  0  3  3 13 12
 -13269469.535 7  74041801.247 7  21580911.006 0  21580915.046 0
   2256280.819 7  57287671.531 7  21828989.404 0  21828993.031 0
 -12298671.943 8 136940882.958 7  22084080.979 0  22084085.328 0
 88  3  3  9 59 29.0800000  0  3  3 13 12
 -13296776.574 7  74020523.048 7  21575713.843 0  21575717.744 0
   2294630.620 7  57317554.495 6  21836286.079 0  21836289.835 0
 -12211821.961 8 137008558.269 7  22100607.896 0  22100611.870 0
 88  3  3  9 59 59.0800000  0  3  3 13 12
 -13323976.437 8  73999328.358 7  21570539.627 0  21570541.502 0
   2333032.833 8  57347478.274 7  21843594.023 0  21843598.166 0
 -12124602.717 8 137076521.293 7  22117204.004 0  22117209.696 0
 88  3  3 10  0 29.0800000  0  3  3 13 12
 -13351069.904 8  73978216.580 7  21565381.957 0  21565386.070 0
   2371487.550 7  57377442.991 7  21850912.687 0  21850915.372 0
 -12037017.466 7 137144769.555 7  22133871.402 0  22133876.010 0
 88  3  3 10  0 59.0800000  0  3  3 13 12
 -13378056.590 8  73957188.016 7  21560248.301 0  21560250.843 0
   2409994.805 8  57407448.638 8  21858239.880 0  21858244.236 0
 -11949069.733 8 137213300.223 7  22150608.590 0  22150612.083 0
 88  3  3 10  1 29.0800000  0  3  3 13 12
 -13404937.306 7  73936241.994 6  21555132.193 0  21555135.099 0
   2448554.629 7  57437495.237 7  21865577.387 0  21865581.510 0
 -11860762.277 8 137282111.230 7  22167412.294 0  22167416.349 0
 88  3  3 10  1 59.0800000  0  3  3 13 12
 -13431712.681 7  73915378.074 7  21550036.686 0  21550040.000 0
   2487166.788 8  57467582.638 7  21872924.870 0  21872928.948 0
 -11772099.298 8 137351199.269 8  22184284.179 0  22184288.786 0
 88  3  3 10  2 29.0800000  0  3  3 13 12
 -13458383.092 8  73894595.933 7  21544962.013 0  21544964.270 0
   2525830.627 8  57497710.298 7  21880283.078 0  21880286.305 0
 -11683083.727 8 137420562.040 7  22201222.411 0  22201227.462 0
 88  3  3 10  2 59.0800000  0  3  3 13 12
 -13484949.055 8  73873895.199 7  21539906.754 0  21539909.859 0
   2564545.711 7  57527877.889 7  21887650.364 0  21887652.042 0
 -11593719.115 7 137490196.786 7  22218228.677 0  22218233.375 0
 88  3  3 10  3 29.0800000  0  3  3 13 12
 -13511410.627 8  73853275.790 7  21534871.527 0  21534876.027 0
   2603311.785 8  57558085.210 7  21895026.447 0  21895029.225 0
 -11504008.560 8 137560101.100 7  22235300.432 0  22235304.887 0
 88  3  3 10  3 59.0800000  0  3  3 13 12
 -13537768.186 7  73832737.458 7  21529855.083 0  21529859.431 0
   2642128.957 7  57588332.349 7  21902413.090 0  21902416.288 0
 -11413956.044 8 137630271.894 8  22252436.693 0  22252440.447 0
 88  3  3 10  4 29.0800000  0  3  3 13 12
 -13564022.134 8  73812279.818 7  21524859.397 0  21524862.851 0
   2680997.283 7  57618619.362 7  21909808.699 0  21909812.980 0
 -11323564.310 7 137700707.010 8  22269637.316 0  22269641.462 0
 88  3  3 10  4 59.0800000  0  3  3 13 12
 -13590172.953 7  73791902.554 7  21519882.129 0  21519886.092 0
   2719916.610 8  57648946.099 7  21917215.368 0  21917219.493 0
 -11232836.480 7 137771404.025 8  22286902.285 0  22286906.744 0
 88  3  3 10  5 29.0800000  0  3  3 13 12
 -13616220.466 7  73771605.815 7  21514926.525 0  21514929.157 0
   2758887.237 8  57679312.805 7  21924631.012 0  21924635.981 0
 -11141776.234 8 137842360.070 8  22304230.976 0  22304235.426 0
 88  3  3 10  5 59.0800000  0  3  3 13 12
 -13642165.219 7  73751389.123 6  21509990.376 0  21509992.135 0
   2797908.328 8  57709718.845 7  21932057.415 0  21932060.844 0
 -11050387.015 8 137913572.434 8  22321621.645 0  22321625.403 0
 88  3  3 10  6 29.0800000  0  3  3 13 12
 -13668008.040 8  73731251.861 7  21505071.625 0  21505074.161 0
   2836979.504 8  57740163.917 7  21939491.498 0  21939495.769 0
 -10958672.557 7 137985038.218 8  22339074.356 0  22339079.137 0
 88  3  3 10  6 59.0800000  0  3  3 13 12
 -13693748.700 8  73711194.213 7  21500173.960 0  21500176.058 0
   2876101.389 7  57770648.492 7  21946936.969 0  21946942.003 0
 -10866635.868 8 138056755.099 8  22356588.563 0  22356593.204 0
 88  3  3 10  7 29.0800000  0  3  3 13 12
 -13719387.615 7  73691215.843 7  21495294.820 0  21495297.130 0
   2915273.756 8  57801172.411 7  21954390.695 0  21954395.239 0
 -10774280.221 7 138128720.554 7  22374162.514 0  22374167.072 0
 88  3  3 10  7 59.0800000  0  3  3 13 12
 -13744925.592 8  73671316.118 7  21490434.090 0  21490438.279 0
   2954495.982 7  57831735.173 7  21961854.522 0  21961858.450 0
 -10681609.627 7 138200931.402 8  22391797.563 0  22391802.847 0
 88  3  3 10  8 29.0800000  0  3  3 13 12
 -13770362.702 8  73651495.003 6  21485593.462 0  21485597.976 0
   2993768.004 7  57862336.753 7  21969327.877 0  21969332.758 0
 -10588627.224 8 138273385.191 7  22409491.500 0  22409496.149 0
 88  3  3 10  8 59.0800000  0  3  3 13 12
 -13795698.881 7  73631752.525 7  21480773.617 0  21480776.245 0
   3033090.987 7  57892978.029 7  21976810.096 0  21976814.319 0
 -10495336.150 8 138346079.536 8  22427243.496 0  22427248.052 0
 88  3  3 10  9 29.0800000  0  3  3 13 12
 -13820934.522 7  73612088.394 7  21475971.055 0  21475974.336 0
   3072464.394 7  57923658.594 7  21984303.355 0  21984307.213 0
 -10401739.505 7 138419011.967 7  22445053.956 0  22445060.220 0
 88  3  3 10  9 59.0800000  0  3  3 13 12
 -13846069.830 7  73592502.449 6  21471186.916 0  21471191.056 0
   3111887.626 7  57954377.991 8  21991805.014 0  21991809.421 0
 -10307841.274 8 138492179.431 7  22462923.032 0  22462927.151 0
 88  3  3 10 10 29.0800000  0  3  3 13 12
 -13871105.363 7  73572994.242 6  21466423.541 0  21466426.583 0
   3151360.883 7  57985136.354 7  21999316.558 0  21999320.802 0
 -10213645.166 8 138565579.004 7  22480847.043 0  22480852.917 0
 88  3  3 10 10 59.0800000  0  3  3 13 12
 -13896041.531 7  73553563.469 7  21461677.599 0  21461681.592 0
   3190884.469 8  58015933.942 7  22006837.344 0  22006842.086 0
 -10119153.861 7 138639208.589 8  22498828.687 0  22498834.584 0
 88  3  3 10 11 29.0800000  0  3  3 13 12
 -13920878.087 8  73534210.304 7  21456952.496 0  21456954.444 0
   3230457.618 7  58046770.146 7  22014368.016 0  22014371.754 0
 -10024371.510 8 138713064.950 7  22516866.066 0  22516870.031 0
 88  3  3 10 11 59.0800000  0  3  3 13 12
 -13945615.746 7  73514934.215 7  21452244.207 0  21452246.939 0
   3270080.379 8  58077645.017 7  22021908.919 0  22021912.951 0
  -9929301.973 8 138787145.122 8  22534957.016 0  22534961.109 0
 88  3  3 10 12 29.0800000  0  3  3 13 12
 -13970254.886 8  73495734.897 7  21447556.635 0  21447558.282 0
   3309752.805 8  58108558.582 7  22029456.907 0  22029461.994 0
  -9833948.235 7 138861446.757 7  22553100.587 0  22553106.697 0
 88  3  3 10 12 59.0800000  0  3  3 13 12
 -13994795.428 7  73476612.383 7  21442886.118 0  21442889.391 0
   3349475.124 7  58139511.036 7  22037016.309 0  22037020.242 0
  -9738313.430 8 138935967.377 7  22571301.510 0  22571304.704 0
 88  3  3 10 13 29.0800000  0  3  3 13 12
 -14019237.377 7  73457566.710 7  21438234.416 0  21438238.494 0
   3389247.465 7  58170502.451 7  22044584.736 0  22044588.384 0
  -9642401.039 8 139010704.299 7  22589551.703 0  22589556.935 0
 88  3  3 10 13 59.0800000  0  3  3 13 12
 -14043581.307 7  73438597.428 7  21433600.864 0  21433605.834 0
   3429069.558 7  58201532.641 7  22052162.023 0  22052167.287 0
  -9546215.013 8 139085654.459 7  22607855.584 0  22607860.937 0
 88  3  3 10 14 29.0800000  0  3  3 13 12
 -14067827.186 7  73419704.540 7  21428988.426 0  21428991.690 0
   3468941.822 7  58232601.934 6  22059750.276 0  22059754.474 0
  -9449758.637 7 139160815.258 7  22626210.367 0  22626215.642 0
 88  3  3 10 14 59.0800000  0  3  3 13 12
 -14091975.155 7  73400887.942 7  21424393.413 0  21424396.779 0
   3508863.979 7  58263710.107 7  22067346.614 0  22067351.769 0
  -9353035.589 8 139236183.878 7  22644618.018 0  22644620.849 0
 88  3  3 10 15 29.0800000  0  3  3 13 12
 -14116025.041 7  73382147.769 7  21419816.259 0  21419819.721 0
   3548836.271 7  58294857.329 7  22074953.656 0  22074958.101 0
  -9256048.282 7 139311758.400 7  22663072.642 0  22663077.074 0
 88  3  3 10 15 59.0800000  0  3  3 13 12
 -14139978.048 7  73363483.088 7  21415258.361 0  21415261.390 0
   3588858.300 7  58326043.323 7  22082569.275 0  22082574.444 0
  -9158801.192 7 139387535.333 7  22681577.912 0  22681582.573 0
 88  3  3 10 16 29.0800000  0  3  3 13 12
 -14163834.176 7  73344893.897 6  21410719.113 0  21410722.543 0
   3628930.163 7  58357268.157 7  22090194.359 0  22090198.609 0
  -9061298.071 7 139463511.816 7  22700132.793 0  22700137.125 0
 88  3  3 10 16 59.0800000  0  3  3 13 12
 -14187592.954 8  73326380.565 7  21406196.966 0  21406201.142 0
   3669052.845 8  58388532.576 7  22097829.762 0  22097834.298 0
  -8963541.975 7 139539685.405 6  22718734.346 0  22718740.189 0
 88  3  3 10 17 29.0800000  0  3  3 13 12
 -14211254.986 8  73307942.614 7  21401694.449 0  21401698.127 0
   3709225.737 8  58419836.120 7  22105474.991 0  22105479.614 0
  -8865536.593 7 139616053.229 7  22737385.082 0  22737389.023 0
 88  3  3 10 17 59.0800000  0  3  3 13 12
 -14234820.560 8  73289579.832 6  21397211.174 0  21397214.170 0
   3749448.611 7  58451178.619 7  22113128.483 0  22113133.811 0
  -8767285.237 7 139692612.723 7  22756081.967 0  22756086.145 0
 88  3  3 10 18 29.0800000  0  3  3 13 12
 -14258289.589 7  73271292.279 6  21392744.356 0  21392746.901 0
   3789721.553 7  58482560.114 6  22120792.638 0  22120796.929 0
  -8668791.690 8 139769360.941 7  22774823.776 0  22774827.774 0
 88  3  3 10 18 59.0800000  0  3  3 13 12
 -14281662.299 7  73253079.801 7  21388296.388 0  21388299.349 0
   3830045.858 7  58513981.652 7  22128466.123 0  22128470.257 0
  -8570058.680 7 139846295.780 7  22793611.492 0  22793617.872 0
 88  3  3 10 19 29.0800000  0  3  3 13 12
 -14304938.512 7  73234942.501 7  21383867.731 0  21383871.039 0
   3870421.410 7  58545443.111 7  22136150.256 0  22136153.406 0
  -8471090.314 7 139923413.977 7  22812445.909 0  22812448.905 0
 88  3  3 10 19 59.0800000  0  3  3 13 12
 -14328118.461 7  73216880.209 7  21379455.892 0  21379459.317 0
   3910847.435 7  58576943.901 7  22143842.139 0  22143846.217 0
  -8371890.140 8 140000712.812 7  22831323.169 0  22831326.785 0
 88  3  3 10 20 29.0800000  0  3  3 13 12
 -14351202.589 7  73198892.591 7  21375062.312 0  21375066.853 0
   3951324.184 8  58608484.225 7  22151544.426 0  22151548.637 0
  -8272461.890 7 140078189.351 7  22850243.097 0  22850248.065 0
 88  3  3 10 20 59.0800000  0  3  3 13 12
 -14374190.593 7  73180979.867 7  21370689.537 0  21370692.497 0
   3991852.328 7  58640064.586 7  22159257.634 0  22159261.291 0
  -8172808.759 7 140155841.155 7  22869207.263 0  22869210.692 0
 88  3  3 10 21 29.0800000  0  3  3 13 12
 -14397082.129 8  73163142.308 7  21366333.546 0  21366337.208 0
   4032432.631 8  58671685.579 7  22166979.389 0  22166982.519 0
  -8072933.719 7 140233665.875 7  22888212.610 0  22888217.259 0
 88  3  3 10 21 59.0800000  0  3  3 13 12
 -14419877.664 7  73145379.557 7  21361994.337 0  21361998.005 0
   4073063.835 7  58703346.270 7  22174711.150 0  22174715.128 0
  -7972840.399 8 140311660.639 7  22907259.204 0  22907263.808 0
 88  3  3 10 22 29.0800000  0  3  3 13 12
 -14442578.067 8  73127690.955 7  21357675.509 0  21357678.290 0
   4113745.945 8  58735046.602 7  22182452.650 0  22182456.018 0
  -7872533.668 8 140389821.756 7  22926347.468 0  22926350.528 0
 88  3  3 10 22 59.0800000  0  3  3 13 12
 -14465182.422 7  73110077.175 7  21353374.595 0  21353377.289 0
   4154480.108 7  58766787.491 7  22190204.648 0  22190208.475 0
  -7772016.056 8 140468147.167 7  22945475.032 0  22945478.122 0
 88  3  3 10 23 29.0800000  0  3  3 13 12
 -14487691.041 8  73092537.999 7  21349091.015 0  21349094.061 0
   4195266.189 8  58798568.850 7  22197965.606 0  22197969.415 0
  -7671291.129 7 140546634.139 7  22964642.529 0  22964647.323 0
 88  3  3 10 23 59.0800000  0  3  3 13 12
 -14510104.068 8  73075073.319 6  21344825.101 0  21344829.374 0
   4236104.760 7  58830391.110 7  22205736.873 0  22205740.193 0
  -7570362.213 7 140625280.038 7  22983847.620 0  22983853.204 0
 88  3  3 10 24 29.0800000  0  3  3 13 12
 -14532421.341 7  73057683.228 7  21340578.845 0  21340580.714 0
   4276996.340 7  58862254.658 7  22213518.278 0  22213522.396 0
  -7469232.526 7 140704082.402 7  23003092.400 0  23003097.059 0
 88  3  3 10 24 59.0800000  0  3  3 13 12
 -14554643.142 7  73040367.549 7  21336350.107 0  21336352.977 0
   4317939.932 7  58894158.753 7  22221308.821 0  22221313.575 0
  -7367906.400 7 140783037.819 7  23022373.905 0  23022377.801 0
 88  3  3 10 25 29.0800000  0  3  3 13 12
 -14576769.695 7  73023126.062 7  21332140.011 0  21332143.324 0
   4358936.188 7  58926103.865 7  22229110.366 0  22229113.996 0
  -7266387.541 7 140862143.417 7  23041691.810 0  23041697.003 0
 88  3  3 10 25 59.0800000  0  3  3 13 12
 -14598800.668 8  73005959.070 7  21327947.479 0  21327950.185 0
   4399985.314 7  58958090.199 7  22236922.422 0  22236926.861 0
  -7164679.045 7 140941396.799 7  23061046.815 0  23061051.552 0
 88  3  3 10 26 29.0800000  0  3  3 13 12
 -14620736.219 7  72988866.450 7  21323773.023 0  21323775.991 0
   4441087.572 7  58990117.929 7  22244743.471 0  22244748.122 0
  -7062784.305 8 141020795.271 7  23080436.946 0  23080441.868 0
 88  3  3 10 26 59.0800000  0  3  3 13 12
 -14642576.498 7  72971848.056 6  21319617.232 0  21319619.516 0
   4482243.472 7  59022187.442 7  22252575.229 0  22252579.440 0
  -6960706.966 8 141100336.061 7  23099863.127 0  23099866.922 0
 88  3  3 10 27 29.0800000  0  3  3 13 12
 -14664320.805 7  72954904.440 7  21315479.558 0  21315481.870 0
   4523453.330 7  59054299.004 7  22260417.067 0  22260421.633 0
  -6858450.361 8 141180016.524 8  23119320.106 0  23119324.939 0
 88  3  3 10 27 59.0800000  0  3  3 13 12
 -14685969.568 7  72938035.283 7  21311359.394 0  21311363.847 0
   4564716.894 7  59086452.421 6  22268269.987 0  22268273.123 0
  -6756018.626 8 141259833.436 7  23138812.202 0  23138817.699 0
 88  3  3 10 28 29.0800000  0  3  3 13 12
 -14707522.400 8  72921240.870 7  21307258.326 0  21307261.951 0
   4606035.196 8  59118648.486 7  22276132.508 0  22276135.886 0
  -6653414.406 8 141339784.781 7  23158338.118 0  23158342.693 0
 88  3  3 10 28 59.0800000  0  3  3 13 12
 -14728979.738 8  72904520.852 7  21303174.618 0  21303179.475 0
   4647407.904 8  59150886.953 7  22284004.868 0  22284007.893 0
  -6550641.483 8 141419867.584 7  23177894.120 0  23177898.207 0
 88  3  3 10 29 29.0800000  0  3  3 13 12
 -14750341.166 7  72887875.576 6  21299109.904 0  21299113.862 0
   4688835.755 7  59183168.393 7  22291889.207 0  22291892.825 0
  -6447703.198 8 141500079.257 7  23197483.060 0  23197488.533 0
 88  3  3 10 29 59.0800000  0  3  3 13 12
 -14771606.081 8  72871305.512 7  21295062.872 0  21295066.759 0
   4730319.505 7  59215493.378 7  22299782.041 0  22299787.641 0
  -6344603.257 8 141580416.869 7  23217102.520 0  23217106.526 0
 88  3  3 10 30 29.0800000  0  3  3 13 12
 -14792775.293 7  72854810.025 7  21291034.985 0  21291038.958 0
   4771858.495 7  59247861.410 7  22307687.526 0  22307692.532 0
  -6241345.336 7 141660877.572 8  23236751.521 0  23236757.157 0
 88  3  3 10 30 59.0800000  0  3  3 13 12
 -14813848.322 7  72838389.488 7  21287025.482 0  21287028.397 0
   4813453.072 8  59280272.755 7  22315603.133 0  22315607.798 0
  -6137932.782 8 141741458.788 7  23256430.163 0  23256434.332 0
 88  3  3 10 31 29.0800000  0  3  3 13 12
 -14834825.193 7  72822043.884 7  21283033.875 0  21283036.297 0
   4855103.599 7  59312727.689 7  22323529.206 0  22323532.424 0
  -6034369.540 8 141822157.436 7  23276137.621 0  23276141.914 0
 88  3  3 10 31 59.0800000  0  3  3 13 12
 -14855705.561 8  72805773.474 7  21279059.141 0  21279062.670 0
   4896810.792 7  59345226.795 7  22331465.139 0  22331470.258 0
  -5930658.285 8 141902971.423 7  23295874.578 0  23295877.316 0
 88  3  3 10 32 29.0800000  0  3  3 13 12
 -14876489.707 7  72789578.055 7  21275104.023 0  21275107.861 0
   4938574.846 7  59377770.197 7  22339412.084 0  22339416.131 0
  -5826802.679 7 141983897.880 7  23315636.860 0  23315641.334 0
 88  3  3 10 32 59.0800000  0  3  3 13 12
 -14897177.511 7  72773457.702 7  21271166.751 0  21271171.401 0
   4980396.103 7  59410358.187 7  22347370.922 0  22347375.632 0
  -5722806.647 7 142064933.733 7  23335425.836 0  23335431.878 0
 88  3  3 10 33 29.0800000  0  3  3 13 12
 -14917768.354 8  72757412.876 7  21267248.788 0  21267252.809 0
   5022275.045 7  59442991.112 7  22355340.302 0  22355344.505 0
  -5618673.823 7 142146076.214 6  23355242.894 0  23355247.006 0
 88  3  3 10 33 59.0800000  0  3  3 13 12
 -14938262.369 7  72741443.517 7  21263349.975 0  21263352.284 0
   5064211.779 7  59475669.076 7  22363319.936 0  22363325.207 0
  -5514407.433 7 142227322.729 7  23375082.036 0  23375086.513 0
 88  3  3 10 34 29.0800000  0  3  3 13 12
 -14958659.383 7  72725549.744 7  21259468.464 0  21259470.975 0
   5106207.127 7  59508392.705 7  22371311.689 0  22371316.737 0
  -5410010.637 7 142308670.875 7  23394948.573 0  23394953.885 0
 88  3  3 10 34 59.0800000  0  3  3 13 12
 -14978959.313 8  72709731.605 7  21255605.465 0  21255608.924 0
   5148261.004 7  59541161.950 7  22379313.751 0  22379319.753 0
  -5305487.312 7 142390117.615 7  23414838.486 0  23414844.544 0
 88  3  3 10 35 29.0800000  0  3  3 13 12
 -14999162.240 7  72693989.068 7  21251761.611 0  21251764.246 0
   5190373.505 8  59573976.860 7  22387328.911 0  22387331.817 0
  -5200841.536 7 142471659.774 7  23434751.886 0  23434758.124 0
 88  3  3 10 35 59.0800000  0  3  3 13 12
 -15019267.335 7  72678322.762 7  21247934.246 0  21247938.526 0
   5232545.265 7  59606837.967 7  22395353.486 0  22395358.555 0
  -5096075.642 8 142553295.521 7  23454688.710 0  23454694.578 0
 88  3  3 10 36 29.0800000  0  3  3 13 12
 -15039274.915 7  72662732.443 7  21244128.725 0  21244131.624 0
   5274776.646 7  59639745.525 7  22403388.985 0  22403393.698 0
  -4991193.965 7 142635021.483 7  23474646.953 0  23474652.519 0
 88  3  3 10 36 59.0800000  0  3  3 13 12
 -15059184.707 7  72647218.306 7  21240339.683 0  21240341.725 0
   5317068.000 8  59672699.820 7  22411437.628 0  22411441.464 0
  -4886199.632 8 142716835.227 7  23494627.214 0  23494632.038 0
 88  3  3 10 37 29.0800000  0  3  3 13 12
 -15078996.530 7  72631780.533 7  21236568.823 0  21236571.593 0
   5359419.328 8  59705700.833 7  22419495.526 0  22419500.950 0
  -4781096.282 7 142798733.924 7  23514628.029 0  23514632.538 0
 88  3  3 10 37 59.0800000  0  3  3 13 12
 -15098710.253 7  72616419.191 7  21232817.681 0  21232820.177 0
   5401831.369 7  59738749.182 7  22427567.407 0  22427572.302 0
  -4675887.471 8 142880714.837 6  23534649.021 0  23534652.370 0
 88  3  3 10 38 29.0800000  0  3  3 13 12
 -15118325.137 7  72601134.870 7  21229085.271 0  21229089.340 0
   5444305.093 8  59771845.582 6  22435650.163 0  22435654.608 0
  -4570576.362 8 142962775.441 7  23554687.997 0  23554691.728 0
 88  3  3 10 38 59.0800000  0  3  3 13 12
 -15137841.158 8  72585927.585 7  21225371.914 0  21225375.328 0
   5486840.700 7  59804990.191 7  22443744.777 0  22443748.345 0
  -4465166.225 8 143044913.215 6  23574747.921 0  23574752.323 0
 88  3  3 10 39 29.0800000  0  3  3 13 12
 -15157257.865 7  72570797.692 7  21221676.299 0  21221679.892 0
   5529438.561 7  59838183.321 7  22451850.217 0  22451855.150 0
  -4359660.998 8 143127125.100 7  23594824.902 0  23594828.760 0
 88  3  3 10 39 59.0800000  0  3  3 13 12
 -15176575.292 7  72555745.156 7  21218000.092 0  21218004.434 0
   5572098.901 7  59871425.130 7  22459967.126 0  22459972.944 0
  -4254064.047 8 143209408.426 7  23614918.871 0  23614923.666 0
 88  3  3 10 40 29.0800000  0  3  3 13 12
 -15195793.144 7  72540770.204 7  21214342.642 0  21214346.167 0
   5614822.341 7  59904716.114 8  22468097.705 0  22468102.558 0
  -4148378.524 8 143291760.795 6  23635030.183 0  23635035.311 0
 88  3  3 10 40 59.0800000  0  3  3 13 12
 -15214911.158 8  72525873.054 7  21210705.503 0  21210708.915 0
   5657609.018 7  59938056.373 7  22476239.491 0  22476244.395 0
  -4042608.572 7 143374178.954 7  23655156.892 0  23655162.369 0
 88  3  3 10 41 29.0800000  0  3  3 13 12
 -15233929.038 7  72511053.931 7  21207086.483 0  21207091.233 0
   5700459.946 7  59971446.689 7  22484393.575 0  22484398.615 0
  -3936757.063 7 143456660.618 7  23675300.116 0  23675305.046 0
 88  3  3 10 41 59.0800000  0  3  3 13 12
 -15252846.721 7  72496312.885 7  21203486.561 0  21203490.234 0
   5743375.108 7  60004887.062 7  22492561.099 0  22492565.782 0
  -3830827.796 8 143539202.920 6  23695457.436 0  23695462.114 0
 88  3  3 10 42 29.0800000  0  3  3 13 12
 -15271663.827 7  72481650.207 7  21199904.794 0  21199908.482 0
   5786355.064 7  60038377.921 8  22500739.058 0  22500744.659 0
  -3724823.595 8 143621803.621 7  23715630.258 0  23715633.678 0
 88  3  3 10 42 59.0800000  0  3  3 13 12
 -15290380.255 8  72467065.988 7  21196344.619 0  21196347.149 0
   5829399.667 7  60071919.163 7  22508930.432 0  22508935.927 0
  -3618748.526 7 143704459.513 7  23735815.721 0  23735819.851 0
 88  3  3 10 43 29.0800000  0  3  3 13 12
 -15308995.361 7  72452560.702 7  21192801.507 0  21192806.104 0
   5872509.299 7  60105511.070 7  22517133.779 0  22517138.414 0
  -3512606.234 7 143787167.813 7  23756013.136 0  23756017.182 0
 88  3  3 10 43 59.0800000  0  3  3 13 12
 -15327508.636 7  72438134.770 7  21189278.810 0  21189282.154 0
   5915685.925 7  60139155.177 7  22525350.800 0  22525354.661 0
  -3406399.604 7 143869926.196 7  23776220.576 0  23776227.732 0
 88  3  3 10 44 29.0800000  0  3  3 13 12
 -15345920.093 8  72423788.189 7  21185774.873 0  21185779.119 0
   5958928.983 7  60172851.058 7  22533578.806 0  22533583.797 0
  -3300132.358 7 143952731.790 7  23796443.378 0  23796449.740 0
 88  3  3 10 44 59.0800000  0  3  3 13 12
 -15364229.186 7  72409521.352 7  21182291.157 0  21182294.094 0
   6002238.835 8  60206598.988 7  22541822.019 0  22541824.684 0
  -3193808.149 7 144035581.829 7  23816678.654 0  23816682.423 0
 88  3  3 10 45 29.0800000  0  3  3 13 12
 -15382435.483 7  72395334.637 7  21178826.333 0  21178829.511 0
   6045616.357 7  60240399.638 7  22550075.693 0  22550080.305 0
  -3087429.606 7 144118474.201 7  23836921.078 0  23836926.002 0
 88  3  3 10 45 59.0800000  0  3  3 13 12
 -15400538.529 7  72381228.369 7  21175381.824 0  21175384.680 0
   6089062.504 7  60274253.762 8  22558342.961 0  22558347.641 0
  -2981000.710 7 144201405.779 8  23857174.625 0  23857179.290 0
 88  3  3 10 46 29.0800000  0  3  3 13 12
 -15418537.987 7  72367202.817 7  21171955.939 0  21171960.326 0
   6132577.106 7  60308161.231 7  22566623.832 0  22566627.912 0
  -2874524.472 7 144284374.265 8  23877436.527 0  23877440.619 0
 88  3  3 10 46 59.0800000  0  3  3 13 12
 -15436433.399 7  72353258.352 7  21168550.821 0  21168555.011 0
   6176161.077 7  60342122.768 7  22574918.547 0  22574921.423 0
  -2768004.379 7 144367376.913 7  23897706.231 0  23897711.148 0
 88  3  3 10 47 29.0800000  0  3  3 13 12
 -15454224.086 7  72339395.486 6  21165165.021 0  21165169.029 0
   6219815.251 7  60376138.994 7  22583225.645 0  22583229.072 0
  -2661443.843 8 144450411.125 7  23917984.141 0  23917989.368 0
 88  3  3 10 47 59.0800000  0  3  3 13 12
 -15471909.811 7  72325614.384 7  21161799.728 0  21161803.230 0
   6263539.498 8  60410209.828 7  22591544.932 0  22591549.082 0
  -2554845.654 8 144533474.627 8  23938269.625 0  23938275.137 0
 88  3  3 10 48 29.0800000  0  3  3 13 12
 -15489490.508 7  72311915.137 7  21158454.808 0  21158457.869 0
   6307335.034 7  60444336.194 7  22599878.119 0  22599883.310 0
  -2448213.962 7 144616564.248 8  23958560.614 0  23958565.456 0
 88  3  3 10 48 59.0800000  0  3  3 13 12
 -15506965.054 7  72298298.607 7  21155129.756 0  21155133.077 0
   6351202.449 8  60478518.591 7  22608227.172 0  22608231.135 0
  -2341551.598 8 144699677.797 7  23978857.994 0  23978862.227 0
 88  3  3 10 49 29.0800000  0  3  3 13 12
 -15524333.282 7  72284764.919 7  21151823.565 0  21151827.963 0
   6395141.503 8  60512756.789 8  22616587.353 0  22616591.841 0
  -2234862.366 8 144782812.280 8  23999159.552 0  23999165.327 0
 88  3  3 10 49 59.0800000  0  3  3 13 12
 -15541595.065 7  72271314.176 7  21148540.002 0  21148543.495 0
   6439152.599 8  60547051.134 7  22624963.675 0  22624967.299 0
  -2128149.934 8 144865964.823 7  24019467.376 0  24019472.378 0
 88  3  3 10 50 29.0800000  0  3  3 13 12
 -15558749.690 7  72257946.956 7  21145274.820 0  21145278.869 0
   6483236.870 7  60581402.512 7  22633352.498 0  22633356.388 0
  -2021417.316 7 144949133.087 7  24039778.127 0  24039781.873 0
 88  3  3 10 50 59.0800000  0  3  3 13 12
 -15575796.732 7  72244663.524 7  21142030.592 0  21142035.265 0
   6527394.918 7  60615811.370 7  22641754.730 0  22641759.525 0
  -1914667.335 7 145032314.862 7  24060091.791 0  24060096.490 0
 88  3  3 10 51 29.0800000  0  3  3 13 12
 -15592735.191 8  72231464.740 7  21138807.904 0  21138811.000 0
   6571627.324 7  60650278.162 7  22650171.970 0  22650176.201 0
  -1807903.463 7 145115507.489 6  24080406.608 0  24080411.744 0
 88  3  3 10 51 59.0800000  0  3  3 13 12
 -15609565.013 8  72218350.575 7  21135604.244 0  21135608.427 0
   6615934.603 7  60684803.296 7  22658604.097 0  22658608.168 0
  -1701129.650 7 145198707.872 7  24100725.958 0  24100730.612 0
 88  3  3 10 52 29.0800000  0  3  3 13 12
 -15626286.148 7  72205321.147 7  21132423.470 0  21132427.434 0
   6660316.799 6  60719386.804 7  22667050.710 0  22667052.774 0
  -1594349.363 7 145281913.291 7  24121045.632 0  24121050.425 0
 88  3  3 10 52 59.0800000  0  3  3 13 12
 -15642897.813 7  72192376.995 6  21129262.132 0  21129265.278 0
   6704774.908 7  60754029.470 7  22675510.428 0  22675512.665 0
  -1487565.498 7 145365121.468 6  24141365.915 0  24141370.131 0
 88  3  3 10 53 29.0800000  0  3  3 13 12
 -15659399.497 8  72179518.534 7  21126121.853 0  21126125.321 0
   6749309.412 7  60788731.672 7  22683984.542 0  22683989.094 0
  -1380781.037 7 145448330.167 5  24161687.698 0  24161690.824 0
 88  3  3 10 53 59.0800000  0  3  3 13 12
 -15675790.717 7  72166746.150 7  21123003.050 0  21123004.971 0
   6793920.948 7  60823493.870 7  22692473.909 0  22692476.912 0
  -1273999.441 6 145531536.598 6  24182005.336 0  24182011.770 0
 88  3  3 10 54 29.0800000  0  3  3 13 12
 -15692070.355 7  72154060.728 7  21119905.720 0  21119908.916 0
   6838610.455 7  60858316.853 7  22700977.318 0  22700981.276 0
  -1167224.274 7 145614738.013 6  24202324.104 0  24202328.787 0
 88  3  3 10 54 59.0800000  0  3  3 13 12
 -15708237.810 7  72141462.704 7  21116829.158 0  21116832.329 0
   6883378.367 7  60893200.925 7  22709497.383 0  22709500.237 0
  -1060458.501 7 145697932.101 6  24222641.877 0  24222647.024 0
 88  3  3 10 55 29.0800000  0  3  3 13 12
 -15724292.451 7  72128952.584 7  21113773.369 0  21113777.228 0
   6928225.534 7  60928146.758 7  22718031.249 0  22718034.898 0
   -953705.280 7 145781116.445 6  24242956.238 0  24242962.310 0
 88  3  3 10 55 59.0800000  0  3  3 13 12
 -15740233.721 7  72116530.826 7  21110740.208 0  21110742.819 0
   6973152.452 7  60963154.734 7  22726581.059 0  22726584.084 0
   -846968.118 7 145864288.287 6  24263268.356 0  24263271.703 0
 88  3  3 10 56 29.0800000  0  3  3 13 12
 -15756061.395 7  72104197.577 7  21107726.710 0  21107731.623 0
   7018159.610 7  60998225.224 8  22735144.374 0  22735149.019 0
   -740250.002 7 145947445.290 5  24283575.588 0  24283579.444 0
 88  3  3 10 56 59.0800000  0  3  3 13 12
 -15771775.124 7  72091953.109 7  21104736.996 0  21104740.337 0
   7063247.512 7  61033358.626 7  22743724.577 0  22743729.240 0
   -633554.818 8 146030584.390 6  24303879.180 0  24303883.219 0
 88  3  3 10 57 29.0800000  0  3  3 13 12
 -15787374.302 7  72079797.902 6  21101768.947 0  21101771.609 0
   7108416.470 7  61068555.200 7  22752319.211 0  22752324.326 0
   -526885.725 7 146113703.174 5  24324176.776 0  24324181.203 0
 88  3  3 10 57 59.0800000  0  3  3 13 12
 -15802857.999 8  72067732.683 6  21098822.459 0  21098826.168 0
   7153667.606 7  61103815.792 7  22760929.871 0  22760935.512 0
   -420245.657 8 146196799.338 7  24344468.937 0  24344473.122 0
 88  3  3 10 58 29.0800000  0  3  3 13 12
 -15818225.527 8  72055757.995 6  21095898.887 0  21095901.198 0
   7199001.543 7  61139140.924 7  22769557.750 0  22769562.535 0
   -313638.333 7 146279870.003 6  24364757.227 0  24364761.491 0
 88  3  3 10 58 59.0800000  0  3  3 13 12
 -15833476.481 7  72043874.122 7  21092995.753 0  21092999.177 0
   7244418.390 7  61174530.663 7  22778200.200 0  22778205.368 0
   -207066.729 8 146362912.777 6  24385038.129 0  24385040.587 0
 88  3  3 10 59 29.0800000  0  3  3 13 12
 -15848610.210 7  72032081.603 6  21090116.867 0  21090119.170 0
   7289919.257 7  61209985.867 7  22786858.823 0  22786862.762 0
   -100533.869 7 146445925.384 7  24405310.563 0  24405313.879 0
 88  3  3 10 59 59.0800000  0  3  3 13 12
 -15863626.991 8  72020380.227 7  21087258.809 0  21087261.075 0
   7335504.487 7  61245506.815 7  22795533.786 0  22795537.069 0
      5956.171 6 146528904.639 7  24425571.395 0  24425577.831 0
 88  3  3 11  0 29.0800000  0  3  3 13 12
 -15878525.270 8  72008771.169 7  21084423.700 0  21084426.537 0
   7381174.240 7  61281093.618 7  22804224.734 0  22804227.705 0
    112400.943 6 146611848.540 7  24445830.383 0  24445834.455 0
 88  3  3 11  0 59.0800000  0  3  3 13 12
 -15893304.237 7  71997255.084 7  21081611.638 0  21081614.429 0
   7426929.900 7  61316747.369 7  22812930.807 0  22812935.317 0
    218796.848 6 146694754.417 6  24466073.682 0  24466080.525 0
 88  3  3 11  1 29.0800000  0  3  3 13 12
 -15907963.181 7  71985832.533 7  21078821.518 0  21078825.169 0
   7472772.069 7  61352468.522 7  22821654.864 0  22821658.842 0
    325141.529 7 146777620.347 6  24486313.306 0  24486317.115 0
 88  3  3 11  1 59.0800000  0  3  3 13 12
 -15922501.292 8  71974504.130 7  21076055.302 0  21076059.250 0
   7518700.925 7  61388257.234 7  22830394.681 0  22830398.920 0
    431431.059 7 146860443.358 7  24506539.178 0  24506543.470 0
 88  3  3 11  2 29.0800000  0  3  3 13 12
 -15936918.750 7  71963269.737 7  21073312.267 0  21073316.243 0
   7564717.164 8  61424114.031 7  22839151.789 0  22839155.826 0
    537661.890 7 146943220.606 6  24526753.944 0  24526758.943 0
 88  3  3 11  2 59.0800000  0  3  3 13 12
 -15951214.715 7  71952130.029 7  21070590.331 0  21070594.383 0
   7610821.447 7  61460039.430 7  22847924.239 0  22847929.634 0
    643830.511 7 147025949.453 6  24546956.318 0  24546961.614 0
 88  3  3 11  3 29.0800000  0  3  3 13 12
 -15965387.702 8  71941086.142 7  21067895.404 0  21067897.348 0
   7657015.221 7  61496034.569 8  22856714.759 0  22856719.753 0
    749935.217 8 147108628.498 5  24567148.679 0  24567152.088 0
 88  3  3 11  3 59.0800000  0  2  3 13
 -15979436.939 8  71930138.684 6  21065221.948 0  21065223.840 0
   7703299.520 7  61532100.247 7  22865522.523 0  22865527.468 0
 88  3  3 11  4 29.0800000  0  2  3 13
 -15993361.628 8  71919288.277 7  21062571.440 0  21062574.178 0
   7749674.132 7  61568236.276 7  22874347.041 0  22874352.548 0
 88  3  3 11  4 59.0800000  0  2  3 13
 -16007161.319 7  71908535.264 6  21059945.287 0  21059948.651 0
   7796139.885 7  61604443.355 7  22883190.302 0  22883194.066 0
 88  3  3 11  5 29.0800000  0  2  3 13
 -16020835.661 7  71897879.932 7  21057343.557 0  21057344.398 0
   7842697.341 8  61640721.879 7  22892048.379 0  22892053.380 0
 88  3  3 11  5 59.0800000  0  2  3 13
 -16034383.449 7  71887323.217 6  21054764.783 0  21054768.281 0
   7889347.201 7  61677072.399 7  22900925.857 0  22900930.442 0
 88  3  3 11  6 29.0800000  0  2  3 13
 -16047804.114 7  71876865.552 6  21052212.236 0  21052214.117 0
   7936089.560 7  61713495.007 7  22909821.424 0  22909826.237 0
 88  3  3 11  6 59.0800000  0  2  3 13
 -16061096.942 8  71866507.513 7  21049681.435 0  21049684.277 0
   7982925.508 7  61749990.520 7  22918734.122 0  22918739.131 0
 88  3  3 11  7 29.0800000  0  2  3 13
 -16074261.571 8  71856249.359 7  21047176.779 0  21047179.308 0
   8029855.710 7  61786559.481 7  22927664.135 0  22927668.467 0
 88  3  3 11  7 59.0800000  0  2  3 13
 -16087296.554 8  71846092.221 7  21044696.284 0  21044699.949 0
   8076880.424 7  61823202.101 7  22936612.296 0  22936616.606 0
 88  3  3 11  8 29.0800000  0  2  3 13
 -16100200.149 8  71836037.475 7  21042240.299 0  21042243.522 0
   8124002.063 7  61859920.246 7  22945578.777 0  22945583.674 0
 88  3  3 11  8 59.0800000  0  2  3 13
 -16112972.518 8  71826084.990 7  21039810.346 0  21039813.415 0
   8171220.736 7  61896713.990 7  22954565.692 0  22954570.321 0
 88  3  3 11  9 29.0800000  0  2  3 13
 -16125612.695 8  71816235.507 7  21037404.456 0  21037408.095 0
   8218536.679 7  61933583.525 8  22963569.055 0  22963574.559 0
 88  3  3 11  9 59.0800000  0  2  3 13
 -16138120.290 7  71806489.332 8  21035024.682 0  21035026.693 0
   8265949.968 7  61970528.950 7  22972590.858 0  22972596.642 0
 88  3  3 11 10 29.0800000  0  2  3 13
 -16150494.266 7  71796847.268 7  21032669.369 0  21032672.806 0
   8313461.424 7  62007550.850 7  22981633.892 0  22981636.394 0
 88  3  3 11 10 59.0800000  0  2  3 13
 -16162733.794 8  71787309.978 7  21030340.887 0  21030343.708 0
   8361072.554 7  62044650.392 7  22990692.909 0  22990697.309 0
 88  3  3 11 11 29.0800000  0  2  3 13
 -16174837.375 7  71777878.615 7  21028037.292 0  21028041.371 0
   8408783.909 7  62081828.066 7  22999771.290 0  22999776.050 0
 88  3  3 11 11 59.0800000  0  2  3 13
 -16186804.562 7  71768553.540 7  21025760.245 0  21025763.069 0
   8456595.971 7  62119084.194 7  23008870.344 0  23008874.172 0
 88  3  3 11 12 29.0800000  0  2  3 13
 -16198634.697 8  71759335.248 7  21023509.643 0  21023512.714 0
   8504508.863 7  62156418.903 7  23017988.349 0  23017992.281 0
 88  3  3 11 12 59.0800000  0  2  3 13
 -16210327.330 8  71750224.102 7  21021283.079 0  21021287.912 0
   8552523.562 8  62193832.943 7  23027125.066 0  23027129.839 0
 88  3  3 11 13 29.0800000  0  2  3 13
 -16221881.133 7  71741221.140 7  21019085.237 0  21019089.134 0
   8600641.306 7  62231327.267 7  23036281.201 0  23036285.526 0
 88  3  3 11 13 59.0800000  0  2  3 13
 -16233294.616 7  71732327.530 7  21016913.653 0  21016916.489 0
   8648862.910 7  62268902.523 7  23045458.573 0  23045462.669 0
 88  3  3 11 14 29.0800000  0  2  3 13
 -16244566.899 8  71723543.913 7  21014769.079 0  21014771.731 0
   8697188.869 7  62306559.102 7  23054654.338 0  23054657.167 0
 88  3  3 11 14 59.0800000  0  2  3 13
 -16255697.453 7  71714870.759 7  21012650.357 0  21012652.286 0
   8745620.172 7  62344297.759 7  23063870.124 0  23063873.746 0
 88  3  3 11 15 29.0800000  0  2  3 13
 -16266685.344 7  71706308.772 7  21010559.638 0  21010562.447 0
   8794156.636 7  62382118.361 7  23073106.858 0  23073110.484 0
 88  3  3 11 15 59.0800000  0  2  3 13
 -16277529.496 7  71697858.779 7  21008496.183 0  21008499.316 0
   8842800.040 7  62420022.307 7  23082363.208 0  23082367.363 0
 88  3  3 11 16 29.0800000  0  2  3 13
 -16288229.490 8  71689521.122 7  21006458.697 0  21006461.721 0
   8891550.654 7  62458009.786 7  23091639.351 0  23091644.735 0
 88  3  3 11 16 59.0800000  0  2  3 13
 -16298783.755 7  71681297.021 7  21004451.040 0  21004455.622 0
   8940409.383 7  62496081.498 7  23100936.958 0  23100941.509 0
 88  3  3 11 17 29.0800000  0  2  3 13
 -16309191.443 7  71673187.130 6  21002470.403 0  21002473.461 0
   8989376.002 7  62534237.277 7  23110255.018 0  23110260.818 0
 88  3  3 11 17 59.0800000  0  2  3 13
 -16319451.273 7  71665192.456 6  21000518.327 0  21000521.651 0
   9038452.039 7  62572478.347 7  23119595.121 0  23119598.619 0
 88  3  3 11 18 29.0800000  0  2  3 13
 -16329562.808 7  71657313.337 7  20998594.325 0  20998597.036 0
   9087638.207 7  62610805.194 7  23128953.496 0  23128958.187 0
 88  3  3 11 18 59.0800000  0  2  3 13
 -16339524.419 7  71649551.048 7  20996699.335 0  20996701.610 0
   9136935.787 7  62649218.873 7  23138334.633 0  23138338.927 0
 88  3  3 11 19 29.0800000  0  2  3 13
 -16349335.545 7  71641906.002 7  20994831.553 0  20994834.660 0
   9186344.951 7  62687719.494 7  23147737.292 0  23147741.383 0
 88  3  3 11 19 59.0800000  0  2  3 13
 -16358995.404 7  71634378.852 7  20992993.292 0  20992996.064 0
   9235866.087 7  62726307.375 7  23157161.165 0  23157164.571 0
 88  3  3 11 20 29.0800000  0  2  3 13
 -16368502.881 7  71626970.426 7  20991183.993 0  20991187.802 0
   9285499.988 7  62764983.127 7  23166606.044 0  23166610.532 0
 88  3  3 11 20 59.0800000  0  2  3 13
 -16377856.980 7  71619681.521 7  20989403.058 0  20989406.317 0
   9335247.599 7  62803747.464 7  23176072.947 0  23176076.431 0
 88  3  3 11 21 29.0800000  0  2  3 13
 -16387056.748 7  71612512.874 7  20987653.388 0  20987657.377 0
   9385109.736 8  62842601.046 7  23185560.714 0  23185564.402 0
 88  3  3 11 21 59.0800000  0  2  3 13
 -16396101.084 7  71605465.333 7  20985932.340 0  20985935.442 0
   9435086.849 7  62881544.224 8  23195072.454 0  23195076.210 0
 88  3  3 11 22 29.0800000  0  2  3 13
 -16404988.906 8  71598539.758 7  20984241.337 0  20984244.208 0
   9485179.569 7  62920577.498 7  23204603.662 0  23204607.982 0
 88  3  3 11 22 59.0800000  0  2  3 13
 -16413719.086 8  71591737.005 7  20982579.754 0  20982582.191 0
   9535388.605 8  62959701.395 7  23214158.121 0  23214163.260 0
 88  3  3 11 23 29.0800000  0  2  3 13
 -16422290.675 7  71585057.847 7  20980948.833 0  20980950.833 0
   9585715.114 8  62998916.830 7  23223735.242 0  23223739.149 0
 88  3  3 11 23 59.0800000  0  2  3 13
 -16430702.833 8  71578502.915 7  20979347.983 0  20979352.116 0
   9636159.045 8  63038223.769 7  23233334.693 0  23233338.196 0
 88  3  3 11 24 29.0800000  0  2  3 13
 -16438953.156 8  71572074.100 7  20977778.399 0  20977779.973 0
   9686722.234 7  63077623.617 7  23242956.157 0  23242960.201 0
 88  3  3 11 24 59.0800000  0  2  3 13
 -16447041.598 8  71565771.421 7  20976238.653 0  20976241.865 0
   9737405.098 7  63117116.733 7  23252600.600 0  23252604.620 0
 88  3  3 11 25 29.0800000  0  2  3 13
 -16454966.780 8  71559595.932 6  20974730.191 0  20974733.417 0
   9788208.504 8  63156703.774 8  23262268.232 0  23262272.225 0
 88  3  3 11 25 59.0800000  0  2  3 13
 -16462727.526 7  71553548.596 7  20973253.589 0  20973256.531 0
   9839132.837 7  63196385.045 7  23271959.380 0  23271963.086 0
 88  3  3 11 26 29.0800000  0  2  3 13
 -16470323.512 7  71547629.653 6  20971808.430 0  20971810.990 0
   9890178.900 8  63236161.167 7  23281673.100 0  23281677.265 0
 88  3  3 11 26 59.0800000  0  2  3 13
 -16477753.374 7  71541840.154 7  20970394.126 0  20970398.318 0
   9941347.278 8  63276032.593 7  23291409.988 0  23291415.105 0
 88  3  3 11 27 29.0800000  0  2  3 13
 -16485015.677 7  71536181.211 7  20969013.240 0  20969015.994 0
   9992638.408 8  63315999.672 7  23301170.984 0  23301175.101 0
 88  3  3 11 27 59.0800000  0  2  3 13
 -16492109.568 7  71530653.503 7  20967662.236 0  20967665.121 0
  10044053.268 8  63356063.180 7  23310954.695 0  23310958.532 0
 88  3  3 11 28 29.0800000  0  2  3 13
 -16499033.898 7  71525257.924 6  20966344.830 0  20966348.204 0
  10095592.086 7  63396223.267 7  23320762.014 0  23320765.571 0
 88  3  3 11 28 59.0800000  0  2  3 13
 -16505787.549 8  71519995.331 7  20965059.848 0  20965063.418 0
  10147255.807 7  63436480.677 7  23330592.464 0  23330597.823 0
 88  3  3 11 29 29.0800000  0  2  3 13
 -16512369.634 7  71514866.440 6  20963807.713 0  20963810.469 0
  10199045.727 8  63476836.424 7  23340448.380 0  23340453.148 0
 88  3  3 11 29 59.0800000  0  2  3 13
 -16518778.311 7  71509872.650 7  20962587.495 0  20962590.061 0
  10250962.657 8  63517291.145 7  23350328.483 0  23350332.656 0
 88  3  3 11 30 29.0800000  0  2  3 13
 -16525012.860 8  71505014.566 7  20961401.685 0  20961403.999 0
  10303005.729 8  63557844.166 7  23360231.970 0  23360236.043 0
 88  3  3 11 30 59.0800000  0  2  3 13
 -16531072.231 7  71500292.999 7  20960248.813 0  20960252.000 0
  10355177.040 7  63598497.098 8  23370159.344 0  23370163.766 0
 88  3  3 11 31 29.0800000  0  2  3 13
 -16536956.096 7  71495708.157 7  20959128.282 0  20959132.240 0
  10407476.954 7  63639250.240 7  23380112.196 0  23380114.637 0
 88  3  3 11 31 59.0800000  0  2  3 13
 -16542661.683 8  71491262.238 7  20958043.355 0  20958045.487 0
  10459906.667 7  63680104.536 8  23390088.785 0  23390093.811 0
 88  3  3 11 32 29.0800000  0  2  3 13
 -16548188.291 8  71486955.801 7  20956991.274 0  20956994.731 0
  10512466.482 7  63721060.196 8  23400091.385 0  23400095.054 0
 88  3  3 11 32 59.0800000  0  2  3 13
 -16553534.980 8  71482789.552 7  20955973.448 0  20955977.175 0
  10565157.056 7  63762117.749 8  23410117.350 0  23410122.896 0
 88  3  3 11 33 29.0800000  0  2  3 13
 -16558700.459 8  71478764.502 7  20954990.641 0  20954994.615 0
  10617979.469 7  63803278.040 8  23420169.853 0  23420174.102 0
 88  3  3 11 33 59.0800000  0  2  3 13
 -16563683.721 7  71474881.439 7  20954042.789 0  20954045.738 0
  10670934.225 7  63844541.462 7  23430244.982 0  23430250.018 0
 88  3  3 11 34 29.0800000  0  2  3 13
 -16568483.712 7  71471141.186 7  20953129.244 0  20953132.263 0
  10724021.379 8  63885908.036 7  23440348.559 0  23440352.995 0
 88  3  3 11 34 59.0800000  0  2  3 13
 -16573098.499 7  71467545.239 7  20952251.364 0  20952254.020 0
  10777242.076 7  63927378.694 7  23450475.173 0  23450479.152 0
 88  3  3 11 35 29.0800000  0  2  3 13
 -16577527.037 7  71464094.446 7  20951407.719 0  20951411.979 0
  10830597.394 7  63968954.237 7  23460628.805 0  23460633.946 0
 88  3  3 11 35 59.0800000  0  2  3 13
 -16581768.399 7  71460789.478 7  20950601.723 0  20950604.563 0
  10884087.813 7  64010635.052 7  23470807.751 0  23470812.819 0
 88  3  3 11 36 29.0800000  0  2  3 13
 -16585821.890 7  71457630.915 7  20949830.094 0  20949832.532 0
  10937713.305 8  64052421.133 7  23481012.358 0  23481017.250 0
 88  3  3 11 36 59.0800000  0  2  3 13
 -16589686.266 7  71454619.701 7  20949094.774 0  20949097.540 0
  10991475.228 8  64094313.513 7  23491243.327 0  23491249.380 0
 88  3  3 11 37 29.0800000  0  2  3 13
 -16593359.420 7  71451757.507 7  20948396.233 0  20948399.168 0
  11045374.248 8  64136312.718 7  23501499.956 0  23501504.476 0
 88  3  3 11 37 59.0800000  0  2  3 13
 -16596840.592 7  71449044.904 7  20947731.762 0  20947735.607 0
  11099410.858 7  64178419.146 7  23511782.198 0  23511786.931 0
 88  3  3 11 38 29.0800000  0  2  3 13
 -16600127.754 7  71446483.460 7  20947106.729 0  20947111.047 0
  11153586.429 7  64220633.875 7  23522091.474 0  23522095.190 0
 88  3  3 11 38 59.0800000  0  2  3 13
 -16603220.385 7  71444073.628 7  20946518.491 0  20946521.817 0
  11207901.024 8  64262956.916 6  23532427.860 0  23532432.417 0
 88  3  3 11 39 29.0800000  0  2  3 13
 -16606117.744 7  71441815.950 7  20945967.038 0  20945969.942 0
  11262355.374 8  64305388.859 7  23542790.414 0  23542794.567 0
 88  3  3 11 39 59.0800000  0  2  3 13
 -16608818.059 7  71439711.796 7  20945453.470 0  20945457.086 0
  11316950.302 8  64347930.325 6  23553178.811 0  23553184.586 0
 88  3  3 11 40 29.0800000  0  2  3 13
 -16611319.699 8  71437762.466 7  20944976.582 0  20944981.302 0
  11371686.456 7  64390581.861 6  23563595.178 0  23563598.583 0
 88  3  3 11 40 59.0800000  0  2  3 13
 -16613621.417 7  71435968.914 6  20944539.899 0  20944543.448 0
  11426564.299 7  64433343.818 7  23574037.481 0  23574042.781 0
 88  3  3 11 41 29.0800000  0  2  3 13
 -16615722.749 7  71434331.511 7  20944139.643 0  20944142.592 0
  11481584.467 7  64476216.654 7  23584507.299 0  23584512.709 0
 88  3  3 11 41 59.0800000  0  2  3 13
 -16617622.291 7  71432851.335 7  20943778.254 0  20943780.641 0
  11536747.683 8  64519200.970 6  23595004.785 0  23595010.732 0
 88  3  3 11 42 29.0800000  0  2  3 13
 -16619318.520 7  71431529.602 7  20943455.128 0  20943459.907 0
  11592054.421 7  64562297.115 7  23605529.845 0  23605534.431 0
 88  3  3 11 42 59.0800000  0  2  3 13
 -16620809.893 7  71430367.500 6  20943171.349 0  20943175.020 0
  11647505.601 8  64605505.805 7  23616082.244 0  23616087.110 0
 88  3  3 11 43 29.0800000  0  2  3 13
 -16622095.002 7  71429366.107 7  20942926.568 0  20942930.388 0
  11703101.815 7  64648827.518 7  23626660.075 0  23626666.813 0
